<?xml version="1.0" encoding="utf-8"?>
<gpx xmlns:xsi="http://www.w3.org/2001/XMLSchema-instance" xmlns:xsd="http://www.w3.org/2001/XMLSchema" version="1.1" creator="Shapelink.com" xmlns="http://www.topografix.com/GPX/1/1" xmlns:gpxtpx="http://www.garmin.com/xmlschemas/TrackPointExtension/v1">
  <metadata>
    <name>Löpning 9.37 km, 2011-03-19</name>
    <desc></desc>
    <author><name>Jojje Borssén</name></author> 
    <time>2011-03-19T17:34:38Z</time>
  </metadata>
  <trk>
    <name>Löpning 9.37 km, 2011-03-19</name>
    <trkseg>
      <trkpt lat="37.1791851286" lon="-7.44494305482">
        <ele>13.2</ele>
        <time>2011-03-19T17:34:38Z</time>
      </trkpt>
      <trkpt lat="37.1791888166" lon="-7.44501161876">
        <ele>13.2</ele>
        <time>2011-03-19T17:34:40Z</time>
      </trkpt>
      <trkpt lat="37.1791884813" lon="-7.44510088599">
        <ele>13.2</ele>
        <time>2011-03-19T17:34:42Z</time>
      </trkpt>
      <trkpt lat="37.1791939296" lon="-7.44517271888">
        <ele>13.2</ele>
        <time>2011-03-19T17:34:44Z</time>
      </trkpt>
      <trkpt lat="37.1792049098" lon="-7.44523223037">
        <ele>13.2</ele>
        <time>2011-03-19T17:34:46Z</time>
      </trkpt>
      <trkpt lat="37.1792059157" lon="-7.44531596555">
        <ele>13.2</ele>
        <time>2011-03-19T17:34:48Z</time>
      </trkpt>
      <trkpt lat="37.1792111124" lon="-7.44538788225">
        <ele>13.2</ele>
        <time>2011-03-19T17:34:50Z</time>
      </trkpt>
      <trkpt lat="37.179209017" lon="-7.44542643899">
        <ele>13.2</ele>
        <time>2011-03-19T17:34:51Z</time>
      </trkpt>
      <trkpt lat="37.1792013056" lon="-7.44553079364">
        <ele>13.2</ele>
        <time>2011-03-19T17:34:54Z</time>
      </trkpt>
      <trkpt lat="37.1791989587" lon="-7.44560698511">
        <ele>13.2</ele>
        <time>2011-03-19T17:34:56Z</time>
      </trkpt>
      <trkpt lat="37.1791979529" lon="-7.44566456877">
        <ele>13.2</ele>
        <time>2011-03-19T17:34:58Z</time>
      </trkpt>
      <trkpt lat="37.1791980367" lon="-7.4457410117">
        <ele>13.2</ele>
        <time>2011-03-19T17:35:00Z</time>
      </trkpt>
      <trkpt lat="37.179200216" lon="-7.44581049765">
        <ele>13.2</ele>
        <time>2011-03-19T17:35:02Z</time>
      </trkpt>
      <trkpt lat="37.1792006351" lon="-7.44587461918">
        <ele>13.2</ele>
        <time>2011-03-19T17:35:04Z</time>
      </trkpt>
      <trkpt lat="37.1792174827" lon="-7.44595667798">
        <ele>13.2</ele>
        <time>2011-03-19T17:35:06Z</time>
      </trkpt>
      <trkpt lat="37.1792287144" lon="-7.44599003795">
        <ele>13.2</ele>
        <time>2011-03-19T17:35:07Z</time>
      </trkpt>
      <trkpt lat="37.1792799278" lon="-7.44605474621">
        <ele>13.2</ele>
        <time>2011-03-19T17:35:10Z</time>
      </trkpt>
      <trkpt lat="37.1793145451" lon="-7.44607553333">
        <ele>13.2</ele>
        <time>2011-03-19T17:35:11Z</time>
      </trkpt>
      <trkpt lat="37.1793730508" lon="-7.44608575924">
        <ele>13.2</ele>
        <time>2011-03-19T17:35:14Z</time>
      </trkpt>
      <trkpt lat="37.1794152117" lon="-7.44609229713">
        <ele>13.2</ele>
        <time>2011-03-19T17:35:17Z</time>
      </trkpt>
      <trkpt lat="37.1794286228" lon="-7.44609447642">
        <ele>13.2</ele>
        <time>2011-03-19T17:35:18Z</time>
      </trkpt>
      <trkpt lat="37.17948453" lon="-7.44608785472">
        <ele>13.2</ele>
        <time>2011-03-19T17:35:21Z</time>
      </trkpt>
      <trkpt lat="37.1794969352" lon="-7.44608785472">
        <ele>13.2</ele>
        <time>2011-03-19T17:35:22Z</time>
      </trkpt>
      <trkpt lat="37.1795583746" lon="-7.44608148447">
        <ele>13.2</ele>
        <time>2011-03-19T17:35:24Z</time>
      </trkpt>
      <trkpt lat="37.1796067381" lon="-7.44607871845">
        <ele>13.2</ele>
        <time>2011-03-19T17:35:26Z</time>
      </trkpt>
      <trkpt lat="37.179680415" lon="-7.44606958218">
        <ele>13.2</ele>
        <time>2011-03-19T17:35:29Z</time>
      </trkpt>
      <trkpt lat="37.1797493981" lon="-7.44606388248">
        <ele>13.2</ele>
        <time>2011-03-19T17:35:32Z</time>
      </trkpt>
      <trkpt lat="37.1798074008" lon="-7.44605793134">
        <ele>13.2</ele>
        <time>2011-03-19T17:35:35Z</time>
      </trkpt>
      <trkpt lat="37.1798842628" lon="-7.44604636431">
        <ele>13.6</ele>
        <time>2011-03-19T17:35:38Z</time>
      </trkpt>
      <trkpt lat="37.1799334646" lon="-7.44604200573">
        <ele>14</ele>
        <time>2011-03-19T17:35:40Z</time>
      </trkpt>
      <trkpt lat="37.1800089017" lon="-7.44603731186">
        <ele>14.4</ele>
        <time>2011-03-19T17:35:43Z</time>
      </trkpt>
      <trkpt lat="37.1800582711" lon="-7.44603211508">
        <ele>14.4</ele>
        <time>2011-03-19T17:35:45Z</time>
      </trkpt>
      <trkpt lat="37.1801362227" lon="-7.44603152835">
        <ele>14.6</ele>
        <time>2011-03-19T17:35:48Z</time>
      </trkpt>
      <trkpt lat="37.1802414994" lon="-7.44602012897">
        <ele>14.8</ele>
        <time>2011-03-19T17:35:53Z</time>
      </trkpt>
      <trkpt lat="37.1803087223" lon="-7.44600512537">
        <ele>15</ele>
        <time>2011-03-19T17:35:56Z</time>
      </trkpt>
      <trkpt lat="37.180355158" lon="-7.44600495773">
        <ele>15</ele>
        <time>2011-03-19T17:35:58Z</time>
      </trkpt>
      <trkpt lat="37.1804012584" lon="-7.44600621501">
        <ele>15</ele>
        <time>2011-03-19T17:36:00Z</time>
      </trkpt>
      <trkpt lat="37.1804832334" lon="-7.44601476455">
        <ele>15</ele>
        <time>2011-03-19T17:36:03Z</time>
      </trkpt>
      <trkpt lat="37.1805335248" lon="-7.44601342345">
        <ele>15</ele>
        <time>2011-03-19T17:36:05Z</time>
      </trkpt>
      <trkpt lat="37.1805916952" lon="-7.44600973541">
        <ele>15.2</ele>
        <time>2011-03-19T17:36:07Z</time>
      </trkpt>
      <trkpt lat="37.1806343591" lon="-7.44600344899">
        <ele>15.2</ele>
        <time>2011-03-19T17:36:09Z</time>
      </trkpt>
      <trkpt lat="37.1806989835" lon="-7.44599372598">
        <ele>15.2</ele>
        <time>2011-03-19T17:36:11Z</time>
      </trkpt>
      <trkpt lat="37.1807278173" lon="-7.44599188196">
        <ele>15.2</ele>
        <time>2011-03-19T17:36:12Z</time>
      </trkpt>
      <trkpt lat="37.1808000692" lon="-7.44595726472">
        <ele>15.8</ele>
        <time>2011-03-19T17:36:15Z</time>
      </trkpt>
      <trkpt lat="37.1808207725" lon="-7.44584905439">
        <ele>16.2</ele>
        <time>2011-03-19T17:36:18Z</time>
      </trkpt>
      <trkpt lat="37.1808209402" lon="-7.44577864643">
        <ele>16.4</ele>
        <time>2011-03-19T17:36:20Z</time>
      </trkpt>
      <trkpt lat="37.1808231195" lon="-7.44567320213">
        <ele>16.6</ele>
        <time>2011-03-19T17:36:23Z</time>
      </trkpt>
      <trkpt lat="37.1808303279" lon="-7.44559064041">
        <ele>16.8</ele>
        <time>2011-03-19T17:36:26Z</time>
      </trkpt>
      <trkpt lat="37.1808338483" lon="-7.44551696351">
        <ele>16.8</ele>
        <time>2011-03-19T17:36:29Z</time>
      </trkpt>
      <trkpt lat="37.1808384583" lon="-7.44542811537">
        <ele>17</ele>
        <time>2011-03-19T17:36:32Z</time>
      </trkpt>
      <trkpt lat="37.1808328425" lon="-7.44537053172">
        <ele>17</ele>
        <time>2011-03-19T17:36:34Z</time>
      </trkpt>
      <trkpt lat="37.1808175874" lon="-7.44529651954">
        <ele>17</ele>
        <time>2011-03-19T17:36:36Z</time>
      </trkpt>
      <trkpt lat="37.1808068586" lon="-7.44526919455">
        <ele>17</ele>
        <time>2011-03-19T17:36:37Z</time>
      </trkpt>
      <trkpt lat="37.180742737" lon="-7.44518537555">
        <ele>17.4</ele>
        <time>2011-03-19T17:36:41Z</time>
      </trkpt>
      <trkpt lat="37.1806854048" lon="-7.44512938445">
        <ele>17.8</ele>
        <time>2011-03-19T17:36:44Z</time>
      </trkpt>
      <trkpt lat="37.1806268154" lon="-7.44508713968">
        <ele>18.2</ele>
        <time>2011-03-19T17:36:47Z</time>
      </trkpt>
      <trkpt lat="37.1805802958" lon="-7.44505746775">
        <ele>18.4</ele>
        <time>2011-03-19T17:36:49Z</time>
      </trkpt>
      <trkpt lat="37.1805212872" lon="-7.44501539061">
        <ele>18.8</ele>
        <time>2011-03-19T17:36:52Z</time>
      </trkpt>
      <trkpt lat="37.1804696547" lon="-7.44497532513">
        <ele>18.8</ele>
        <time>2011-03-19T17:36:54Z</time>
      </trkpt>
      <trkpt lat="37.1804262365" lon="-7.44494037261">
        <ele>19</ele>
        <time>2011-03-19T17:36:56Z</time>
      </trkpt>
      <trkpt lat="37.1803887694" lon="-7.44491329907">
        <ele>19</ele>
        <time>2011-03-19T17:36:58Z</time>
      </trkpt>
      <trkpt lat="37.1803299285" lon="-7.44488060966">
        <ele>19</ele>
        <time>2011-03-19T17:37:00Z</time>
      </trkpt>
      <trkpt lat="37.1802827384" lon="-7.44485219502">
        <ele>19.2</ele>
        <time>2011-03-19T17:37:02Z</time>
      </trkpt>
      <trkpt lat="37.1802425891" lon="-7.44482973153">
        <ele>19.2</ele>
        <time>2011-03-19T17:37:04Z</time>
      </trkpt>
      <trkpt lat="37.1801761206" lon="-7.44479578483">
        <ele>19.2</ele>
        <time>2011-03-19T17:37:06Z</time>
      </trkpt>
      <trkpt lat="37.1801232308" lon="-7.44476133522">
        <ele>19.2</ele>
        <time>2011-03-19T17:37:08Z</time>
      </trkpt>
      <trkpt lat="37.1800571814" lon="-7.44471825226">
        <ele>19.2</ele>
        <time>2011-03-19T17:37:11Z</time>
      </trkpt>
      <trkpt lat="37.1800073929" lon="-7.44468531139">
        <ele>19.2</ele>
        <time>2011-03-19T17:37:13Z</time>
      </trkpt>
      <trkpt lat="37.1799477138" lon="-7.44465044269">
        <ele>19.2</ele>
        <time>2011-03-19T17:37:16Z</time>
      </trkpt>
      <trkpt lat="37.1798788984" lon="-7.44460995811">
        <ele>19.8</ele>
        <time>2011-03-19T17:37:19Z</time>
      </trkpt>
      <trkpt lat="37.1798573569" lon="-7.44460274968">
        <ele>20</ele>
        <time>2011-03-19T17:37:20Z</time>
      </trkpt>
      <trkpt lat="37.1797897988" lon="-7.44457190428">
        <ele>20.4</ele>
        <time>2011-03-19T17:37:23Z</time>
      </trkpt>
      <trkpt lat="37.1797252582" lon="-7.44453611357">
        <ele>20.6</ele>
        <time>2011-03-19T17:37:26Z</time>
      </trkpt>
      <trkpt lat="37.1796568619" lon="-7.44449261151">
        <ele>20.8</ele>
        <time>2011-03-19T17:37:29Z</time>
      </trkpt>
      <trkpt lat="37.1795976019" lon="-7.44443360293">
        <ele>21</ele>
        <time>2011-03-19T17:37:32Z</time>
      </trkpt>
      <trkpt lat="37.1795402697" lon="-7.44436914612">
        <ele>21</ele>
        <time>2011-03-19T17:37:35Z</time>
      </trkpt>
      <trkpt lat="37.1794980249" lon="-7.4443271528">
        <ele>21.2</ele>
        <time>2011-03-19T17:37:37Z</time>
      </trkpt>
      <trkpt lat="37.1794585461" lon="-7.44427945979">
        <ele>21</ele>
        <time>2011-03-19T17:37:39Z</time>
      </trkpt>
      <trkpt lat="37.1794220849" lon="-7.44423520336">
        <ele>20.6</ele>
        <time>2011-03-19T17:37:41Z</time>
      </trkpt>
      <trkpt lat="37.1793864618" lon="-7.44419128221">
        <ele>20.4</ele>
        <time>2011-03-19T17:37:43Z</time>
      </trkpt>
      <trkpt lat="37.179356287" lon="-7.4441480316">
        <ele>20.2</ele>
        <time>2011-03-19T17:37:45Z</time>
      </trkpt>
      <trkpt lat="37.1793213344" lon="-7.44410109296">
        <ele>20</ele>
        <time>2011-03-19T17:37:47Z</time>
      </trkpt>
      <trkpt lat="37.1792964402" lon="-7.44405063392">
        <ele>19.8</ele>
        <time>2011-03-19T17:37:49Z</time>
      </trkpt>
      <trkpt lat="37.1792772456" lon="-7.44397947159">
        <ele>19.8</ele>
        <time>2011-03-19T17:37:52Z</time>
      </trkpt>
      <trkpt lat="37.1792745634" lon="-7.44390638142">
        <ele>19.6</ele>
        <time>2011-03-19T17:37:54Z</time>
      </trkpt>
      <trkpt lat="37.1792800117" lon="-7.44384058351">
        <ele>19.6</ele>
        <time>2011-03-19T17:37:56Z</time>
      </trkpt>
      <trkpt lat="37.1792865495" lon="-7.44378543061">
        <ele>19.6</ele>
        <time>2011-03-19T17:37:58Z</time>
      </trkpt>
      <trkpt lat="37.1793031457" lon="-7.44371502265">
        <ele>19.6</ele>
        <time>2011-03-19T17:38:00Z</time>
      </trkpt>
      <trkpt lat="37.1793170597" lon="-7.44365333186">
        <ele>19.2</ele>
        <time>2011-03-19T17:38:02Z</time>
      </trkpt>
      <trkpt lat="37.1793263636" lon="-7.44361284729">
        <ele>18.8</ele>
        <time>2011-03-19T17:38:03Z</time>
      </trkpt>
      <trkpt lat="37.1793433788" lon="-7.44352710045">
        <ele>18.6</ele>
        <time>2011-03-19T17:38:06Z</time>
      </trkpt>
      <trkpt lat="37.1793560355" lon="-7.44345996143">
        <ele>18.4</ele>
        <time>2011-03-19T17:38:08Z</time>
      </trkpt>
      <trkpt lat="37.1793622381" lon="-7.44340279687">
        <ele>18.2</ele>
        <time>2011-03-19T17:38:10Z</time>
      </trkpt>
      <trkpt lat="37.1793736375" lon="-7.44333129927">
        <ele>18</ele>
        <time>2011-03-19T17:38:12Z</time>
      </trkpt>
      <trkpt lat="37.1793852883" lon="-7.44326877029">
        <ele>17.8</ele>
        <time>2011-03-19T17:38:14Z</time>
      </trkpt>
      <trkpt lat="37.179393754" lon="-7.44321470704">
        <ele>17.8</ele>
        <time>2011-03-19T17:38:16Z</time>
      </trkpt>
      <trkpt lat="37.1794056563" lon="-7.44314790329">
        <ele>17.6</ele>
        <time>2011-03-19T17:38:18Z</time>
      </trkpt>
      <trkpt lat="37.1794211629" lon="-7.4430800099">
        <ele>17.6</ele>
        <time>2011-03-19T17:38:20Z</time>
      </trkpt>
      <trkpt lat="37.1794444645" lon="-7.44298571353">
        <ele>17.6</ele>
        <time>2011-03-19T17:38:23Z</time>
      </trkpt>
      <trkpt lat="37.1794620665" lon="-7.44292586676">
        <ele>17.4</ele>
        <time>2011-03-19T17:38:25Z</time>
      </trkpt>
      <trkpt lat="37.1794802553" lon="-7.44285998503">
        <ele>17.4</ele>
        <time>2011-03-19T17:38:27Z</time>
      </trkpt>
      <trkpt lat="37.1794941692" lon="-7.44280064118">
        <ele>17.4</ele>
        <time>2011-03-19T17:38:29Z</time>
      </trkpt>
      <trkpt lat="37.1795095919" lon="-7.4427402915">
        <ele>17.4</ele>
        <time>2011-03-19T17:38:31Z</time>
      </trkpt>
      <trkpt lat="37.179524344" lon="-7.44268304312">
        <ele>17.4</ele>
        <time>2011-03-19T17:38:33Z</time>
      </trkpt>
      <trkpt lat="37.1795484839" lon="-7.44261255134">
        <ele>17</ele>
        <time>2011-03-19T17:38:35Z</time>
      </trkpt>
      <trkpt lat="37.1795671756" lon="-7.44254943563">
        <ele>16.6</ele>
        <time>2011-03-19T17:38:37Z</time>
      </trkpt>
      <trkpt lat="37.1795866216" lon="-7.44247140014">
        <ele>16.2</ele>
        <time>2011-03-19T17:38:40Z</time>
      </trkpt>
      <trkpt lat="37.1796100909" lon="-7.44239453812">
        <ele>16</ele>
        <time>2011-03-19T17:38:42Z</time>
      </trkpt>
      <trkpt lat="37.1796309618" lon="-7.44233351789">
        <ele>16</ele>
        <time>2011-03-19T17:38:44Z</time>
      </trkpt>
      <trkpt lat="37.1796464683" lon="-7.44229060256">
        <ele>15.8</ele>
        <time>2011-03-19T17:38:46Z</time>
      </trkpt>
      <trkpt lat="37.1796611367" lon="-7.44224383156">
        <ele>15.8</ele>
        <time>2011-03-19T17:38:47Z</time>
      </trkpt>
      <trkpt lat="37.179688294" lon="-7.44215699507">
        <ele>15.6</ele>
        <time>2011-03-19T17:38:50Z</time>
      </trkpt>
      <trkpt lat="37.179704052" lon="-7.4420997467">
        <ele>15.6</ele>
        <time>2011-03-19T17:38:52Z</time>
      </trkpt>
      <trkpt lat="37.1797250067" lon="-7.44203478697">
        <ele>15.4</ele>
        <time>2011-03-19T17:38:54Z</time>
      </trkpt>
      <trkpt lat="37.1797434469" lon="-7.44196605539">
        <ele>15.4</ele>
        <time>2011-03-19T17:38:56Z</time>
      </trkpt>
      <trkpt lat="37.1797597078" lon="-7.44191609927">
        <ele>15.4</ele>
        <time>2011-03-19T17:38:58Z</time>
      </trkpt>
      <trkpt lat="37.179774879" lon="-7.44184233855">
        <ele>15.4</ele>
        <time>2011-03-19T17:39:00Z</time>
      </trkpt>
      <trkpt lat="37.1797971749" lon="-7.44178416816">
        <ele>15.4</ele>
        <time>2011-03-19T17:39:02Z</time>
      </trkpt>
      <trkpt lat="37.1798115918" lon="-7.44173329003">
        <ele>15.4</ele>
        <time>2011-03-19T17:39:04Z</time>
      </trkpt>
      <trkpt lat="37.1798329656" lon="-7.44166321735">
        <ele>15.4</ele>
        <time>2011-03-19T17:39:06Z</time>
      </trkpt>
      <trkpt lat="37.1798505676" lon="-7.44160186184">
        <ele>15.4</ele>
        <time>2011-03-19T17:39:08Z</time>
      </trkpt>
      <trkpt lat="37.1798597039" lon="-7.44155718631">
        <ele>15.4</ele>
        <time>2011-03-19T17:39:10Z</time>
      </trkpt>
      <trkpt lat="37.1798764677" lon="-7.44151930012">
        <ele>15.4</ele>
        <time>2011-03-19T17:39:11Z</time>
      </trkpt>
      <trkpt lat="37.1799185448" lon="-7.44149708809">
        <ele>15.2</ele>
        <time>2011-03-19T17:39:13Z</time>
      </trkpt>
      <trkpt lat="37.179942517" lon="-7.44149574698">
        <ele>15.2</ele>
        <time>2011-03-19T17:39:14Z</time>
      </trkpt>
      <trkpt lat="37.1800030344" lon="-7.44149038257">
        <ele>15.2</ele>
        <time>2011-03-19T17:39:17Z</time>
      </trkpt>
      <trkpt lat="37.1800537449" lon="-7.44148158157">
        <ele>15.2</ele>
        <time>2011-03-19T17:39:19Z</time>
      </trkpt>
      <trkpt lat="37.1801058803" lon="-7.44148334177">
        <ele>15.2</ele>
        <time>2011-03-19T17:39:21Z</time>
      </trkpt>
      <trkpt lat="37.180147203" lon="-7.44148007283">
        <ele>15.2</ele>
        <time>2011-03-19T17:39:23Z</time>
      </trkpt>
      <trkpt lat="37.1801950637" lon="-7.4414773068">
        <ele>15.2</ele>
        <time>2011-03-19T17:39:25Z</time>
      </trkpt>
      <trkpt lat="37.1802465286" lon="-7.44146590742">
        <ele>15.2</ele>
        <time>2011-03-19T17:39:27Z</time>
      </trkpt>
      <trkpt lat="37.1802969876" lon="-7.44145492713">
        <ele>15.2</ele>
        <time>2011-03-19T17:39:29Z</time>
      </trkpt>
      <trkpt lat="37.1803456026" lon="-7.44144486885">
        <ele>15.2</ele>
        <time>2011-03-19T17:39:31Z</time>
      </trkpt>
      <trkpt lat="37.1804191119" lon="-7.44143740896">
        <ele>15.2</ele>
        <time>2011-03-19T17:39:34Z</time>
      </trkpt>
      <trkpt lat="37.1804771984" lon="-7.44143414002">
        <ele>15.2</ele>
        <time>2011-03-19T17:39:36Z</time>
      </trkpt>
      <trkpt lat="37.1805271546" lon="-7.44142852415">
        <ele>15.2</ele>
        <time>2011-03-19T17:39:38Z</time>
      </trkpt>
      <trkpt lat="37.1805729197" lon="-7.44141611893">
        <ele>15.2</ele>
        <time>2011-03-19T17:39:40Z</time>
      </trkpt>
      <trkpt lat="37.1806386338" lon="-7.44141653803">
        <ele>15.2</ele>
        <time>2011-03-19T17:39:42Z</time>
      </trkpt>
      <trkpt lat="37.1806742569" lon="-7.44140815613">
        <ele>15.2</ele>
        <time>2011-03-19T17:39:43Z</time>
      </trkpt>
      <trkpt lat="37.1808261369" lon="-7.44140128297">
        <ele>15.2</ele>
        <time>2011-03-19T17:39:49Z</time>
      </trkpt>
      <trkpt lat="37.1808916834" lon="-7.4413890454">
        <ele>15.2</ele>
        <time>2011-03-19T17:39:52Z</time>
      </trkpt>
      <trkpt lat="37.1809441541" lon="-7.44138032822">
        <ele>15.2</ele>
        <time>2011-03-19T17:39:54Z</time>
      </trkpt>
      <trkpt lat="37.1809905898" lon="-7.44137311979">
        <ele>15.2</ele>
        <time>2011-03-19T17:39:56Z</time>
      </trkpt>
      <trkpt lat="37.1810537055" lon="-7.44136264241">
        <ele>15.2</ele>
        <time>2011-03-19T17:39:59Z</time>
      </trkpt>
      <trkpt lat="37.1811205093" lon="-7.44135224886">
        <ele>15.2</ele>
        <time>2011-03-19T17:40:02Z</time>
      </trkpt>
      <trkpt lat="37.1811974551" lon="-7.44133590415">
        <ele>15.2</ele>
        <time>2011-03-19T17:40:05Z</time>
      </trkpt>
      <trkpt lat="37.1812751553" lon="-7.44133003682">
        <ele>15.2</ele>
        <time>2011-03-19T17:40:08Z</time>
      </trkpt>
      <trkpt lat="37.1813464015" lon="-7.44132307984">
        <ele>15.2</ele>
        <time>2011-03-19T17:40:11Z</time>
      </trkpt>
      <trkpt lat="37.1814018896" lon="-7.44132232547">
        <ele>15.6</ele>
        <time>2011-03-19T17:40:13Z</time>
      </trkpt>
      <trkpt lat="37.1814723814" lon="-7.44131201574">
        <ele>16.2</ele>
        <time>2011-03-19T17:40:16Z</time>
      </trkpt>
      <trkpt lat="37.1815422865" lon="-7.44130355002">
        <ele>16.4</ele>
        <time>2011-03-19T17:40:18Z</time>
      </trkpt>
      <trkpt lat="37.1815896442" lon="-7.44129667686">
        <ele>16.6</ele>
        <time>2011-03-19T17:40:20Z</time>
      </trkpt>
      <trkpt lat="37.1816561965" lon="-7.44129072571">
        <ele>16.8</ele>
        <time>2011-03-19T17:40:23Z</time>
      </trkpt>
      <trkpt lat="37.1817052306" lon="-7.44128251145">
        <ele>16.8</ele>
        <time>2011-03-19T17:40:25Z</time>
      </trkpt>
      <trkpt lat="37.1817595453" lon="-7.4412748001">
        <ele>17.2</ele>
        <time>2011-03-19T17:40:27Z</time>
      </trkpt>
      <trkpt lat="37.1818126866" lon="-7.44126792694">
        <ele>17.6</ele>
        <time>2011-03-19T17:40:29Z</time>
      </trkpt>
      <trkpt lat="37.1818852738" lon="-7.44126314926">
        <ele>18</ele>
        <time>2011-03-19T17:40:32Z</time>
      </trkpt>
      <trkpt lat="37.1819022891" lon="-7.44126004796">
        <ele>18.2</ele>
        <time>2011-03-19T17:40:33Z</time>
      </trkpt>
      <trkpt lat="37.1819605433" lon="-7.44125543791">
        <ele>18.4</ele>
        <time>2011-03-19T17:40:35Z</time>
      </trkpt>
      <trkpt lat="37.1820126787" lon="-7.44124730747">
        <ele>18.6</ele>
        <time>2011-03-19T17:40:37Z</time>
      </trkpt>
      <trkpt lat="37.1820782252" lon="-7.44123096276">
        <ele>19.4</ele>
        <time>2011-03-19T17:40:40Z</time>
      </trkpt>
      <trkpt lat="37.1821376528" lon="-7.441217887">
        <ele>19.8</ele>
        <time>2011-03-19T17:40:42Z</time>
      </trkpt>
      <trkpt lat="37.182188531" lon="-7.44120154229">
        <ele>20</ele>
        <time>2011-03-19T17:40:44Z</time>
      </trkpt>
      <trkpt lat="37.182224154" lon="-7.44119517205">
        <ele>20.4</ele>
        <time>2011-03-19T17:40:46Z</time>
      </trkpt>
      <trkpt lat="37.1822896167" lon="-7.44118720925">
        <ele>20.6</ele>
        <time>2011-03-19T17:40:48Z</time>
      </trkpt>
      <trkpt lat="37.1823371421" lon="-7.44118410794">
        <ele>20.8</ele>
        <time>2011-03-19T17:40:50Z</time>
      </trkpt>
      <trkpt lat="37.1824074662" lon="-7.44117539077">
        <ele>21</ele>
        <time>2011-03-19T17:40:53Z</time>
      </trkpt>
      <trkpt lat="37.1824587634" lon="-7.44116868525">
        <ele>21</ele>
        <time>2011-03-19T17:40:55Z</time>
      </trkpt>
      <trkpt lat="37.1825202027" lon="-7.44116214736">
        <ele>21.6</ele>
        <time>2011-03-19T17:40:58Z</time>
      </trkpt>
      <trkpt lat="37.1825725896" lon="-7.44115401692">
        <ele>22</ele>
        <time>2011-03-19T17:41:00Z</time>
      </trkpt>
      <trkpt lat="37.1826328555" lon="-7.44114999361">
        <ele>22.4</ele>
        <time>2011-03-19T17:41:03Z</time>
      </trkpt>
      <trkpt lat="37.1826979828" lon="-7.44114119261">
        <ele>22.6</ele>
        <time>2011-03-19T17:41:05Z</time>
      </trkpt>
      <trkpt lat="37.1827523814" lon="-7.44113415182">
        <ele>22.8</ele>
        <time>2011-03-19T17:41:07Z</time>
      </trkpt>
      <trkpt lat="37.1828199395" lon="-7.4411159631">
        <ele>23</ele>
        <time>2011-03-19T17:41:10Z</time>
      </trkpt>
      <trkpt lat="37.1828800377" lon="-7.44110791647">
        <ele>23</ele>
        <time>2011-03-19T17:41:12Z</time>
      </trkpt>
      <trkpt lat="37.182930832" lon="-7.44110313879">
        <ele>23.2</ele>
        <time>2011-03-19T17:41:14Z</time>
      </trkpt>
      <trkpt lat="37.1829691373" lon="-7.44109936693">
        <ele>23.2</ele>
        <time>2011-03-19T17:41:16Z</time>
      </trkpt>
      <trkpt lat="37.1830317501" lon="-7.44109240996">
        <ele>23.2</ele>
        <time>2011-03-19T17:41:18Z</time>
      </trkpt>
      <trkpt lat="37.1830812871" lon="-7.44108612353">
        <ele>23.4</ele>
        <time>2011-03-19T17:41:20Z</time>
      </trkpt>
      <trkpt lat="37.1831554669" lon="-7.44107338304">
        <ele>23.4</ele>
        <time>2011-03-19T17:41:23Z</time>
      </trkpt>
      <trkpt lat="37.1832248691" lon="-7.44106315713">
        <ele>23.4</ele>
        <time>2011-03-19T17:41:26Z</time>
      </trkpt>
      <trkpt lat="37.1832958638" lon="-7.44105569723">
        <ele>23.4</ele>
        <time>2011-03-19T17:41:29Z</time>
      </trkpt>
      <trkpt lat="37.1833713009" lon="-7.44104572277">
        <ele>23.4</ele>
        <time>2011-03-19T17:41:32Z</time>
      </trkpt>
      <trkpt lat="37.1834254479" lon="-7.44103197646">
        <ele>23.4</ele>
        <time>2011-03-19T17:41:34Z</time>
      </trkpt>
      <trkpt lat="37.1834895695" lon="-7.44101621849">
        <ele>23.4</ele>
        <time>2011-03-19T17:41:36Z</time>
      </trkpt>
      <trkpt lat="37.1835400285" lon="-7.44100222071">
        <ele>23.4</ele>
        <time>2011-03-19T17:41:38Z</time>
      </trkpt>
      <trkpt lat="37.1835862128" lon="-7.44098948022">
        <ele>23.4</ele>
        <time>2011-03-19T17:41:40Z</time>
      </trkpt>
      <trkpt lat="37.1836515916" lon="-7.44097539863">
        <ele>23.4</ele>
        <time>2011-03-19T17:41:42Z</time>
      </trkpt>
      <trkpt lat="37.1837021345" lon="-7.44096718437">
        <ele>23.4</ele>
        <time>2011-03-19T17:41:44Z</time>
      </trkpt>
      <trkpt lat="37.1837581256" lon="-7.44095226459">
        <ele>23.4</ele>
        <time>2011-03-19T17:41:46Z</time>
      </trkpt>
      <trkpt lat="37.1838437048" lon="-7.44093457878">
        <ele>23.4</ele>
        <time>2011-03-19T17:41:49Z</time>
      </trkpt>
      <trkpt lat="37.1839121011" lon="-7.44092653216">
        <ele>23.4</ele>
        <time>2011-03-19T17:41:52Z</time>
      </trkpt>
      <trkpt lat="37.1839821737" lon="-7.44091697679">
        <ele>23.4</ele>
        <time>2011-03-19T17:41:55Z</time>
      </trkpt>
      <trkpt lat="37.1840289447" lon="-7.44089945862">
        <ele>23.4</ele>
        <time>2011-03-19T17:41:57Z</time>
      </trkpt>
      <trkpt lat="37.1840475526" lon="-7.4408892327">
        <ele>23.4</ele>
        <time>2011-03-19T17:41:58Z</time>
      </trkpt>
      <trkpt lat="37.1841126799" lon="-7.44085034068">
        <ele>23.4</ele>
        <time>2011-03-19T17:42:01Z</time>
      </trkpt>
      <trkpt lat="37.1841530807" lon="-7.44080566516">
        <ele>23.4</ele>
        <time>2011-03-19T17:42:03Z</time>
      </trkpt>
      <trkpt lat="37.1841804057" lon="-7.44074606985">
        <ele>23.4</ele>
        <time>2011-03-19T17:42:05Z</time>
      </trkpt>
      <trkpt lat="37.1841913022" lon="-7.44071447009">
        <ele>23.4</ele>
        <time>2011-03-19T17:42:06Z</time>
      </trkpt>
      <trkpt lat="37.1842099938" lon="-7.44060986397">
        <ele>23.4</ele>
        <time>2011-03-19T17:42:09Z</time>
      </trkpt>
      <trkpt lat="37.1842198006" lon="-7.4405138074">
        <ele>23.4</ele>
        <time>2011-03-19T17:42:12Z</time>
      </trkpt>
      <trkpt lat="37.1842198006" lon="-7.44045505028">
        <ele>23.4</ele>
        <time>2011-03-19T17:42:14Z</time>
      </trkpt>
      <trkpt lat="37.184238157" lon="-7.44033728459">
        <ele>23.4</ele>
        <time>2011-03-19T17:42:18Z</time>
      </trkpt>
      <trkpt lat="37.1842415097" lon="-7.44030786412">
        <ele>23.4</ele>
        <time>2011-03-19T17:42:19Z</time>
      </trkpt>
      <trkpt lat="37.1842544179" lon="-7.44024357494">
        <ele>23.4</ele>
        <time>2011-03-19T17:42:21Z</time>
      </trkpt>
      <trkpt lat="37.1842700082" lon="-7.44018372818">
        <ele>23.4</ele>
        <time>2011-03-19T17:42:23Z</time>
      </trkpt>
      <trkpt lat="37.1842934775" lon="-7.44011776262">
        <ele>23.4</ele>
        <time>2011-03-19T17:42:25Z</time>
      </trkpt>
      <trkpt lat="37.1843234009" lon="-7.44005146179">
        <ele>23.4</ele>
        <time>2011-03-19T17:42:27Z</time>
      </trkpt>
      <trkpt lat="37.1843477922" lon="-7.43999354287">
        <ele>23.4</ele>
        <time>2011-03-19T17:42:29Z</time>
      </trkpt>
      <trkpt lat="37.1843772965" lon="-7.439932355">
        <ele>23.4</ele>
        <time>2011-03-19T17:42:31Z</time>
      </trkpt>
      <trkpt lat="37.1844061302" lon="-7.4398701613">
        <ele>23.4</ele>
        <time>2011-03-19T17:42:33Z</time>
      </trkpt>
      <trkpt lat="37.1844360536" lon="-7.43981400257">
        <ele>23.4</ele>
        <time>2011-03-19T17:42:35Z</time>
      </trkpt>
      <trkpt lat="37.1844647197" lon="-7.43975776002">
        <ele>23.4</ele>
        <time>2011-03-19T17:42:37Z</time>
      </trkpt>
      <trkpt lat="37.1844916256" lon="-7.43969632069">
        <ele>23.4</ele>
        <time>2011-03-19T17:42:39Z</time>
      </trkpt>
      <trkpt lat="37.1845140891" lon="-7.43963228298">
        <ele>23.2</ele>
        <time>2011-03-19T17:42:41Z</time>
      </trkpt>
      <trkpt lat="37.184545186" lon="-7.43955231965">
        <ele>22.8</ele>
        <time>2011-03-19T17:42:44Z</time>
      </trkpt>
      <trkpt lat="37.1845740197" lon="-7.43949163469">
        <ele>22.4</ele>
        <time>2011-03-19T17:42:47Z</time>
      </trkpt>
      <trkpt lat="37.1846155101" lon="-7.43942952481">
        <ele>22.2</ele>
        <time>2011-03-19T17:42:49Z</time>
      </trkpt>
      <trkpt lat="37.1846460202" lon="-7.43936741494">
        <ele>22.2</ele>
        <time>2011-03-19T17:42:51Z</time>
      </trkpt>
      <trkpt lat="37.1846679808" lon="-7.43930035974">
        <ele>22</ele>
        <time>2011-03-19T17:42:53Z</time>
      </trkpt>
      <trkpt lat="37.1846778714" lon="-7.43926867615">
        <ele>21.8</ele>
        <time>2011-03-19T17:42:54Z</time>
      </trkpt>
      <trkpt lat="37.1847082977" lon="-7.43917060792">
        <ele>21.8</ele>
        <time>2011-03-19T17:42:57Z</time>
      </trkpt>
      <trkpt lat="37.1847277438" lon="-7.43910246308">
        <ele>21.8</ele>
        <time>2011-03-19T17:42:59Z</time>
      </trkpt>
      <trkpt lat="37.1847445914" lon="-7.43904144285">
        <ele>21.6</ele>
        <time>2011-03-19T17:43:01Z</time>
      </trkpt>
      <trkpt lat="37.1847598464" lon="-7.43898385919">
        <ele>21.6</ele>
        <time>2011-03-19T17:43:03Z</time>
      </trkpt>
      <trkpt lat="37.1847731736" lon="-7.43892334187">
        <ele>21.6</ele>
        <time>2011-03-19T17:43:05Z</time>
      </trkpt>
      <trkpt lat="37.1847909433" lon="-7.43885477793">
        <ele>21.6</ele>
        <time>2011-03-19T17:43:07Z</time>
      </trkpt>
      <trkpt lat="37.1848011692" lon="-7.43882133415">
        <ele>21.6</ele>
        <time>2011-03-19T17:43:08Z</time>
      </trkpt>
      <trkpt lat="37.1848488622" lon="-7.43872988762">
        <ele>21.6</ele>
        <time>2011-03-19T17:43:11Z</time>
      </trkpt>
      <trkpt lat="37.1848766901" lon="-7.43866735865">
        <ele>21.6</ele>
        <time>2011-03-19T17:43:13Z</time>
      </trkpt>
      <trkpt lat="37.1848967229" lon="-7.43860550023">
        <ele>21.6</ele>
        <time>2011-03-19T17:43:15Z</time>
      </trkpt>
      <trkpt lat="37.184916588" lon="-7.43854171397">
        <ele>21.6</ele>
        <time>2011-03-19T17:43:17Z</time>
      </trkpt>
      <trkpt lat="37.1849375427" lon="-7.43847558078">
        <ele>21.6</ele>
        <time>2011-03-19T17:43:19Z</time>
      </trkpt>
      <trkpt lat="37.1849605929" lon="-7.43841154306">
        <ele>21.6</ele>
        <time>2011-03-19T17:43:21Z</time>
      </trkpt>
      <trkpt lat="37.1849880856" lon="-7.43835462996">
        <ele>21.6</ele>
        <time>2011-03-19T17:43:23Z</time>
      </trkpt>
      <trkpt lat="37.1850112196" lon="-7.43829285536">
        <ele>21.4</ele>
        <time>2011-03-19T17:43:25Z</time>
      </trkpt>
      <trkpt lat="37.1850331802" lon="-7.43823493643">
        <ele>21.4</ele>
        <time>2011-03-19T17:43:27Z</time>
      </trkpt>
      <trkpt lat="37.1850539673" lon="-7.43817718514">
        <ele>21.4</ele>
        <time>2011-03-19T17:43:29Z</time>
      </trkpt>
      <trkpt lat="37.1850814599" lon="-7.43812018822">
        <ele>21.4</ele>
        <time>2011-03-19T17:43:31Z</time>
      </trkpt>
      <trkpt lat="37.1851084496" lon="-7.43807081883">
        <ele>21.4</ele>
        <time>2011-03-19T17:43:33Z</time>
      </trkpt>
      <trkpt lat="37.1851283986" lon="-7.43801767758">
        <ele>21.4</ele>
        <time>2011-03-19T17:43:35Z</time>
      </trkpt>
      <trkpt lat="37.1851548016" lon="-7.43793595405">
        <ele>21.4</ele>
        <time>2011-03-19T17:43:38Z</time>
      </trkpt>
      <trkpt lat="37.1851729903" lon="-7.43787552056">
        <ele>21.4</ele>
        <time>2011-03-19T17:43:40Z</time>
      </trkpt>
      <trkpt lat="37.1851967111" lon="-7.43781332686">
        <ele>21.4</ele>
        <time>2011-03-19T17:43:42Z</time>
      </trkpt>
      <trkpt lat="37.1852181687" lon="-7.43774627166">
        <ele>21.4</ele>
        <time>2011-03-19T17:43:44Z</time>
      </trkpt>
      <trkpt lat="37.1852382015" lon="-7.43768156339">
        <ele>21.2</ele>
        <time>2011-03-19T17:43:46Z</time>
      </trkpt>
      <trkpt lat="37.1852665323" lon="-7.43761266417">
        <ele>21</ele>
        <time>2011-03-19T17:43:48Z</time>
      </trkpt>
      <trkpt lat="37.185293522" lon="-7.43755005138">
        <ele>20.6</ele>
        <time>2011-03-19T17:43:50Z</time>
      </trkpt>
      <trkpt lat="37.1853197573" lon="-7.43748525929">
        <ele>20.4</ele>
        <time>2011-03-19T17:43:52Z</time>
      </trkpt>
      <trkpt lat="37.1853391195" lon="-7.43742021575">
        <ele>20.2</ele>
        <time>2011-03-19T17:43:54Z</time>
      </trkpt>
      <trkpt lat="37.1853507704" lon="-7.43735718386">
        <ele>20.2</ele>
        <time>2011-03-19T17:43:56Z</time>
      </trkpt>
      <trkpt lat="37.1853656902" lon="-7.4372938167">
        <ele>20</ele>
        <time>2011-03-19T17:43:58Z</time>
      </trkpt>
      <trkpt lat="37.1853848847" lon="-7.43722877315">
        <ele>19.8</ele>
        <time>2011-03-19T17:44:00Z</time>
      </trkpt>
      <trkpt lat="37.1854039954" lon="-7.43716616036">
        <ele>19.8</ele>
        <time>2011-03-19T17:44:02Z</time>
      </trkpt>
      <trkpt lat="37.1854273809" lon="-7.43710505631">
        <ele>19.8</ele>
        <time>2011-03-19T17:44:04Z</time>
      </trkpt>
      <trkpt lat="37.1854517723" lon="-7.43704906522">
        <ele>19.2</ele>
        <time>2011-03-19T17:44:06Z</time>
      </trkpt>
      <trkpt lat="37.185471805" lon="-7.43699215211">
        <ele>19</ele>
        <time>2011-03-19T17:44:08Z</time>
      </trkpt>
      <trkpt lat="37.18549452" lon="-7.43693565811">
        <ele>18.6</ele>
        <time>2011-03-19T17:44:10Z</time>
      </trkpt>
      <trkpt lat="37.1855165644" lon="-7.43687497315">
        <ele>18.4</ele>
        <time>2011-03-19T17:44:12Z</time>
      </trkpt>
      <trkpt lat="37.1855360104" lon="-7.43680682831">
        <ele>18.2</ele>
        <time>2011-03-19T17:44:14Z</time>
      </trkpt>
      <trkpt lat="37.1855581386" lon="-7.43673784527">
        <ele>18</ele>
        <time>2011-03-19T17:44:16Z</time>
      </trkpt>
      <trkpt lat="37.1855812726" lon="-7.43666970042">
        <ele>18</ele>
        <time>2011-03-19T17:44:18Z</time>
      </trkpt>
      <trkpt lat="37.1856021436" lon="-7.43660155557">
        <ele>17.8</ele>
        <time>2011-03-19T17:44:20Z</time>
      </trkpt>
      <trkpt lat="37.1856225116" lon="-7.43653483565">
        <ele>17.8</ele>
        <time>2011-03-19T17:44:22Z</time>
      </trkpt>
      <trkpt lat="37.1856464" lon="-7.43646568498">
        <ele>17.6</ele>
        <time>2011-03-19T17:44:24Z</time>
      </trkpt>
      <trkpt lat="37.1856777483" lon="-7.43639728867">
        <ele>17.6</ele>
        <time>2011-03-19T17:44:26Z</time>
      </trkpt>
      <trkpt lat="37.185708426" lon="-7.43633551407">
        <ele>17.6</ele>
        <time>2011-03-19T17:44:28Z</time>
      </trkpt>
      <trkpt lat="37.1857312248" lon="-7.43627533203">
        <ele>17.6</ele>
        <time>2011-03-19T17:44:30Z</time>
      </trkpt>
      <trkpt lat="37.1857558676" lon="-7.43621414416">
        <ele>17.6</ele>
        <time>2011-03-19T17:44:32Z</time>
      </trkpt>
      <trkpt lat="37.1857831926" lon="-7.4361538783">
        <ele>17.6</ele>
        <time>2011-03-19T17:44:34Z</time>
      </trkpt>
      <trkpt lat="37.1858091765" lon="-7.43609621082">
        <ele>17.4</ele>
        <time>2011-03-19T17:44:36Z</time>
      </trkpt>
      <trkpt lat="37.1858348251" lon="-7.43603602878">
        <ele>17.4</ele>
        <time>2011-03-19T17:44:38Z</time>
      </trkpt>
      <trkpt lat="37.1858582106" lon="-7.4359809597">
        <ele>17.4</ele>
        <time>2011-03-19T17:44:40Z</time>
      </trkpt>
      <trkpt lat="37.1858803388" lon="-7.43592295695">
        <ele>17.4</ele>
        <time>2011-03-19T17:44:42Z</time>
      </trkpt>
      <trkpt lat="37.1859052331" lon="-7.43586411601">
        <ele>17.4</ele>
        <time>2011-03-19T17:44:44Z</time>
      </trkpt>
      <trkpt lat="37.1859256011" lon="-7.43580058121">
        <ele>17.4</ele>
        <time>2011-03-19T17:44:46Z</time>
      </trkpt>
      <trkpt lat="37.1859434545" lon="-7.43573763314">
        <ele>17.4</ele>
        <time>2011-03-19T17:44:48Z</time>
      </trkpt>
      <trkpt lat="37.1859530937" lon="-7.43570460846">
        <ele>17.4</ele>
        <time>2011-03-19T17:44:49Z</time>
      </trkpt>
      <trkpt lat="37.1859766469" lon="-7.43561006062">
        <ele>17.4</ele>
        <time>2011-03-19T17:44:52Z</time>
      </trkpt>
      <trkpt lat="37.1859980207" lon="-7.43554929185">
        <ele>17.4</ele>
        <time>2011-03-19T17:44:54Z</time>
      </trkpt>
      <trkpt lat="37.1860222444" lon="-7.43549003182">
        <ele>17.4</ele>
        <time>2011-03-19T17:44:56Z</time>
      </trkpt>
      <trkpt lat="37.1860501561" lon="-7.4354242339">
        <ele>17.4</ele>
        <time>2011-03-19T17:44:58Z</time>
      </trkpt>
      <trkpt lat="37.186073374" lon="-7.43535751398">
        <ele>17.4</ele>
        <time>2011-03-19T17:45:00Z</time>
      </trkpt>
      <trkpt lat="37.1860981844" lon="-7.43529213516">
        <ele>17.4</ele>
        <time>2011-03-19T17:45:02Z</time>
      </trkpt>
      <trkpt lat="37.186117379" lon="-7.43522642106">
        <ele>17</ele>
        <time>2011-03-19T17:45:04Z</time>
      </trkpt>
      <trkpt lat="37.1861381661" lon="-7.43516523319">
        <ele>16.8</ele>
        <time>2011-03-19T17:45:06Z</time>
      </trkpt>
      <trkpt lat="37.1861580312" lon="-7.43508292293">
        <ele>16.4</ele>
        <time>2011-03-19T17:45:09Z</time>
      </trkpt>
      <trkpt lat="37.1861721966" lon="-7.43502341144">
        <ele>16.2</ele>
        <time>2011-03-19T17:45:11Z</time>
      </trkpt>
      <trkpt lat="37.1861930675" lon="-7.43496339704">
        <ele>16</ele>
        <time>2011-03-19T17:45:13Z</time>
      </trkpt>
      <trkpt lat="37.1862153634" lon="-7.43490438846">
        <ele>15.8</ele>
        <time>2011-03-19T17:45:15Z</time>
      </trkpt>
      <trkpt lat="37.1862446162" lon="-7.4348458828">
        <ele>15.8</ele>
        <time>2011-03-19T17:45:17Z</time>
      </trkpt>
      <trkpt lat="37.1862694266" lon="-7.43479089754">
        <ele>15.8</ele>
        <time>2011-03-19T17:45:19Z</time>
      </trkpt>
      <trkpt lat="37.186294237" lon="-7.43473239187">
        <ele>15.6</ele>
        <time>2011-03-19T17:45:21Z</time>
      </trkpt>
      <trkpt lat="37.1863121743" lon="-7.43468251957">
        <ele>15.6</ele>
        <time>2011-03-19T17:45:23Z</time>
      </trkpt>
      <trkpt lat="37.1863372362" lon="-7.43462895923">
        <ele>15.6</ele>
        <time>2011-03-19T17:45:25Z</time>
      </trkpt>
      <trkpt lat="37.1863520722" lon="-7.4345763209">
        <ele>15.6</ele>
        <time>2011-03-19T17:45:27Z</time>
      </trkpt>
      <trkpt lat="37.1863745356" lon="-7.43451991071">
        <ele>15.4</ele>
        <time>2011-03-19T17:45:29Z</time>
      </trkpt>
      <trkpt lat="37.1864017768" lon="-7.43445696264">
        <ele>15.4</ele>
        <time>2011-03-19T17:45:31Z</time>
      </trkpt>
      <trkpt lat="37.1864264196" lon="-7.4343967806">
        <ele>15.4</ele>
        <time>2011-03-19T17:45:33Z</time>
      </trkpt>
      <trkpt lat="37.1864383219" lon="-7.43436886887">
        <ele>15.4</ele>
        <time>2011-03-19T17:45:34Z</time>
      </trkpt>
      <trkpt lat="37.186491547" lon="-7.43428404404">
        <ele>15.4</ele>
        <time>2011-03-19T17:45:37Z</time>
      </trkpt>
      <trkpt lat="37.1865079755" lon="-7.43424934298">
        <ele>15.4</ele>
        <time>2011-03-19T17:45:38Z</time>
      </trkpt>
      <trkpt lat="37.1865484601" lon="-7.4341351815">
        <ele>15.4</ele>
        <time>2011-03-19T17:45:41Z</time>
      </trkpt>
      <trkpt lat="37.1865684928" lon="-7.43407013796">
        <ele>15.4</ele>
        <time>2011-03-19T17:45:43Z</time>
      </trkpt>
      <trkpt lat="37.1865860948" lon="-7.43400878245">
        <ele>15.4</ele>
        <time>2011-03-19T17:45:45Z</time>
      </trkpt>
      <trkpt lat="37.1866086421" lon="-7.43394918714">
        <ele>15.4</ele>
        <time>2011-03-19T17:45:47Z</time>
      </trkpt>
      <trkpt lat="37.1866358833" lon="-7.43388883746">
        <ele>15.4</ele>
        <time>2011-03-19T17:45:49Z</time>
      </trkpt>
      <trkpt lat="37.186651306" lon="-7.43385849498">
        <ele>15.4</ele>
        <time>2011-03-19T17:45:50Z</time>
      </trkpt>
      <trkpt lat="37.1867101469" lon="-7.43377911839">
        <ele>15</ele>
        <time>2011-03-19T17:45:53Z</time>
      </trkpt>
      <trkpt lat="37.1867328619" lon="-7.43376587499">
        <ele>14.8</ele>
        <time>2011-03-19T17:45:54Z</time>
      </trkpt>
      <trkpt lat="37.1867820636" lon="-7.43374902737">
        <ele>14.6</ele>
        <time>2011-03-19T17:45:56Z</time>
      </trkpt>
      <trkpt lat="37.1868269906" lon="-7.43372874317">
        <ele>14.2</ele>
        <time>2011-03-19T17:45:58Z</time>
      </trkpt>
      <trkpt lat="37.1868820597" lon="-7.43370083144">
        <ele>14</ele>
        <time>2011-03-19T17:46:00Z</time>
      </trkpt>
      <trkpt lat="37.1869186886" lon="-7.43369152753">
        <ele>14</ele>
        <time>2011-03-19T17:46:01Z</time>
      </trkpt>
      <trkpt lat="37.1869783677" lon="-7.4336172639">
        <ele>13.8</ele>
        <time>2011-03-19T17:46:04Z</time>
      </trkpt>
      <trkpt lat="37.186987504" lon="-7.43358440685">
        <ele>13.8</ele>
        <time>2011-03-19T17:46:05Z</time>
      </trkpt>
      <trkpt lat="37.1870113924" lon="-7.43347602888">
        <ele>13.6</ele>
        <time>2011-03-19T17:46:08Z</time>
      </trkpt>
      <trkpt lat="37.1870182656" lon="-7.43341626594">
        <ele>13.6</ele>
        <time>2011-03-19T17:46:10Z</time>
      </trkpt>
      <trkpt lat="37.1870276533" lon="-7.43336312469">
        <ele>13.4</ele>
        <time>2011-03-19T17:46:12Z</time>
      </trkpt>
      <trkpt lat="37.1870271504" lon="-7.43324577809">
        <ele>13.4</ele>
        <time>2011-03-19T17:46:16Z</time>
      </trkpt>
      <trkpt lat="37.1870350294" lon="-7.43317897435">
        <ele>13.4</ele>
        <time>2011-03-19T17:46:18Z</time>
      </trkpt>
      <trkpt lat="37.1870410643" lon="-7.4331478775">
        <ele>13.4</ele>
        <time>2011-03-19T17:46:19Z</time>
      </trkpt>
      <trkpt lat="37.1870609294" lon="-7.43305785589">
        <ele>13.4</ele>
        <time>2011-03-19T17:46:22Z</time>
      </trkpt>
      <trkpt lat="37.1870793696" lon="-7.43299339908">
        <ele>13.4</ele>
        <time>2011-03-19T17:46:24Z</time>
      </trkpt>
      <trkpt lat="37.18709957" lon="-7.4329229073">
        <ele>13.4</ele>
        <time>2011-03-19T17:46:26Z</time>
      </trkpt>
      <trkpt lat="37.1871169205" lon="-7.43285845049">
        <ele>13.4</ele>
        <time>2011-03-19T17:46:28Z</time>
      </trkpt>
      <trkpt lat="37.1871389649" lon="-7.43279374222">
        <ele>13.2</ele>
        <time>2011-03-19T17:46:30Z</time>
      </trkpt>
      <trkpt lat="37.1871554773" lon="-7.43272299899">
        <ele>13.2</ele>
        <time>2011-03-19T17:46:32Z</time>
      </trkpt>
      <trkpt lat="37.1871695589" lon="-7.43265778781">
        <ele>13.2</ele>
        <time>2011-03-19T17:46:34Z</time>
      </trkpt>
      <trkpt lat="37.1871753424" lon="-7.43259341481">
        <ele>13.2</ele>
        <time>2011-03-19T17:46:36Z</time>
      </trkpt>
      <trkpt lat="37.1871873285" lon="-7.43252644343">
        <ele>13.2</ele>
        <time>2011-03-19T17:46:38Z</time>
      </trkpt>
      <trkpt lat="37.1872036732" lon="-7.43246181898">
        <ele>13.2</ele>
        <time>2011-03-19T17:46:40Z</time>
      </trkpt>
      <trkpt lat="37.1872228677" lon="-7.43239459615">
        <ele>13.2</ele>
        <time>2011-03-19T17:46:42Z</time>
      </trkpt>
      <trkpt lat="37.1872465885" lon="-7.43233365973">
        <ele>13.2</ele>
        <time>2011-03-19T17:46:44Z</time>
      </trkpt>
      <trkpt lat="37.1872697226" lon="-7.4322646767">
        <ele>13.2</ele>
        <time>2011-03-19T17:46:46Z</time>
      </trkpt>
      <trkpt lat="37.1872868216" lon="-7.43220399174">
        <ele>13.2</ele>
        <time>2011-03-19T17:46:48Z</time>
      </trkpt>
      <trkpt lat="37.1873035016" lon="-7.43213593071">
        <ele>13.2</ele>
        <time>2011-03-19T17:46:50Z</time>
      </trkpt>
      <trkpt lat="37.1873181699" lon="-7.43206032597">
        <ele>13.2</ele>
        <time>2011-03-19T17:46:52Z</time>
      </trkpt>
      <trkpt lat="37.1873332574" lon="-7.43198354777">
        <ele>13.2</ele>
        <time>2011-03-19T17:46:54Z</time>
      </trkpt>
      <trkpt lat="37.1873395438" lon="-7.43191682785">
        <ele>13.2</ele>
        <time>2011-03-19T17:46:56Z</time>
      </trkpt>
      <trkpt lat="37.1873506079" lon="-7.4318315001">
        <ele>13.2</ele>
        <time>2011-03-19T17:46:58Z</time>
      </trkpt>
      <trkpt lat="37.1873557209" lon="-7.43175103386">
        <ele>13.2</ele>
        <time>2011-03-19T17:47:00Z</time>
      </trkpt>
      <trkpt lat="37.1873661982" lon="-7.43167333365">
        <ele>13.2</ele>
        <time>2011-03-19T17:47:02Z</time>
      </trkpt>
      <trkpt lat="37.1873743287" lon="-7.43159823183">
        <ele>13.2</ele>
        <time>2011-03-19T17:47:04Z</time>
      </trkpt>
      <trkpt lat="37.1873833811" lon="-7.4315350323">
        <ele>13.2</ele>
        <time>2011-03-19T17:47:06Z</time>
      </trkpt>
      <trkpt lat="37.1873935232" lon="-7.43147208423">
        <ele>13.2</ele>
        <time>2011-03-19T17:47:08Z</time>
      </trkpt>
      <trkpt lat="37.1874077725" lon="-7.43141190219">
        <ele>13.2</ele>
        <time>2011-03-19T17:47:10Z</time>
      </trkpt>
      <trkpt lat="37.1874221893" lon="-7.43134283533">
        <ele>12.8</ele>
        <time>2011-03-19T17:47:12Z</time>
      </trkpt>
      <trkpt lat="37.1874371929" lon="-7.43127427139">
        <ele>12.6</ele>
        <time>2011-03-19T17:47:14Z</time>
      </trkpt>
      <trkpt lat="37.1874544596" lon="-7.43120193559">
        <ele>12.4</ele>
        <time>2011-03-19T17:47:16Z</time>
      </trkpt>
      <trkpt lat="37.187470972" lon="-7.43112993507">
        <ele>12.2</ele>
        <time>2011-03-19T17:47:18Z</time>
      </trkpt>
      <trkpt lat="37.1874859756" lon="-7.43106153877">
        <ele>12</ele>
        <time>2011-03-19T17:47:20Z</time>
      </trkpt>
      <trkpt lat="37.1875032423" lon="-7.43099322628">
        <ele>11.8</ele>
        <time>2011-03-19T17:47:22Z</time>
      </trkpt>
      <trkpt lat="37.1875216825" lon="-7.43092415943">
        <ele>11.6</ele>
        <time>2011-03-19T17:47:24Z</time>
      </trkpt>
      <trkpt lat="37.1875360993" lon="-7.43085618222">
        <ele>11.6</ele>
        <time>2011-03-19T17:47:26Z</time>
      </trkpt>
      <trkpt lat="37.1875501809" lon="-7.43078610954">
        <ele>11.6</ele>
        <time>2011-03-19T17:47:28Z</time>
      </trkpt>
      <trkpt lat="37.1875644302" lon="-7.4307136061">
        <ele>11.4</ele>
        <time>2011-03-19T17:47:30Z</time>
      </trkpt>
      <trkpt lat="37.1875740694" lon="-7.43064797582">
        <ele>11.4</ele>
        <time>2011-03-19T17:47:32Z</time>
      </trkpt>
      <trkpt lat="37.1875854687" lon="-7.43057580766">
        <ele>11.4</ele>
        <time>2011-03-19T17:47:34Z</time>
      </trkpt>
      <trkpt lat="37.1876016458" lon="-7.43048662425">
        <ele>11.4</ele>
        <time>2011-03-19T17:47:37Z</time>
      </trkpt>
      <trkpt lat="37.1876171523" lon="-7.43040129651">
        <ele>11.4</ele>
        <time>2011-03-19T17:47:40Z</time>
      </trkpt>
      <trkpt lat="37.1876349219" lon="-7.43031253219">
        <ele>11.2</ele>
        <time>2011-03-19T17:47:43Z</time>
      </trkpt>
      <trkpt lat="37.1876482492" lon="-7.43025092522">
        <ele>11.2</ele>
        <time>2011-03-19T17:47:45Z</time>
      </trkpt>
      <trkpt lat="37.1876593971" lon="-7.43015763467">
        <ele>11.2</ele>
        <time>2011-03-19T17:47:48Z</time>
      </trkpt>
      <trkpt lat="37.1876601515" lon="-7.43008177848">
        <ele>11.2</ele>
        <time>2011-03-19T17:47:50Z</time>
      </trkpt>
      <trkpt lat="37.1876666893" lon="-7.4300108676">
        <ele>11.2</ele>
        <time>2011-03-19T17:47:52Z</time>
      </trkpt>
      <trkpt lat="37.1877148853" lon="-7.42982898037">
        <ele>11.2</ele>
        <time>2011-03-19T17:47:58Z</time>
      </trkpt>
      <trkpt lat="37.1877206688" lon="-7.42976142226">
        <ele>11.2</ele>
        <time>2011-03-19T17:48:00Z</time>
      </trkpt>
      <trkpt lat="37.1877317329" lon="-7.42969663017">
        <ele>11.2</ele>
        <time>2011-03-19T17:48:02Z</time>
      </trkpt>
      <trkpt lat="37.1877422941" lon="-7.4296274795">
        <ele>11.2</ele>
        <time>2011-03-19T17:48:04Z</time>
      </trkpt>
      <trkpt lat="37.1877553698" lon="-7.42955723918">
        <ele>11.2</ele>
        <time>2011-03-19T17:48:06Z</time>
      </trkpt>
      <trkpt lat="37.1877610695" lon="-7.42948507102">
        <ele>11.2</ele>
        <time>2011-03-19T17:48:08Z</time>
      </trkpt>
      <trkpt lat="37.1877645061" lon="-7.42941524979">
        <ele>11.2</ele>
        <time>2011-03-19T17:48:10Z</time>
      </trkpt>
      <trkpt lat="37.187777079" lon="-7.42935213408">
        <ele>11.2</ele>
        <time>2011-03-19T17:48:12Z</time>
      </trkpt>
      <trkpt lat="37.1877847903" lon="-7.42928063648">
        <ele>11.2</ele>
        <time>2011-03-19T17:48:14Z</time>
      </trkpt>
      <trkpt lat="37.1878046554" lon="-7.42920637284">
        <ele>11.2</ele>
        <time>2011-03-19T17:48:16Z</time>
      </trkpt>
      <trkpt lat="37.1878140431" lon="-7.42917284524">
        <ele>11.2</ele>
        <time>2011-03-19T17:48:17Z</time>
      </trkpt>
      <trkpt lat="37.1878280409" lon="-7.42909975507">
        <ele>11.2</ele>
        <time>2011-03-19T17:48:19Z</time>
      </trkpt>
      <trkpt lat="37.1878387698" lon="-7.42903228078">
        <ele>11.2</ele>
        <time>2011-03-19T17:48:21Z</time>
      </trkpt>
      <trkpt lat="37.1878524323" lon="-7.42896782397">
        <ele>11.2</ele>
        <time>2011-03-19T17:48:23Z</time>
      </trkpt>
      <trkpt lat="37.1878676873" lon="-7.42890387007">
        <ele>11.2</ele>
        <time>2011-03-19T17:48:25Z</time>
      </trkpt>
      <trkpt lat="37.1878826071" lon="-7.42883832361">
        <ele>11.2</ele>
        <time>2011-03-19T17:48:27Z</time>
      </trkpt>
      <trkpt lat="37.1879005444" lon="-7.42877369916">
        <ele>11.2</ele>
        <time>2011-03-19T17:48:29Z</time>
      </trkpt>
      <trkpt lat="37.1879259415" lon="-7.42870748215">
        <ele>11.6</ele>
        <time>2011-03-19T17:48:31Z</time>
      </trkpt>
      <trkpt lat="37.1879395202" lon="-7.42864562373">
        <ele>12</ele>
        <time>2011-03-19T17:48:33Z</time>
      </trkpt>
      <trkpt lat="37.1879458066" lon="-7.42858451968">
        <ele>12.2</ele>
        <time>2011-03-19T17:48:35Z</time>
      </trkpt>
      <trkpt lat="37.1879443817" lon="-7.42855291992">
        <ele>12.4</ele>
        <time>2011-03-19T17:48:36Z</time>
      </trkpt>
      <trkpt lat="37.1879732154" lon="-7.42847287277">
        <ele>12.6</ele>
        <time>2011-03-19T17:48:39Z</time>
      </trkpt>
      <trkpt lat="37.1879982773" lon="-7.42838368936">
        <ele>12.8</ele>
        <time>2011-03-19T17:48:41Z</time>
      </trkpt>
      <trkpt lat="37.1880310505" lon="-7.42831981928">
        <ele>12.8</ele>
        <time>2011-03-19T17:48:43Z</time>
      </trkpt>
      <trkpt lat="37.1880519215" lon="-7.42825133916">
        <ele>13</ele>
        <time>2011-03-19T17:48:45Z</time>
      </trkpt>
      <trkpt lat="37.1880770672" lon="-7.42818528978">
        <ele>13</ele>
        <time>2011-03-19T17:48:47Z</time>
      </trkpt>
      <trkpt lat="37.1880877122" lon="-7.42815159455">
        <ele>13</ele>
        <time>2011-03-19T17:48:48Z</time>
      </trkpt>
      <trkpt lat="37.1881116844" lon="-7.42808604809">
        <ele>13</ele>
        <time>2011-03-19T17:48:50Z</time>
      </trkpt>
      <trkpt lat="37.1881356567" lon="-7.42802175892">
        <ele>13.2</ele>
        <time>2011-03-19T17:48:52Z</time>
      </trkpt>
      <trkpt lat="37.188146134" lon="-7.42795922994">
        <ele>13.2</ele>
        <time>2011-03-19T17:48:54Z</time>
      </trkpt>
      <trkpt lat="37.1881642389" lon="-7.42789535986">
        <ele>13.2</ele>
        <time>2011-03-19T17:48:56Z</time>
      </trkpt>
      <trkpt lat="37.1881764765" lon="-7.42783433963">
        <ele>13.2</ele>
        <time>2011-03-19T17:48:58Z</time>
      </trkpt>
      <trkpt lat="37.1882011193" lon="-7.42774498858">
        <ele>13.2</ele>
        <time>2011-03-19T17:49:01Z</time>
      </trkpt>
      <trkpt lat="37.1882135245" lon="-7.42768539327">
        <ele>13.2</ele>
        <time>2011-03-19T17:49:03Z</time>
      </trkpt>
      <trkpt lat="37.1882284443" lon="-7.42762713906">
        <ele>13.4</ele>
        <time>2011-03-19T17:49:05Z</time>
      </trkpt>
      <trkpt lat="37.1882432802" lon="-7.42759973025">
        <ele>13.6</ele>
        <time>2011-03-19T17:49:06Z</time>
      </trkpt>
      <trkpt lat="37.1882644865" lon="-7.42749420213">
        <ele>14</ele>
        <time>2011-03-19T17:49:09Z</time>
      </trkpt>
      <trkpt lat="37.1882798253" lon="-7.42742236925">
        <ele>14.4</ele>
        <time>2011-03-19T17:49:11Z</time>
      </trkpt>
      <trkpt lat="37.1882927335" lon="-7.4273493629">
        <ele>14.6</ele>
        <time>2011-03-19T17:49:13Z</time>
      </trkpt>
      <trkpt lat="37.1883074856" lon="-7.42727644037">
        <ele>14.6</ele>
        <time>2011-03-19T17:49:15Z</time>
      </trkpt>
      <trkpt lat="37.1883118442" lon="-7.42719991362">
        <ele>14.8</ele>
        <time>2011-03-19T17:49:17Z</time>
      </trkpt>
      <trkpt lat="37.1883114251" lon="-7.4271614407">
        <ele>14.8</ele>
        <time>2011-03-19T17:49:18Z</time>
      </trkpt>
      <trkpt lat="37.1883043843" lon="-7.42705138635">
        <ele>15</ele>
        <time>2011-03-19T17:49:21Z</time>
      </trkpt>
      <trkpt lat="37.1883090782" lon="-7.42698122985">
        <ele>15</ele>
        <time>2011-03-19T17:49:23Z</time>
      </trkpt>
      <trkpt lat="37.1883105031" lon="-7.42691559957">
        <ele>15</ele>
        <time>2011-03-19T17:49:25Z</time>
      </trkpt>
      <trkpt lat="37.1883025403" lon="-7.42683865373">
        <ele>15.2</ele>
        <time>2011-03-19T17:49:27Z</time>
      </trkpt>
      <trkpt lat="37.188297092" lon="-7.42676732376">
        <ele>15.2</ele>
        <time>2011-03-19T17:49:29Z</time>
      </trkpt>
      <trkpt lat="37.1882950804" lon="-7.42670437569">
        <ele>15.2</ele>
        <time>2011-03-19T17:49:31Z</time>
      </trkpt>
      <trkpt lat="37.1882980979" lon="-7.42663463828">
        <ele>15.2</ele>
        <time>2011-03-19T17:49:33Z</time>
      </trkpt>
      <trkpt lat="37.1883062283" lon="-7.42656305686">
        <ele>15.2</ele>
        <time>2011-03-19T17:49:35Z</time>
      </trkpt>
      <trkpt lat="37.1883231598" lon="-7.42649273272">
        <ele>15.2</ele>
        <time>2011-03-19T17:49:37Z</time>
      </trkpt>
      <trkpt lat="37.1883488084" lon="-7.42642659953">
        <ele>15.6</ele>
        <time>2011-03-19T17:49:39Z</time>
      </trkpt>
      <trkpt lat="37.1883690926" lon="-7.42640162146">
        <ele>15.8</ele>
        <time>2011-03-19T17:49:40Z</time>
      </trkpt>
      <trkpt lat="37.1884454517" lon="-7.42638318128">
        <ele>16.2</ele>
        <time>2011-03-19T17:49:43Z</time>
      </trkpt>
      <trkpt lat="37.1885069748" lon="-7.4263955865">
        <ele>16.4</ele>
        <time>2011-03-19T17:49:45Z</time>
      </trkpt>
      <trkpt lat="37.1885630497" lon="-7.42641159593">
        <ele>16.6</ele>
        <time>2011-03-19T17:49:47Z</time>
      </trkpt>
      <trkpt lat="37.1885923864" lon="-7.4264238335">
        <ele>16.6</ele>
        <time>2011-03-19T17:49:48Z</time>
      </trkpt>
      <trkpt lat="37.1886449409" lon="-7.42644646463">
        <ele>16.8</ele>
        <time>2011-03-19T17:49:50Z</time>
      </trkpt>
      <trkpt lat="37.1886968249" lon="-7.42647471163">
        <ele>16.8</ele>
        <time>2011-03-19T17:49:52Z</time>
      </trkpt>
      <trkpt lat="37.1887489603" lon="-7.42650958034">
        <ele>17</ele>
        <time>2011-03-19T17:49:54Z</time>
      </trkpt>
      <trkpt lat="37.1887995031" lon="-7.4265429403">
        <ele>17</ele>
        <time>2011-03-19T17:49:56Z</time>
      </trkpt>
      <trkpt lat="37.1888526444" lon="-7.42657806046">
        <ele>17</ele>
        <time>2011-03-19T17:49:58Z</time>
      </trkpt>
      <trkpt lat="37.1889063724" lon="-7.42662332272">
        <ele>17.2</ele>
        <time>2011-03-19T17:50:00Z</time>
      </trkpt>
      <trkpt lat="37.1889580049" lon="-7.42665936489">
        <ele>17.2</ele>
        <time>2011-03-19T17:50:02Z</time>
      </trkpt>
      <trkpt lat="37.1890103079" lon="-7.42668224748">
        <ele>17.2</ele>
        <time>2011-03-19T17:50:04Z</time>
      </trkpt>
      <trkpt lat="37.1890585038" lon="-7.42670152585">
        <ele>17.2</ele>
        <time>2011-03-19T17:50:06Z</time>
      </trkpt>
      <trkpt lat="37.1891135729" lon="-7.42671317669">
        <ele>17.2</ele>
        <time>2011-03-19T17:50:08Z</time>
      </trkpt>
      <trkpt lat="37.1891692287" lon="-7.42671736764">
        <ele>17.2</ele>
        <time>2011-03-19T17:50:10Z</time>
      </trkpt>
      <trkpt lat="37.1892263933" lon="-7.42672801265">
        <ele>17.2</ele>
        <time>2011-03-19T17:50:12Z</time>
      </trkpt>
      <trkpt lat="37.1892820491" lon="-7.42673287415">
        <ele>17.2</ele>
        <time>2011-03-19T17:50:14Z</time>
      </trkpt>
      <trkpt lat="37.1893343522" lon="-7.42674444117">
        <ele>17.2</ele>
        <time>2011-03-19T17:50:16Z</time>
      </trkpt>
      <trkpt lat="37.1893897565" lon="-7.42675994769">
        <ele>17.2</ele>
        <time>2011-03-19T17:50:18Z</time>
      </trkpt>
      <trkpt lat="37.1894422272" lon="-7.42677243672">
        <ele>17.2</ele>
        <time>2011-03-19T17:50:20Z</time>
      </trkpt>
      <trkpt lat="37.1894682949" lon="-7.4267688325">
        <ele>17.2</ele>
        <time>2011-03-19T17:50:21Z</time>
      </trkpt>
      <trkpt lat="37.1895155688" lon="-7.42673253888">
        <ele>17.4</ele>
        <time>2011-03-19T17:50:23Z</time>
      </trkpt>
      <trkpt lat="37.18954281" lon="-7.42666657332">
        <ele>17.4</ele>
        <time>2011-03-19T17:50:25Z</time>
      </trkpt>
      <trkpt lat="37.1895493479" lon="-7.42658275432">
        <ele>17.4</ele>
        <time>2011-03-19T17:50:27Z</time>
      </trkpt>
      <trkpt lat="37.1895430615" lon="-7.42654411376">
        <ele>17.4</ele>
        <time>2011-03-19T17:50:28Z</time>
      </trkpt>
      <trkpt lat="37.1895095339" lon="-7.42643481379">
        <ele>17.4</ele>
        <time>2011-03-19T17:50:31Z</time>
      </trkpt>
      <trkpt lat="37.1894789399" lon="-7.42636742331">
        <ele>17.4</ele>
        <time>2011-03-19T17:50:33Z</time>
      </trkpt>
      <trkpt lat="37.1894472564" lon="-7.42629776972">
        <ele>17.4</ele>
        <time>2011-03-19T17:50:35Z</time>
      </trkpt>
      <trkpt lat="37.1894230327" lon="-7.42622099152">
        <ele>17.4</ele>
        <time>2011-03-19T17:50:37Z</time>
      </trkpt>
      <trkpt lat="37.1894013236" lon="-7.42614773371">
        <ele>17.4</ele>
        <time>2011-03-19T17:50:39Z</time>
      </trkpt>
      <trkpt lat="37.1893834701" lon="-7.42608227107">
        <ele>17.4</ele>
        <time>2011-03-19T17:50:41Z</time>
      </trkpt>
      <trkpt lat="37.1893666225" lon="-7.42602234049">
        <ele>17.4</ele>
        <time>2011-03-19T17:50:43Z</time>
      </trkpt>
      <trkpt lat="37.1893377049" lon="-7.42595964388">
        <ele>17.4</ele>
        <time>2011-03-19T17:50:45Z</time>
      </trkpt>
      <trkpt lat="37.1893218631" lon="-7.42592661919">
        <ele>17.4</ele>
        <time>2011-03-19T17:50:46Z</time>
      </trkpt>
      <trkpt lat="37.1892723261" lon="-7.42583810633">
        <ele>17.4</ele>
        <time>2011-03-19T17:50:49Z</time>
      </trkpt>
      <trkpt lat="37.1892424027" lon="-7.42577960067">
        <ele>17.4</ele>
        <time>2011-03-19T17:50:51Z</time>
      </trkpt>
      <trkpt lat="37.1892128984" lon="-7.42571304838">
        <ele>17.4</ele>
        <time>2011-03-19T17:50:53Z</time>
      </trkpt>
      <trkpt lat="37.189183478" lon="-7.42564364625">
        <ele>17.4</ele>
        <time>2011-03-19T17:50:55Z</time>
      </trkpt>
      <trkpt lat="37.1891544766" lon="-7.42558086582">
        <ele>17.4</ele>
        <time>2011-03-19T17:50:57Z</time>
      </trkpt>
      <trkpt lat="37.189127906" lon="-7.42551422971">
        <ele>17.4</ele>
        <time>2011-03-19T17:50:59Z</time>
      </trkpt>
      <trkpt lat="37.1890997428" lon="-7.42545128164">
        <ele>17.4</ele>
        <time>2011-03-19T17:51:01Z</time>
      </trkpt>
      <trkpt lat="37.1890668857" lon="-7.42538917176">
        <ele>17.4</ele>
        <time>2011-03-19T17:51:03Z</time>
      </trkpt>
      <trkpt lat="37.1890357051" lon="-7.42532798389">
        <ele>17.4</ele>
        <time>2011-03-19T17:51:05Z</time>
      </trkpt>
      <trkpt lat="37.1890137445" lon="-7.42526319181">
        <ele>17.4</ele>
        <time>2011-03-19T17:51:07Z</time>
      </trkpt>
      <trkpt lat="37.1889882635" lon="-7.42519890263">
        <ele>17.4</ele>
        <time>2011-03-19T17:51:09Z</time>
      </trkpt>
      <trkpt lat="37.1889600165" lon="-7.42513779858">
        <ele>17.4</ele>
        <time>2011-03-19T17:51:11Z</time>
      </trkpt>
      <trkpt lat="37.1889313504" lon="-7.42507015665">
        <ele>17.4</ele>
        <time>2011-03-19T17:51:13Z</time>
      </trkpt>
      <trkpt lat="37.1889030196" lon="-7.42500368818">
        <ele>17.4</ele>
        <time>2011-03-19T17:51:15Z</time>
      </trkpt>
      <trkpt lat="37.188865804" lon="-7.42494208122">
        <ele>17.4</ele>
        <time>2011-03-19T17:51:17Z</time>
      </trkpt>
      <trkpt lat="37.1888335336" lon="-7.42487460692">
        <ele>17.4</ele>
        <time>2011-03-19T17:51:19Z</time>
      </trkpt>
      <trkpt lat="37.1888019339" lon="-7.42480763554">
        <ele>17.4</ele>
        <time>2011-03-19T17:51:21Z</time>
      </trkpt>
      <trkpt lat="37.1887670652" lon="-7.42474502275">
        <ele>17.4</ele>
        <time>2011-03-19T17:51:23Z</time>
      </trkpt>
      <trkpt lat="37.1887406622" lon="-7.42468341578">
        <ele>17.4</ele>
        <time>2011-03-19T17:51:25Z</time>
      </trkpt>
      <trkpt lat="37.1887156841" lon="-7.42462264701">
        <ele>17.4</ele>
        <time>2011-03-19T17:51:27Z</time>
      </trkpt>
      <trkpt lat="37.1886881915" lon="-7.42456120768">
        <ele>17.4</ele>
        <time>2011-03-19T17:51:29Z</time>
      </trkpt>
      <trkpt lat="37.188670841" lon="-7.42452700953">
        <ele>17.4</ele>
        <time>2011-03-19T17:51:30Z</time>
      </trkpt>
      <trkpt lat="37.188659693" lon="-7.42450052273">
        <ele>17.4</ele>
        <time>2011-03-19T17:51:31Z</time>
      </trkpt>
      <trkpt lat="37.1886301888" lon="-7.42443095296">
        <ele>17.4</ele>
        <time>2011-03-19T17:51:33Z</time>
      </trkpt>
      <trkpt lat="37.1886007683" lon="-7.42437990718">
        <ele>17.4</ele>
        <time>2011-03-19T17:51:35Z</time>
      </trkpt>
      <trkpt lat="37.1885747844" lon="-7.42432257499">
        <ele>17.4</ele>
        <time>2011-03-19T17:51:37Z</time>
      </trkpt>
      <trkpt lat="37.1885468727" lon="-7.42426666771">
        <ele>17.4</ele>
        <time>2011-03-19T17:51:39Z</time>
      </trkpt>
      <trkpt lat="37.1885191286" lon="-7.42420246236">
        <ele>17.4</ele>
        <time>2011-03-19T17:51:41Z</time>
      </trkpt>
      <trkpt lat="37.1884937314" lon="-7.4241457169">
        <ele>17.4</ele>
        <time>2011-03-19T17:51:43Z</time>
      </trkpt>
      <trkpt lat="37.1884620478" lon="-7.42409048018">
        <ele>17.4</ele>
        <time>2011-03-19T17:51:45Z</time>
      </trkpt>
      <trkpt lat="37.1884281011" lon="-7.42403549491">
        <ele>17.4</ele>
        <time>2011-03-19T17:51:47Z</time>
      </trkpt>
      <trkpt lat="37.1883934001" lon="-7.42397925236">
        <ele>17.4</ele>
        <time>2011-03-19T17:51:49Z</time>
      </trkpt>
      <trkpt lat="37.1883638958" lon="-7.42391194571">
        <ele>17.4</ele>
        <time>2011-03-19T17:51:51Z</time>
      </trkpt>
      <trkpt lat="37.1883349782" lon="-7.42384279503">
        <ele>17.4</ele>
        <time>2011-03-19T17:51:53Z</time>
      </trkpt>
      <trkpt lat="37.1883021212" lon="-7.42377465019">
        <ele>17.4</ele>
        <time>2011-03-19T17:51:55Z</time>
      </trkpt>
      <trkpt lat="37.1882719463" lon="-7.42370851699">
        <ele>17.4</ele>
        <time>2011-03-19T17:51:57Z</time>
      </trkpt>
      <trkpt lat="37.1882386702" lon="-7.42364682621">
        <ele>17.4</ele>
        <time>2011-03-19T17:51:59Z</time>
      </trkpt>
      <trkpt lat="37.1882053102" lon="-7.42358580598">
        <ele>17.4</ele>
        <time>2011-03-19T17:52:01Z</time>
      </trkpt>
      <trkpt lat="37.1881775662" lon="-7.42354188482">
        <ele>17.4</ele>
        <time>2011-03-19T17:52:03Z</time>
      </trkpt>
      <trkpt lat="37.1881523366" lon="-7.42349067141">
        <ele>17.4</ele>
        <time>2011-03-19T17:52:05Z</time>
      </trkpt>
      <trkpt lat="37.188134567" lon="-7.4234363567">
        <ele>17.4</ele>
        <time>2011-03-19T17:52:07Z</time>
      </trkpt>
      <trkpt lat="37.1881176356" lon="-7.42338128762">
        <ele>17.4</ele>
        <time>2011-03-19T17:52:09Z</time>
      </trkpt>
      <trkpt lat="37.1881120197" lon="-7.42335379499">
        <ele>17.2</ele>
        <time>2011-03-19T17:52:10Z</time>
      </trkpt>
      <trkpt lat="37.1881425298" lon="-7.42330367122">
        <ele>16.4</ele>
        <time>2011-03-19T17:52:14Z</time>
      </trkpt>
      <trkpt lat="37.1881717826" lon="-7.4232289885">
        <ele>16.2</ele>
        <time>2011-03-19T17:52:17Z</time>
      </trkpt>
      <trkpt lat="37.1881905581" lon="-7.42319772401">
        <ele>16</ele>
        <time>2011-03-19T17:52:18Z</time>
      </trkpt>
      <trkpt lat="37.1882400113" lon="-7.42310820532">
        <ele>15.8</ele>
        <time>2011-03-19T17:52:21Z</time>
      </trkpt>
      <trkpt lat="37.1882726169" lon="-7.42304978347">
        <ele>15.8</ele>
        <time>2011-03-19T17:52:23Z</time>
      </trkpt>
      <trkpt lat="37.1883116766" lon="-7.42298641631">
        <ele>15.6</ele>
        <time>2011-03-19T17:52:25Z</time>
      </trkpt>
      <trkpt lat="37.1883479702" lon="-7.42292086985">
        <ele>15.6</ele>
        <time>2011-03-19T17:52:27Z</time>
      </trkpt>
      <trkpt lat="37.1883527479" lon="-7.42289010828">
        <ele>15.6</ele>
        <time>2011-03-19T17:52:28Z</time>
      </trkpt>
      <trkpt lat="37.1883261772" lon="-7.42283185407">
        <ele>15.4</ele>
        <time>2011-03-19T17:52:30Z</time>
      </trkpt>
      <trkpt lat="37.1882784842" lon="-7.42278114358">
        <ele>15.4</ele>
        <time>2011-03-19T17:52:32Z</time>
      </trkpt>
      <trkpt lat="37.1882536738" lon="-7.42275868009">
        <ele>15.4</ele>
        <time>2011-03-19T17:52:33Z</time>
      </trkpt>
      <trkpt lat="37.1882051426" lon="-7.42272247028">
        <ele>15.4</ele>
        <time>2011-03-19T17:52:35Z</time>
      </trkpt>
      <trkpt lat="37.1881553541" lon="-7.42269372036">
        <ele>15.4</ele>
        <time>2011-03-19T17:52:37Z</time>
      </trkpt>
      <trkpt lat="37.1881052304" lon="-7.42266421607">
        <ele>15.4</ele>
        <time>2011-03-19T17:52:39Z</time>
      </trkpt>
      <trkpt lat="37.1880517538" lon="-7.42263462797">
        <ele>15.2</ele>
        <time>2011-03-19T17:52:41Z</time>
      </trkpt>
      <trkpt lat="37.1880027197" lon="-7.42260881171">
        <ele>15.2</ele>
        <time>2011-03-19T17:52:43Z</time>
      </trkpt>
      <trkpt lat="37.1879496623" lon="-7.42257771487">
        <ele>15.2</ele>
        <time>2011-03-19T17:52:45Z</time>
      </trkpt>
      <trkpt lat="37.1878959343" lon="-7.42254376817">
        <ele>15.2</ele>
        <time>2011-03-19T17:52:47Z</time>
      </trkpt>
      <trkpt lat="37.1878466487" lon="-7.42252222669">
        <ele>15.2</ele>
        <time>2011-03-19T17:52:49Z</time>
      </trkpt>
      <trkpt lat="37.1877872211" lon="-7.42249280622">
        <ele>15.2</ele>
        <time>2011-03-19T17:52:51Z</time>
      </trkpt>
      <trkpt lat="37.187733074" lon="-7.42246522977">
        <ele>15.2</ele>
        <time>2011-03-19T17:52:53Z</time>
      </trkpt>
      <trkpt lat="37.1876775858" lon="-7.42243287563">
        <ele>15.2</ele>
        <time>2011-03-19T17:52:55Z</time>
      </trkpt>
      <trkpt lat="37.1876250313" lon="-7.42240739466">
        <ele>15.2</ele>
        <time>2011-03-19T17:52:57Z</time>
      </trkpt>
      <trkpt lat="37.1875737341" lon="-7.42238342242">
        <ele>15.2</ele>
        <time>2011-03-19T17:52:59Z</time>
      </trkpt>
      <trkpt lat="37.1875191679" lon="-7.42235710326">
        <ele>15.2</ele>
        <time>2011-03-19T17:53:01Z</time>
      </trkpt>
      <trkpt lat="37.1874702176" lon="-7.42232843716">
        <ele>15.2</ele>
        <time>2011-03-19T17:53:03Z</time>
      </trkpt>
      <trkpt lat="37.1874168249" lon="-7.42229868141">
        <ele>15.2</ele>
        <time>2011-03-19T17:53:05Z</time>
      </trkpt>
      <trkpt lat="37.1873630131" lon="-7.42227076969">
        <ele>15.2</ele>
        <time>2011-03-19T17:53:07Z</time>
      </trkpt>
      <trkpt lat="37.1873078602" lon="-7.42224411525">
        <ele>15.2</ele>
        <time>2011-03-19T17:53:09Z</time>
      </trkpt>
      <trkpt lat="37.1872549704" lon="-7.42221494623">
        <ele>15.2</ele>
        <time>2011-03-19T17:53:11Z</time>
      </trkpt>
      <trkpt lat="37.1872012424" lon="-7.42218778888">
        <ele>15.2</ele>
        <time>2011-03-19T17:53:13Z</time>
      </trkpt>
      <trkpt lat="37.1871492747" lon="-7.42215929042">
        <ele>15.2</ele>
        <time>2011-03-19T17:53:15Z</time>
      </trkpt>
      <trkpt lat="37.1870934512" lon="-7.42213523436">
        <ele>15.2</ele>
        <time>2011-03-19T17:53:17Z</time>
      </trkpt>
      <trkpt lat="37.1870375439" lon="-7.42211302233">
        <ele>15.2</ele>
        <time>2011-03-19T17:53:19Z</time>
      </trkpt>
      <trkpt lat="37.186979625" lon="-7.42208930155">
        <ele>15.2</ele>
        <time>2011-03-19T17:53:21Z</time>
      </trkpt>
      <trkpt lat="37.1869262323" lon="-7.42205728269">
        <ele>15.2</ele>
        <time>2011-03-19T17:53:23Z</time>
      </trkpt>
      <trkpt lat="37.186872672" lon="-7.42202878423">
        <ele>15.2</ele>
        <time>2011-03-19T17:53:25Z</time>
      </trkpt>
      <trkpt lat="37.1868157589" lon="-7.42200078869">
        <ele>15.2</ele>
        <time>2011-03-19T17:53:27Z</time>
      </trkpt>
      <trkpt lat="37.186757337" lon="-7.42196843455">
        <ele>15.2</ele>
        <time>2011-03-19T17:53:29Z</time>
      </trkpt>
      <trkpt lat="37.1866983284" lon="-7.42193884645">
        <ele>15.2</ele>
        <time>2011-03-19T17:53:31Z</time>
      </trkpt>
      <trkpt lat="37.186640661" lon="-7.42190171463">
        <ele>15.2</ele>
        <time>2011-03-19T17:53:33Z</time>
      </trkpt>
      <trkpt lat="37.1865848375" lon="-7.42186944431">
        <ele>15.2</ele>
        <time>2011-03-19T17:53:35Z</time>
      </trkpt>
      <trkpt lat="37.1865309419" lon="-7.42183859892">
        <ele>15.2</ele>
        <time>2011-03-19T17:53:37Z</time>
      </trkpt>
      <trkpt lat="37.1864744479" lon="-7.42180557424">
        <ele>15.2</ele>
        <time>2011-03-19T17:53:39Z</time>
      </trkpt>
      <trkpt lat="37.1864197141" lon="-7.42177866834">
        <ele>15.2</ele>
        <time>2011-03-19T17:53:41Z</time>
      </trkpt>
      <trkpt lat="37.1863679978" lon="-7.42175477992">
        <ele>15.2</ele>
        <time>2011-03-19T17:53:43Z</time>
      </trkpt>
      <trkpt lat="37.1863142698" lon="-7.42172929895">
        <ele>15.2</ele>
        <time>2011-03-19T17:53:45Z</time>
      </trkpt>
      <trkpt lat="37.1861657425" lon="-7.42163978026">
        <ele>15.2</ele>
        <time>2011-03-19T17:53:51Z</time>
      </trkpt>
      <trkpt lat="37.1861498169" lon="-7.42161991515">
        <ele>15.2</ele>
        <time>2011-03-19T17:53:52Z</time>
      </trkpt>
      <trkpt lat="37.1861331369" lon="-7.42152980973">
        <ele>15.2</ele>
        <time>2011-03-19T17:53:56Z</time>
      </trkpt>
      <trkpt lat="37.1861291974" lon="-7.4215054184">
        <ele>15.2</ele>
        <time>2011-03-19T17:53:57Z</time>
      </trkpt>
      <trkpt lat="37.1860722843" lon="-7.42143123858">
        <ele>15.2</ele>
        <time>2011-03-19T17:54:00Z</time>
      </trkpt>
      <trkpt lat="37.1860414389" lon="-7.42138857471">
        <ele>15.2</ele>
        <time>2011-03-19T17:54:02Z</time>
      </trkpt>
      <trkpt lat="37.1860086657" lon="-7.42134071406">
        <ele>15.2</ele>
        <time>2011-03-19T17:54:04Z</time>
      </trkpt>
      <trkpt lat="37.1859793291" lon="-7.42128296277">
        <ele>15.2</ele>
        <time>2011-03-19T17:54:06Z</time>
      </trkpt>
      <trkpt lat="37.1859568656" lon="-7.42121959561">
        <ele>15.2</ele>
        <time>2011-03-19T17:54:08Z</time>
      </trkpt>
      <trkpt lat="37.1859499924" lon="-7.42118766057">
        <ele>15.2</ele>
        <time>2011-03-19T17:54:09Z</time>
      </trkpt>
      <trkpt lat="37.1859432869" lon="-7.4210995668">
        <ele>15.2</ele>
        <time>2011-03-19T17:54:12Z</time>
      </trkpt>
      <trkpt lat="37.1859410238" lon="-7.42106805086">
        <ele>15.2</ele>
        <time>2011-03-19T17:54:13Z</time>
      </trkpt>
      <trkpt lat="37.1859074962" lon="-7.42095447611">
        <ele>15.2</ele>
        <time>2011-03-19T17:54:16Z</time>
      </trkpt>
      <trkpt lat="37.1858940013" lon="-7.42088012866">
        <ele>15.2</ele>
        <time>2011-03-19T17:54:18Z</time>
      </trkpt>
      <trkpt lat="37.1859048978" lon="-7.42080896633">
        <ele>15.2</ele>
        <time>2011-03-19T17:54:20Z</time>
      </trkpt>
      <trkpt lat="37.1859250982" lon="-7.42074098912">
        <ele>15.2</ele>
        <time>2011-03-19T17:54:22Z</time>
      </trkpt>
      <trkpt lat="37.1859493219" lon="-7.42067242518">
        <ele>15.2</ele>
        <time>2011-03-19T17:54:24Z</time>
      </trkpt>
      <trkpt lat="37.1859786585" lon="-7.42060578907">
        <ele>15.2</ele>
        <time>2011-03-19T17:54:26Z</time>
      </trkpt>
      <trkpt lat="37.1860053968" lon="-7.42054091317">
        <ele>15.2</ele>
        <time>2011-03-19T17:54:28Z</time>
      </trkpt>
      <trkpt lat="37.1860220767" lon="-7.42047394178">
        <ele>15.2</ele>
        <time>2011-03-19T17:54:30Z</time>
      </trkpt>
      <trkpt lat="37.186039092" lon="-7.42040194126">
        <ele>15</ele>
        <time>2011-03-19T17:54:32Z</time>
      </trkpt>
      <trkpt lat="37.1860597953" lon="-7.42033270677">
        <ele>14.6</ele>
        <time>2011-03-19T17:54:34Z</time>
      </trkpt>
      <trkpt lat="37.186082175" lon="-7.42026540011">
        <ele>14.4</ele>
        <time>2011-03-19T17:54:36Z</time>
      </trkpt>
      <trkpt lat="37.1861069016" lon="-7.4201996022">
        <ele>14.2</ele>
        <time>2011-03-19T17:54:38Z</time>
      </trkpt>
      <trkpt lat="37.1861339751" lon="-7.42013313373">
        <ele>14</ele>
        <time>2011-03-19T17:54:40Z</time>
      </trkpt>
      <trkpt lat="37.1861581988" lon="-7.42006306105">
        <ele>13.8</ele>
        <time>2011-03-19T17:54:42Z</time>
      </trkpt>
      <trkpt lat="37.1861780639" lon="-7.41999248545">
        <ele>13.8</ele>
        <time>2011-03-19T17:54:44Z</time>
      </trkpt>
      <trkpt lat="37.18620212" lon="-7.41992190985">
        <ele>13.6</ele>
        <time>2011-03-19T17:54:46Z</time>
      </trkpt>
      <trkpt lat="37.1862199734" lon="-7.41985091516">
        <ele>13.6</ele>
        <time>2011-03-19T17:54:48Z</time>
      </trkpt>
      <trkpt lat="37.1862353123" lon="-7.41978235122">
        <ele>13.4</ele>
        <time>2011-03-19T17:54:50Z</time>
      </trkpt>
      <trkpt lat="37.1862542554" lon="-7.41972024134">
        <ele>13.4</ele>
        <time>2011-03-19T17:54:52Z</time>
      </trkpt>
      <trkpt lat="37.186268337" lon="-7.41964907901">
        <ele>13.4</ele>
        <time>2011-03-19T17:54:54Z</time>
      </trkpt>
      <trkpt lat="37.1862881183" lon="-7.41958361637">
        <ele>13.4</ele>
        <time>2011-03-19T17:54:56Z</time>
      </trkpt>
      <trkpt lat="37.1863058879" lon="-7.41951681262">
        <ele>13.4</ele>
        <time>2011-03-19T17:54:58Z</time>
      </trkpt>
      <trkpt lat="37.1863255853" lon="-7.4194448121">
        <ele>13.2</ele>
        <time>2011-03-19T17:55:00Z</time>
      </trkpt>
      <trkpt lat="37.1863503958" lon="-7.41937256012">
        <ele>13.2</ele>
        <time>2011-03-19T17:55:02Z</time>
      </trkpt>
      <trkpt lat="37.1863728593" lon="-7.41930340945">
        <ele>13.2</ele>
        <time>2011-03-19T17:55:04Z</time>
      </trkpt>
      <trkpt lat="37.1863985079" lon="-7.41923409114">
        <ele>13.2</ele>
        <time>2011-03-19T17:55:06Z</time>
      </trkpt>
      <trkpt lat="37.1864207199" lon="-7.41916879614">
        <ele>13.2</ele>
        <time>2011-03-19T17:55:08Z</time>
      </trkpt>
      <trkpt lat="37.1864419261" lon="-7.4191033335">
        <ele>13.2</ele>
        <time>2011-03-19T17:55:10Z</time>
      </trkpt>
      <trkpt lat="37.1864669042" lon="-7.41903602684">
        <ele>13.2</ele>
        <time>2011-03-19T17:55:12Z</time>
      </trkpt>
      <trkpt lat="37.186490625" lon="-7.41896779817">
        <ele>13.2</ele>
        <time>2011-03-19T17:55:14Z</time>
      </trkpt>
      <trkpt lat="37.1865281759" lon="-7.41890325754">
        <ele>13.2</ele>
        <time>2011-03-19T17:55:16Z</time>
      </trkpt>
      <trkpt lat="37.1865514776" lon="-7.41883444214">
        <ele>13.2</ele>
        <time>2011-03-19T17:55:18Z</time>
      </trkpt>
      <trkpt lat="37.1865700854" lon="-7.41876361509">
        <ele>13.2</ele>
        <time>2011-03-19T17:55:20Z</time>
      </trkpt>
      <trkpt lat="37.1865907048" lon="-7.41869303949">
        <ele>13.2</ele>
        <time>2011-03-19T17:55:22Z</time>
      </trkpt>
      <trkpt lat="37.1866131683" lon="-7.41862355354">
        <ele>13.2</ele>
        <time>2011-03-19T17:55:24Z</time>
      </trkpt>
      <trkpt lat="37.1866298483" lon="-7.41855490578">
        <ele>13.2</ele>
        <time>2011-03-19T17:55:26Z</time>
      </trkpt>
      <trkpt lat="37.1866487076" lon="-7.41849086806">
        <ele>13.2</ele>
        <time>2011-03-19T17:55:28Z</time>
      </trkpt>
      <trkpt lat="37.1866785472" lon="-7.41842691417">
        <ele>13.2</ele>
        <time>2011-03-19T17:55:30Z</time>
      </trkpt>
      <trkpt lat="37.1867078" lon="-7.41835726058">
        <ele>13.2</ele>
        <time>2011-03-19T17:55:32Z</time>
      </trkpt>
      <trkpt lat="37.1867404894" lon="-7.41828903191">
        <ele>13.2</ele>
        <time>2011-03-19T17:55:34Z</time>
      </trkpt>
      <trkpt lat="37.1867677306" lon="-7.41821703139">
        <ele>13.2</ele>
        <time>2011-03-19T17:55:36Z</time>
      </trkpt>
      <trkpt lat="37.186789775" lon="-7.41814712634">
        <ele>13.2</ele>
        <time>2011-03-19T17:55:38Z</time>
      </trkpt>
      <trkpt lat="37.1868008391" lon="-7.41807797567">
        <ele>13.2</ele>
        <time>2011-03-19T17:55:40Z</time>
      </trkpt>
      <trkpt lat="37.186816597" lon="-7.41800714861">
        <ele>13.2</ele>
        <time>2011-03-19T17:55:42Z</time>
      </trkpt>
      <trkpt lat="37.1868344505" lon="-7.41793363935">
        <ele>13.2</ele>
        <time>2011-03-19T17:55:44Z</time>
      </trkpt>
      <trkpt lat="37.1868521363" lon="-7.41786205793">
        <ele>13.2</ele>
        <time>2011-03-19T17:55:46Z</time>
      </trkpt>
      <trkpt lat="37.1868720852" lon="-7.41778863248">
        <ele>13.2</ele>
        <time>2011-03-19T17:55:48Z</time>
      </trkpt>
      <trkpt lat="37.1868933753" lon="-7.41771931417">
        <ele>13.2</ele>
        <time>2011-03-19T17:55:50Z</time>
      </trkpt>
      <trkpt lat="37.1869166769" lon="-7.41765041495">
        <ele>13.2</ele>
        <time>2011-03-19T17:55:52Z</time>
      </trkpt>
      <trkpt lat="37.186937045" lon="-7.41758084518">
        <ele>13.2</ele>
        <time>2011-03-19T17:55:54Z</time>
      </trkpt>
      <trkpt lat="37.1869554013" lon="-7.41751135923">
        <ele>13.2</ele>
        <time>2011-03-19T17:55:56Z</time>
      </trkpt>
      <trkpt lat="37.1869750988" lon="-7.41744212474">
        <ele>13.2</ele>
        <time>2011-03-19T17:55:58Z</time>
      </trkpt>
      <trkpt lat="37.1870034296" lon="-7.41737079477">
        <ele>13.2</ele>
        <time>2011-03-19T17:56:00Z</time>
      </trkpt>
      <trkpt lat="37.1870200258" lon="-7.41729317837">
        <ele>13.2</ele>
        <time>2011-03-19T17:56:02Z</time>
      </trkpt>
      <trkpt lat="37.1870352808" lon="-7.41721640017">
        <ele>13.2</ele>
        <time>2011-03-19T17:56:04Z</time>
      </trkpt>
      <trkpt lat="37.1870527152" lon="-7.41714113071">
        <ele>13.2</ele>
        <time>2011-03-19T17:56:06Z</time>
      </trkpt>
      <trkpt lat="37.187075933" lon="-7.41706938164">
        <ele>13.2</ele>
        <time>2011-03-19T17:56:08Z</time>
      </trkpt>
      <trkpt lat="37.1870973069" lon="-7.41700056624">
        <ele>13.2</ele>
        <time>2011-03-19T17:56:10Z</time>
      </trkpt>
      <trkpt lat="37.1871237937" lon="-7.41693527124">
        <ele>13.2</ele>
        <time>2011-03-19T17:56:12Z</time>
      </trkpt>
      <trkpt lat="37.1871573213" lon="-7.41686922187">
        <ele>13.2</ele>
        <time>2011-03-19T17:56:14Z</time>
      </trkpt>
      <trkpt lat="37.1871827184" lon="-7.416798311">
        <ele>13.2</ele>
        <time>2011-03-19T17:56:16Z</time>
      </trkpt>
      <trkpt lat="37.1872101273" lon="-7.41672631048">
        <ele>13.2</ele>
        <time>2011-03-19T17:56:18Z</time>
      </trkpt>
      <trkpt lat="37.1872328422" lon="-7.41665430995">
        <ele>13.2</ele>
        <time>2011-03-19T17:56:20Z</time>
      </trkpt>
      <trkpt lat="37.1872493545" lon="-7.41659236771">
        <ele>13.2</ele>
        <time>2011-03-19T17:56:22Z</time>
      </trkpt>
      <trkpt lat="37.1872767634" lon="-7.41651793644">
        <ele>13.2</ele>
        <time>2011-03-19T17:56:24Z</time>
      </trkpt>
      <trkpt lat="37.1873046751" lon="-7.41644920486">
        <ele>13.2</ele>
        <time>2011-03-19T17:56:26Z</time>
      </trkpt>
      <trkpt lat="37.1873277253" lon="-7.41637401922">
        <ele>13.2</ele>
        <time>2011-03-19T17:56:28Z</time>
      </trkpt>
      <trkpt lat="37.1873426451" lon="-7.41629405589">
        <ele>13.2</ele>
        <time>2011-03-19T17:56:30Z</time>
      </trkpt>
      <trkpt lat="37.1873610015" lon="-7.41621853497">
        <ele>13.2</ele>
        <time>2011-03-19T17:56:32Z</time>
      </trkpt>
      <trkpt lat="37.1873739096" lon="-7.41614603154">
        <ele>13.2</ele>
        <time>2011-03-19T17:56:34Z</time>
      </trkpt>
      <trkpt lat="37.1873902543" lon="-7.41607654559">
        <ele>13.2</ele>
        <time>2011-03-19T17:56:36Z</time>
      </trkpt>
      <trkpt lat="37.1874042521" lon="-7.41600186286">
        <ele>13.2</ele>
        <time>2011-03-19T17:56:38Z</time>
      </trkpt>
      <trkpt lat="37.1874159029" lon="-7.41592785068">
        <ele>13.2</ele>
        <time>2011-03-19T17:56:40Z</time>
      </trkpt>
      <trkpt lat="37.1874249554" lon="-7.4158511563">
        <ele>13.2</ele>
        <time>2011-03-19T17:56:42Z</time>
      </trkpt>
      <trkpt lat="37.1874361871" lon="-7.41577488101">
        <ele>13.2</ele>
        <time>2011-03-19T17:56:44Z</time>
      </trkpt>
      <trkpt lat="37.1874611652" lon="-7.41570397013">
        <ele>13.2</ele>
        <time>2011-03-19T17:56:46Z</time>
      </trkpt>
      <trkpt lat="37.187478851" lon="-7.41563188579">
        <ele>13.2</ele>
        <time>2011-03-19T17:56:48Z</time>
      </trkpt>
      <trkpt lat="37.1874998057" lon="-7.41556080728">
        <ele>13.2</ele>
        <time>2011-03-19T17:56:50Z</time>
      </trkpt>
      <trkpt lat="37.1875176592" lon="-7.41550255308">
        <ele>13.2</ele>
        <time>2011-03-19T17:56:52Z</time>
      </trkpt>
      <trkpt lat="37.1875310702" lon="-7.41542334412">
        <ele>13.2</ele>
        <time>2011-03-19T17:56:54Z</time>
      </trkpt>
      <trkpt lat="37.1875466605" lon="-7.41535251707">
        <ele>13.2</ele>
        <time>2011-03-19T17:56:56Z</time>
      </trkpt>
      <trkpt lat="37.1875590658" lon="-7.41528462368">
        <ele>13.2</ele>
        <time>2011-03-19T17:56:58Z</time>
      </trkpt>
      <trkpt lat="37.1875689564" lon="-7.41521807139">
        <ele>13.2</ele>
        <time>2011-03-19T17:57:00Z</time>
      </trkpt>
      <trkpt lat="37.187576081" lon="-7.41514749579">
        <ele>13.2</ele>
        <time>2011-03-19T17:57:02Z</time>
      </trkpt>
      <trkpt lat="37.1875806072" lon="-7.41507524381">
        <ele>13.2</ele>
        <time>2011-03-19T17:57:04Z</time>
      </trkpt>
      <trkpt lat="37.1875793499" lon="-7.41500223746">
        <ele>13.2</ele>
        <time>2011-03-19T17:57:06Z</time>
      </trkpt>
      <trkpt lat="37.1875827027" lon="-7.4149273871">
        <ele>13.2</ele>
        <time>2011-03-19T17:57:08Z</time>
      </trkpt>
      <trkpt lat="37.1875771707" lon="-7.41485287201">
        <ele>13.2</ele>
        <time>2011-03-19T17:57:10Z</time>
      </trkpt>
      <trkpt lat="37.1875726444" lon="-7.41478170968">
        <ele>13.2</ele>
        <time>2011-03-19T17:57:12Z</time>
      </trkpt>
      <trkpt lat="37.1875546233" lon="-7.41471046353">
        <ele>13.2</ele>
        <time>2011-03-19T17:57:14Z</time>
      </trkpt>
      <trkpt lat="37.1875161504" lon="-7.41464516852">
        <ele>13.2</ele>
        <time>2011-03-19T17:57:16Z</time>
      </trkpt>
      <trkpt lat="37.1874734027" lon="-7.41459412275">
        <ele>13.2</ele>
        <time>2011-03-19T17:57:18Z</time>
      </trkpt>
      <trkpt lat="37.1874287272" lon="-7.4145497825">
        <ele>13.2</ele>
        <time>2011-03-19T17:57:20Z</time>
      </trkpt>
      <trkpt lat="37.187382962" lon="-7.41451164486">
        <ele>13.2</ele>
        <time>2011-03-19T17:57:22Z</time>
      </trkpt>
      <trkpt lat="37.1873330059" lon="-7.41447602178">
        <ele>13.2</ele>
        <time>2011-03-19T17:57:24Z</time>
      </trkpt>
      <trkpt lat="37.1872807867" lon="-7.41443721359">
        <ele>13.2</ele>
        <time>2011-03-19T17:57:26Z</time>
      </trkpt>
      <trkpt lat="37.187225969" lon="-7.4143971481">
        <ele>13.2</ele>
        <time>2011-03-19T17:57:28Z</time>
      </trkpt>
      <trkpt lat="37.1871688045" lon="-7.41436948783">
        <ele>13.2</ele>
        <time>2011-03-19T17:57:30Z</time>
      </trkpt>
      <trkpt lat="37.1871124781" lon="-7.41434224666">
        <ele>13.2</ele>
        <time>2011-03-19T17:57:32Z</time>
      </trkpt>
      <trkpt lat="37.1870574929" lon="-7.4143221301">
        <ele>13.2</ele>
        <time>2011-03-19T17:57:34Z</time>
      </trkpt>
      <trkpt lat="37.1870012503" lon="-7.41430067243">
        <ele>13.2</ele>
        <time>2011-03-19T17:57:36Z</time>
      </trkpt>
      <trkpt lat="37.1869439181" lon="-7.41427829276">
        <ele>13.2</ele>
        <time>2011-03-19T17:57:38Z</time>
      </trkpt>
      <trkpt lat="37.1868858315" lon="-7.41426043931">
        <ele>13.2</ele>
        <time>2011-03-19T17:57:40Z</time>
      </trkpt>
      <trkpt lat="37.1868265715" lon="-7.4142435917">
        <ele>13.2</ele>
        <time>2011-03-19T17:57:42Z</time>
      </trkpt>
      <trkpt lat="37.1867691555" lon="-7.41422087675">
        <ele>13.2</ele>
        <time>2011-03-19T17:57:44Z</time>
      </trkpt>
      <trkpt lat="37.186741579" lon="-7.41421442268">
        <ele>13.2</ele>
        <time>2011-03-19T17:57:45Z</time>
      </trkpt>
      <trkpt lat="37.1866566704" lon="-7.41418651096">
        <ele>13.2</ele>
        <time>2011-03-19T17:57:48Z</time>
      </trkpt>
      <trkpt lat="37.1866016851" lon="-7.41417092062">
        <ele>13.2</ele>
        <time>2011-03-19T17:57:50Z</time>
      </trkpt>
      <trkpt lat="37.1865458617" lon="-7.41414284126">
        <ele>13.2</ele>
        <time>2011-03-19T17:57:52Z</time>
      </trkpt>
      <trkpt lat="37.1864342148" lon="-7.41409749518">
        <ele>13.2</ele>
        <time>2011-03-19T17:57:56Z</time>
      </trkpt>
      <trkpt lat="37.1863853483" lon="-7.41407084074">
        <ele>13.2</ele>
        <time>2011-03-19T17:57:58Z</time>
      </trkpt>
      <trkpt lat="37.1863161138" lon="-7.41404502448">
        <ele>13.2</ele>
        <time>2011-03-19T17:58:01Z</time>
      </trkpt>
      <trkpt lat="37.1862614638" lon="-7.41403060762">
        <ele>13.2</ele>
        <time>2011-03-19T17:58:03Z</time>
      </trkpt>
      <trkpt lat="37.1862038802" lon="-7.41400940141">
        <ele>13.2</ele>
        <time>2011-03-19T17:58:05Z</time>
      </trkpt>
      <trkpt lat="37.1861450392" lon="-7.4139899554">
        <ele>13.2</ele>
        <time>2011-03-19T17:58:07Z</time>
      </trkpt>
      <trkpt lat="37.18609282" lon="-7.41396925211">
        <ele>13.2</ele>
        <time>2011-03-19T17:58:09Z</time>
      </trkpt>
      <trkpt lat="37.1860380862" lon="-7.4139515663">
        <ele>13.2</ele>
        <time>2011-03-19T17:58:11Z</time>
      </trkpt>
      <trkpt lat="37.1859817598" lon="-7.41391585941">
        <ele>13.2</ele>
        <time>2011-03-19T17:58:13Z</time>
      </trkpt>
      <trkpt lat="37.1859269422" lon="-7.41388459492">
        <ele>13.2</ele>
        <time>2011-03-19T17:58:15Z</time>
      </trkpt>
      <trkpt lat="37.1858738009" lon="-7.41385165405">
        <ele>13.2</ele>
        <time>2011-03-19T17:58:17Z</time>
      </trkpt>
      <trkpt lat="37.1858194862" lon="-7.41382390996">
        <ele>13.2</ele>
        <time>2011-03-19T17:58:19Z</time>
      </trkpt>
      <trkpt lat="37.1857657582" lon="-7.41379507623">
        <ele>13.2</ele>
        <time>2011-03-19T17:58:21Z</time>
      </trkpt>
      <trkpt lat="37.1857118626" lon="-7.41376322501">
        <ele>13.2</ele>
        <time>2011-03-19T17:58:23Z</time>
      </trkpt>
      <trkpt lat="37.1856586376" lon="-7.41372961359">
        <ele>13.2</ele>
        <time>2011-03-19T17:58:25Z</time>
      </trkpt>
      <trkpt lat="37.1856032332" lon="-7.41369709182">
        <ele>13.2</ele>
        <time>2011-03-19T17:58:27Z</time>
      </trkpt>
      <trkpt lat="37.1855516845" lon="-7.41366817426">
        <ele>13.2</ele>
        <time>2011-03-19T17:58:29Z</time>
      </trkpt>
      <trkpt lat="37.1855003035" lon="-7.41362735441">
        <ele>13.2</ele>
        <time>2011-03-19T17:58:31Z</time>
      </trkpt>
      <trkpt lat="37.1854449829" lon="-7.4135841038">
        <ele>13.2</ele>
        <time>2011-03-19T17:58:33Z</time>
      </trkpt>
      <trkpt lat="37.1853910873" lon="-7.41354781018">
        <ele>13.4</ele>
        <time>2011-03-19T17:58:35Z</time>
      </trkpt>
      <trkpt lat="37.185339371" lon="-7.41350916962">
        <ele>13.8</ele>
        <time>2011-03-19T17:58:37Z</time>
      </trkpt>
      <trkpt lat="37.1852876547" lon="-7.41347329509">
        <ele>14</ele>
        <time>2011-03-19T17:58:39Z</time>
      </trkpt>
      <trkpt lat="37.1852326694" lon="-7.41343607945">
        <ele>14.2</ele>
        <time>2011-03-19T17:58:41Z</time>
      </trkpt>
      <trkpt lat="37.1851822104" lon="-7.4134036415">
        <ele>14.4</ele>
        <time>2011-03-19T17:58:43Z</time>
      </trkpt>
      <trkpt lat="37.1851339306" lon="-7.41337505922">
        <ele>14.6</ele>
        <time>2011-03-19T17:58:45Z</time>
      </trkpt>
      <trkpt lat="37.1850801188" lon="-7.41332845585">
        <ele>14.8</ele>
        <time>2011-03-19T17:58:47Z</time>
      </trkpt>
      <trkpt lat="37.185028654" lon="-7.41328998293">
        <ele>14.8</ele>
        <time>2011-03-19T17:58:49Z</time>
      </trkpt>
      <trkpt lat="37.1849773567" lon="-7.41325293493">
        <ele>15</ele>
        <time>2011-03-19T17:58:51Z</time>
      </trkpt>
      <trkpt lat="37.1849299152" lon="-7.4132258614">
        <ele>15</ele>
        <time>2011-03-19T17:58:53Z</time>
      </trkpt>
      <trkpt lat="37.1848727506" lon="-7.41318646647">
        <ele>15</ele>
        <time>2011-03-19T17:58:55Z</time>
      </trkpt>
      <trkpt lat="37.1848177654" lon="-7.41314966993">
        <ele>15</ele>
        <time>2011-03-19T17:58:57Z</time>
      </trkpt>
      <trkpt lat="37.1847626125" lon="-7.41311421449">
        <ele>15.2</ele>
        <time>2011-03-19T17:58:59Z</time>
      </trkpt>
      <trkpt lat="37.1847098065" lon="-7.41308186036">
        <ele>15.2</ele>
        <time>2011-03-19T17:59:01Z</time>
      </trkpt>
      <trkpt lat="37.1846598504" lon="-7.41304674019">
        <ele>15.2</ele>
        <time>2011-03-19T17:59:03Z</time>
      </trkpt>
      <trkpt lat="37.1846111515" lon="-7.41300944074">
        <ele>15.2</ele>
        <time>2011-03-19T17:59:05Z</time>
      </trkpt>
      <trkpt lat="37.1845612792" lon="-7.41297121928">
        <ele>15.2</ele>
        <time>2011-03-19T17:59:07Z</time>
      </trkpt>
      <trkpt lat="37.1845124966" lon="-7.41293433891">
        <ele>15.2</ele>
        <time>2011-03-19T17:59:09Z</time>
      </trkpt>
      <trkpt lat="37.1844606964" lon="-7.41289175886">
        <ele>15.2</ele>
        <time>2011-03-19T17:59:11Z</time>
      </trkpt>
      <trkpt lat="37.1844078066" lon="-7.41285512996">
        <ele>15.2</ele>
        <time>2011-03-19T17:59:13Z</time>
      </trkpt>
      <trkpt lat="37.1843576829" lon="-7.41282478748">
        <ele>15.2</ele>
        <time>2011-03-19T17:59:15Z</time>
      </trkpt>
      <trkpt lat="37.1843079782" lon="-7.41278447054">
        <ele>15.2</ele>
        <time>2011-03-19T17:59:17Z</time>
      </trkpt>
      <trkpt lat="37.1842591117" lon="-7.41274993712">
        <ele>15.2</ele>
        <time>2011-03-19T17:59:19Z</time>
      </trkpt>
      <trkpt lat="37.1842079821" lon="-7.41271003927">
        <ele>15.2</ele>
        <time>2011-03-19T17:59:21Z</time>
      </trkpt>
      <trkpt lat="37.1841611273" lon="-7.41267165017">
        <ele>15.2</ele>
        <time>2011-03-19T17:59:23Z</time>
      </trkpt>
      <trkpt lat="37.1841118417" lon="-7.41263401544">
        <ele>15.2</ele>
        <time>2011-03-19T17:59:25Z</time>
      </trkpt>
      <trkpt lat="37.184061718" lon="-7.41259864382">
        <ele>15.2</ele>
        <time>2011-03-19T17:59:27Z</time>
      </trkpt>
      <trkpt lat="37.184011678" lon="-7.41255698578">
        <ele>15.2</ele>
        <time>2011-03-19T17:59:29Z</time>
      </trkpt>
      <trkpt lat="37.1839605484" lon="-7.4125231229">
        <ele>15.2</ele>
        <time>2011-03-19T17:59:31Z</time>
      </trkpt>
      <trkpt lat="37.1839122687" lon="-7.4124895953">
        <ele>15.2</ele>
        <time>2011-03-19T17:59:33Z</time>
      </trkpt>
      <trkpt lat="37.1838664197" lon="-7.41244936218">
        <ele>15.2</ele>
        <time>2011-03-19T17:59:35Z</time>
      </trkpt>
      <trkpt lat="37.1838185591" lon="-7.41241600222">
        <ele>15.2</ele>
        <time>2011-03-19T17:59:37Z</time>
      </trkpt>
      <trkpt lat="37.1837685191" lon="-7.41238029533">
        <ele>15.2</ele>
        <time>2011-03-19T17:59:39Z</time>
      </trkpt>
      <trkpt lat="37.1837191497" lon="-7.41234232532">
        <ele>15.2</ele>
        <time>2011-03-19T17:59:41Z</time>
      </trkpt>
      <trkpt lat="37.1836691936" lon="-7.41230846244">
        <ele>15.2</ele>
        <time>2011-03-19T17:59:43Z</time>
      </trkpt>
      <trkpt lat="37.1836246019" lon="-7.41227233645">
        <ele>15.2</ele>
        <time>2011-03-19T17:59:45Z</time>
      </trkpt>
      <trkpt lat="37.1835665991" lon="-7.41223394735">
        <ele>15.2</ele>
        <time>2011-03-19T17:59:47Z</time>
      </trkpt>
      <trkpt lat="37.183516643" lon="-7.41219430096">
        <ele>15.2</ele>
        <time>2011-03-19T17:59:49Z</time>
      </trkpt>
      <trkpt lat="37.1834671898" lon="-7.41215968372">
        <ele>15.2</ele>
        <time>2011-03-19T17:59:51Z</time>
      </trkpt>
      <trkpt lat="37.1834176528" lon="-7.41212447974">
        <ele>15.2</ele>
        <time>2011-03-19T17:59:53Z</time>
      </trkpt>
      <trkpt lat="37.1833679481" lon="-7.41208676119">
        <ele>15.2</ele>
        <time>2011-03-19T17:59:55Z</time>
      </trkpt>
      <trkpt lat="37.1832953609" lon="-7.41203755943">
        <ele>15.2</ele>
        <time>2011-03-19T17:59:58Z</time>
      </trkpt>
      <trkpt lat="37.1832440636" lon="-7.41200227164">
        <ele>15.2</ele>
        <time>2011-03-19T18:00:00Z</time>
      </trkpt>
      <trkpt lat="37.1831963706" lon="-7.41196480454">
        <ele>15.2</ele>
        <time>2011-03-19T18:00:02Z</time>
      </trkpt>
      <trkpt lat="37.183147085" lon="-7.41192851092">
        <ele>15.2</ele>
        <time>2011-03-19T18:00:04Z</time>
      </trkpt>
      <trkpt lat="37.1830991406" lon="-7.41189506713">
        <ele>15.2</ele>
        <time>2011-03-19T18:00:06Z</time>
      </trkpt>
      <trkpt lat="37.1830505256" lon="-7.41186212627">
        <ele>15.2</ele>
        <time>2011-03-19T18:00:08Z</time>
      </trkpt>
      <trkpt lat="37.1830002342" lon="-7.41183102942">
        <ele>15.2</ele>
        <time>2011-03-19T18:00:10Z</time>
      </trkpt>
      <trkpt lat="37.1829497751" lon="-7.41179750182">
        <ele>15.2</ele>
        <time>2011-03-19T18:00:12Z</time>
      </trkpt>
      <trkpt lat="37.1828995675" lon="-7.41176229784">
        <ele>15.2</ele>
        <time>2011-03-19T18:00:14Z</time>
      </trkpt>
      <trkpt lat="37.182848857" lon="-7.41172181326">
        <ele>15.2</ele>
        <time>2011-03-19T18:00:16Z</time>
      </trkpt>
      <trkpt lat="37.1827950452" lon="-7.41168468144">
        <ele>15.2</ele>
        <time>2011-03-19T18:00:18Z</time>
      </trkpt>
      <trkpt lat="37.1827445024" lon="-7.41165333314">
        <ele>15.2</ele>
        <time>2011-03-19T18:00:20Z</time>
      </trkpt>
      <trkpt lat="37.1826966417" lon="-7.41162055991">
        <ele>15.2</ele>
        <time>2011-03-19T18:00:22Z</time>
      </trkpt>
      <trkpt lat="37.1826477753" lon="-7.41158636176">
        <ele>15.2</ele>
        <time>2011-03-19T18:00:24Z</time>
      </trkpt>
      <trkpt lat="37.1825971486" lon="-7.41155006813">
        <ele>15.2</ele>
        <time>2011-03-19T18:00:26Z</time>
      </trkpt>
      <trkpt lat="37.1825464381" lon="-7.41151008647">
        <ele>15.2</ele>
        <time>2011-03-19T18:00:28Z</time>
      </trkpt>
      <trkpt lat="37.1824947218" lon="-7.41147563686">
        <ele>15.2</ele>
        <time>2011-03-19T18:00:30Z</time>
      </trkpt>
      <trkpt lat="37.1824432569" lon="-7.4114365772">
        <ele>15.2</ele>
        <time>2011-03-19T18:00:32Z</time>
      </trkpt>
      <trkpt lat="37.1823921273" lon="-7.41139885865">
        <ele>15.2</ele>
        <time>2011-03-19T18:00:34Z</time>
      </trkpt>
      <trkpt lat="37.1823441828" lon="-7.41136491196">
        <ele>15.2</ele>
        <time>2011-03-19T18:00:36Z</time>
      </trkpt>
      <trkpt lat="37.1822960707" lon="-7.41133423421">
        <ele>15.2</ele>
        <time>2011-03-19T18:00:38Z</time>
      </trkpt>
      <trkpt lat="37.182247791" lon="-7.41129903023">
        <ele>15.2</ele>
        <time>2011-03-19T18:00:40Z</time>
      </trkpt>
      <trkpt lat="37.1821996789" lon="-7.41126424534">
        <ele>15.2</ele>
        <time>2011-03-19T18:00:42Z</time>
      </trkpt>
      <trkpt lat="37.1821473758" lon="-7.4112305501">
        <ele>15.2</ele>
        <time>2011-03-19T18:00:44Z</time>
      </trkpt>
      <trkpt lat="37.182094989" lon="-7.41119274773">
        <ele>15.2</ele>
        <time>2011-03-19T18:00:46Z</time>
      </trkpt>
      <trkpt lat="37.1820475474" lon="-7.41115528064">
        <ele>15.2</ele>
        <time>2011-03-19T18:00:48Z</time>
      </trkpt>
      <trkpt lat="37.1819997706" lon="-7.41112083103">
        <ele>15.2</ele>
        <time>2011-03-19T18:00:50Z</time>
      </trkpt>
      <trkpt lat="37.1819522452" lon="-7.41108151992">
        <ele>15.2</ele>
        <time>2011-03-19T18:00:52Z</time>
      </trkpt>
      <trkpt lat="37.181902792" lon="-7.41104204117">
        <ele>15.2</ele>
        <time>2011-03-19T18:00:54Z</time>
      </trkpt>
      <trkpt lat="37.18185183" lon="-7.41100180805">
        <ele>15.2</ele>
        <time>2011-03-19T18:00:56Z</time>
      </trkpt>
      <trkpt lat="37.1818014548" lon="-7.41096903482">
        <ele>15.2</ele>
        <time>2011-03-19T18:00:58Z</time>
      </trkpt>
      <trkpt lat="37.1817489003" lon="-7.41093383084">
        <ele>15.2</ele>
        <time>2011-03-19T18:01:00Z</time>
      </trkpt>
      <trkpt lat="37.1816974354" lon="-7.41089653139">
        <ele>15.2</ele>
        <time>2011-03-19T18:01:02Z</time>
      </trkpt>
      <trkpt lat="37.1816466411" lon="-7.41086132741">
        <ele>15.2</ele>
        <time>2011-03-19T18:01:04Z</time>
      </trkpt>
      <trkpt lat="37.1816012112" lon="-7.41083014674">
        <ele>15.2</ele>
        <time>2011-03-19T18:01:06Z</time>
      </trkpt>
      <trkpt lat="37.1815551946" lon="-7.41080081009">
        <ele>15.2</ele>
        <time>2011-03-19T18:01:08Z</time>
      </trkpt>
      <trkpt lat="37.1815065796" lon="-7.41076895887">
        <ele>15.2</ele>
        <time>2011-03-19T18:01:10Z</time>
      </trkpt>
      <trkpt lat="37.1814540251" lon="-7.41073232997">
        <ele>15.2</ele>
        <time>2011-03-19T18:01:12Z</time>
      </trkpt>
      <trkpt lat="37.18140541" lon="-7.41070123312">
        <ele>15.2</ele>
        <time>2011-03-19T18:01:14Z</time>
      </trkpt>
      <trkpt lat="37.1813588905" lon="-7.41066879516">
        <ele>15.2</ele>
        <time>2011-03-19T18:01:16Z</time>
      </trkpt>
      <trkpt lat="37.1813099402" lon="-7.41063610575">
        <ele>15.2</ele>
        <time>2011-03-19T18:01:18Z</time>
      </trkpt>
      <trkpt lat="37.1812619957" lon="-7.41060023122">
        <ele>15.2</ele>
        <time>2011-03-19T18:01:20Z</time>
      </trkpt>
      <trkpt lat="37.1812137998" lon="-7.41057022402">
        <ele>15.2</ele>
        <time>2011-03-19T18:01:22Z</time>
      </trkpt>
      <trkpt lat="37.1811674479" lon="-7.41053736697">
        <ele>15.2</ele>
        <time>2011-03-19T18:01:24Z</time>
      </trkpt>
      <trkpt lat="37.1811208445" lon="-7.41050274973">
        <ele>15.2</ele>
        <time>2011-03-19T18:01:26Z</time>
      </trkpt>
      <trkpt lat="37.1810723133" lon="-7.41046561791">
        <ele>15.2</ele>
        <time>2011-03-19T18:01:28Z</time>
      </trkpt>
      <trkpt lat="37.1810259614" lon="-7.41043368287">
        <ele>15.2</ele>
        <time>2011-03-19T18:01:30Z</time>
      </trkpt>
      <trkpt lat="37.1809770111" lon="-7.41039361739">
        <ele>15.2</ele>
        <time>2011-03-19T18:01:32Z</time>
      </trkpt>
      <trkpt lat="37.1809294019" lon="-7.41035774286">
        <ele>15.2</ele>
        <time>2011-03-19T18:01:34Z</time>
      </trkpt>
      <trkpt lat="37.1809067708" lon="-7.4103372072">
        <ele>15.2</ele>
        <time>2011-03-19T18:01:35Z</time>
      </trkpt>
      <trkpt lat="37.1808361114" lon="-7.41029638735">
        <ele>15.2</ele>
        <time>2011-03-19T18:01:38Z</time>
      </trkpt>
      <trkpt lat="37.1808106304" lon="-7.41028146757">
        <ele>15.2</ele>
        <time>2011-03-19T18:01:39Z</time>
      </trkpt>
      <trkpt lat="37.1807429885" lon="-7.41023017034">
        <ele>15.2</ele>
        <time>2011-03-19T18:01:42Z</time>
      </trkpt>
      <trkpt lat="37.180690434" lon="-7.41019144596">
        <ele>15.2</ele>
        <time>2011-03-19T18:01:44Z</time>
      </trkpt>
      <trkpt lat="37.1806434953" lon="-7.41015691253">
        <ele>15.2</ele>
        <time>2011-03-19T18:01:46Z</time>
      </trkpt>
      <trkpt lat="37.1805980654" lon="-7.41012539659">
        <ele>15.2</ele>
        <time>2011-03-19T18:01:48Z</time>
      </trkpt>
      <trkpt lat="37.1805532223" lon="-7.41009622757">
        <ele>15.2</ele>
        <time>2011-03-19T18:01:50Z</time>
      </trkpt>
      <trkpt lat="37.180501506" lon="-7.410055743">
        <ele>15.2</ele>
        <time>2011-03-19T18:01:52Z</time>
      </trkpt>
      <trkpt lat="37.1804484485" lon="-7.41001970083">
        <ele>15.2</ele>
        <time>2011-03-19T18:01:54Z</time>
      </trkpt>
      <trkpt lat="37.18039866" lon="-7.40998424539">
        <ele>15.2</ele>
        <time>2011-03-19T18:01:56Z</time>
      </trkpt>
      <trkpt lat="37.1803478657" lon="-7.40995172362">
        <ele>15.2</ele>
        <time>2011-03-19T18:01:58Z</time>
      </trkpt>
      <trkpt lat="37.1802973229" lon="-7.40992037531">
        <ele>15.4</ele>
        <time>2011-03-19T18:02:00Z</time>
      </trkpt>
      <trkpt lat="37.1802710037" lon="-7.4099128316">
        <ele>15.6</ele>
        <time>2011-03-19T18:02:01Z</time>
      </trkpt>
      <trkpt lat="37.1802221372" lon="-7.40993252907">
        <ele>16</ele>
        <time>2011-03-19T18:02:03Z</time>
      </trkpt>
      <trkpt lat="37.1801979974" lon="-7.4099529809">
        <ele>16</ele>
        <time>2011-03-19T18:02:04Z</time>
      </trkpt>
      <trkpt lat="37.1801305231" lon="-7.41001525842">
        <ele>16.4</ele>
        <time>2011-03-19T18:02:07Z</time>
      </trkpt>
      <trkpt lat="37.180084255" lon="-7.4100508815">
        <ele>16.6</ele>
        <time>2011-03-19T18:02:09Z</time>
      </trkpt>
      <trkpt lat="37.1800405015" lon="-7.4100906117">
        <ele>16.8</ele>
        <time>2011-03-19T18:02:11Z</time>
      </trkpt>
      <trkpt lat="37.179999011" lon="-7.4101342814">
        <ele>16.8</ele>
        <time>2011-03-19T18:02:13Z</time>
      </trkpt>
      <trkpt lat="37.1799559281" lon="-7.4101814715">
        <ele>17</ele>
        <time>2011-03-19T18:02:15Z</time>
      </trkpt>
      <trkpt lat="37.1799159464" lon="-7.41022933215">
        <ele>17</ele>
        <time>2011-03-19T18:02:17Z</time>
      </trkpt>
      <trkpt lat="37.1798745398" lon="-7.4102833954">
        <ele>17</ele>
        <time>2011-03-19T18:02:19Z</time>
      </trkpt>
      <trkpt lat="37.1798298643" lon="-7.41032681364">
        <ele>17</ele>
        <time>2011-03-19T18:02:21Z</time>
      </trkpt>
      <trkpt lat="37.1797720292" lon="-7.410382218">
        <ele>17.2</ele>
        <time>2011-03-19T18:02:24Z</time>
      </trkpt>
      <trkpt lat="37.1797208996" lon="-7.41045178777">
        <ele>17.2</ele>
        <time>2011-03-19T18:02:27Z</time>
      </trkpt>
      <trkpt lat="37.179702208" lon="-7.41046494736">
        <ele>17.2</ele>
        <time>2011-03-19T18:02:28Z</time>
      </trkpt>
      <trkpt lat="37.1796556046" lon="-7.41049596039">
        <ele>17.4</ele>
        <time>2011-03-19T18:02:30Z</time>
      </trkpt>
      <trkpt lat="37.179605397" lon="-7.41053778607">
        <ele>17.8</ele>
        <time>2011-03-19T18:02:32Z</time>
      </trkpt>
      <trkpt lat="37.1795562791" lon="-7.41058589817">
        <ele>18</ele>
        <time>2011-03-19T18:02:34Z</time>
      </trkpt>
      <trkpt lat="37.1795116036" lon="-7.41063434556">
        <ele>18.4</ele>
        <time>2011-03-19T18:02:36Z</time>
      </trkpt>
      <trkpt lat="37.1794665928" lon="-7.41068388258">
        <ele>18.4</ele>
        <time>2011-03-19T18:02:38Z</time>
      </trkpt>
      <trkpt lat="37.1794214143" lon="-7.41073015067">
        <ele>18.6</ele>
        <time>2011-03-19T18:02:40Z</time>
      </trkpt>
      <trkpt lat="37.1793807621" lon="-7.41077985534">
        <ele>18.8</ele>
        <time>2011-03-19T18:02:42Z</time>
      </trkpt>
      <trkpt lat="37.1793370924" lon="-7.41082620725">
        <ele>18.8</ele>
        <time>2011-03-19T18:02:44Z</time>
      </trkpt>
      <trkpt lat="37.1792743958" lon="-7.41089376536">
        <ele>19</ele>
        <time>2011-03-19T18:02:47Z</time>
      </trkpt>
      <trkpt lat="37.17923542" lon="-7.41094296711">
        <ele>19</ele>
        <time>2011-03-19T18:02:49Z</time>
      </trkpt>
      <trkpt lat="37.1792008027" lon="-7.41099124686">
        <ele>19.2</ele>
        <time>2011-03-19T18:02:51Z</time>
      </trkpt>
      <trkpt lat="37.1791656825" lon="-7.4110417059">
        <ele>19.2</ele>
        <time>2011-03-19T18:02:53Z</time>
      </trkpt>
      <trkpt lat="37.1791321549" lon="-7.41109426041">
        <ele>19.2</ele>
        <time>2011-03-19T18:02:55Z</time>
      </trkpt>
      <trkpt lat="37.1790958613" lon="-7.41115234698">
        <ele>19.2</ele>
        <time>2011-03-19T18:02:57Z</time>
      </trkpt>
      <trkpt lat="37.1790605735" lon="-7.41121831253">
        <ele>19.2</ele>
        <time>2011-03-19T18:02:59Z</time>
      </trkpt>
      <trkpt lat="37.1790246152" lon="-7.41128511627">
        <ele>19.2</ele>
        <time>2011-03-19T18:03:01Z</time>
      </trkpt>
      <trkpt lat="37.1789925125" lon="-7.41134915399">
        <ele>19.2</ele>
        <time>2011-03-19T18:03:03Z</time>
      </trkpt>
      <trkpt lat="37.1789655228" lon="-7.41141218588">
        <ele>19.2</ele>
        <time>2011-03-19T18:03:05Z</time>
      </trkpt>
      <trkpt lat="37.1789366052" lon="-7.41147446339">
        <ele>19.2</ele>
        <time>2011-03-19T18:03:07Z</time>
      </trkpt>
      <trkpt lat="37.1789094479" lon="-7.41154143477">
        <ele>19.2</ele>
        <time>2011-03-19T18:03:09Z</time>
      </trkpt>
      <trkpt lat="37.1788806141" lon="-7.41161100454">
        <ele>19.4</ele>
        <time>2011-03-19T18:03:11Z</time>
      </trkpt>
      <trkpt lat="37.178856139" lon="-7.41167864648">
        <ele>19.4</ele>
        <time>2011-03-19T18:03:13Z</time>
      </trkpt>
      <trkpt lat="37.1788259641" lon="-7.41174301947">
        <ele>19.4</ele>
        <time>2011-03-19T18:03:15Z</time>
      </trkpt>
      <trkpt lat="37.1787986391" lon="-7.41180420734">
        <ele>19.4</ele>
        <time>2011-03-19T18:03:17Z</time>
      </trkpt>
      <trkpt lat="37.1787697216" lon="-7.41186338355">
        <ele>19.4</ele>
        <time>2011-03-19T18:03:19Z</time>
      </trkpt>
      <trkpt lat="37.1787377866" lon="-7.41192457142">
        <ele>19.4</ele>
        <time>2011-03-19T18:03:21Z</time>
      </trkpt>
      <trkpt lat="37.1787085337" lon="-7.41198240653">
        <ele>19.4</ele>
        <time>2011-03-19T18:03:23Z</time>
      </trkpt>
      <trkpt lat="37.1786807058" lon="-7.41204242094">
        <ele>19.4</ele>
        <time>2011-03-19T18:03:25Z</time>
      </trkpt>
      <trkpt lat="37.1786512853" lon="-7.41210251916">
        <ele>19.4</ele>
        <time>2011-03-19T18:03:27Z</time>
      </trkpt>
      <trkpt lat="37.1786215296" lon="-7.41216412612">
        <ele>19.4</ele>
        <time>2011-03-19T18:03:29Z</time>
      </trkpt>
      <trkpt lat="37.1785950428" lon="-7.41222707419">
        <ele>19.4</ele>
        <time>2011-03-19T18:03:31Z</time>
      </trkpt>
      <trkpt lat="37.1785699809" lon="-7.41228541222">
        <ele>19.4</ele>
        <time>2011-03-19T18:03:33Z</time>
      </trkpt>
      <trkpt lat="37.1785453381" lon="-7.41234626481">
        <ele>19.4</ele>
        <time>2011-03-19T18:03:35Z</time>
      </trkpt>
      <trkpt lat="37.1785182646" lon="-7.41240762032">
        <ele>19.4</ele>
        <time>2011-03-19T18:03:37Z</time>
      </trkpt>
      <trkpt lat="37.1784939571" lon="-7.41247081985">
        <ele>19.4</ele>
        <time>2011-03-19T18:03:39Z</time>
      </trkpt>
      <trkpt lat="37.1784651233" lon="-7.41253686922">
        <ele>19.4</ele>
        <time>2011-03-19T18:03:41Z</time>
      </trkpt>
      <trkpt lat="37.1784386365" lon="-7.41259788945">
        <ele>19.4</ele>
        <time>2011-03-19T18:03:43Z</time>
      </trkpt>
      <trkpt lat="37.1784131556" lon="-7.41265991551">
        <ele>19.4</ele>
        <time>2011-03-19T18:03:45Z</time>
      </trkpt>
      <trkpt lat="37.178390273" lon="-7.41272521051">
        <ele>19.2</ele>
        <time>2011-03-19T18:03:47Z</time>
      </trkpt>
      <trkpt lat="37.1783649596" lon="-7.41278941586">
        <ele>18.8</ele>
        <time>2011-03-19T18:03:49Z</time>
      </trkpt>
      <trkpt lat="37.1783383052" lon="-7.41285051992">
        <ele>18.6</ele>
        <time>2011-03-19T18:03:51Z</time>
      </trkpt>
      <trkpt lat="37.1783153388" lon="-7.41291271361">
        <ele>18.2</ele>
        <time>2011-03-19T18:03:53Z</time>
      </trkpt>
      <trkpt lat="37.1782909475" lon="-7.41297675133">
        <ele>18.2</ele>
        <time>2011-03-19T18:03:55Z</time>
      </trkpt>
      <trkpt lat="37.1782644607" lon="-7.41303978322">
        <ele>18</ele>
        <time>2011-03-19T18:03:57Z</time>
      </trkpt>
      <trkpt lat="37.1782399017" lon="-7.41310214455">
        <ele>17.8</ele>
        <time>2011-03-19T18:03:59Z</time>
      </trkpt>
      <trkpt lat="37.1782167676" lon="-7.41316953503">
        <ele>17.8</ele>
        <time>2011-03-19T18:04:01Z</time>
      </trkpt>
      <trkpt lat="37.1781931307" lon="-7.41322963325">
        <ele>17.6</ele>
        <time>2011-03-19T18:04:03Z</time>
      </trkpt>
      <trkpt lat="37.1781630397" lon="-7.41329769428">
        <ele>17.6</ele>
        <time>2011-03-19T18:04:05Z</time>
      </trkpt>
      <trkpt lat="37.1781401571" lon="-7.41336005562">
        <ele>17.6</ele>
        <time>2011-03-19T18:04:07Z</time>
      </trkpt>
      <trkpt lat="37.1781162687" lon="-7.41342769755">
        <ele>17.6</ele>
        <time>2011-03-19T18:04:09Z</time>
      </trkpt>
      <trkpt lat="37.1780953977" lon="-7.41349693204">
        <ele>17.4</ele>
        <time>2011-03-19T18:04:11Z</time>
      </trkpt>
      <trkpt lat="37.1780762032" lon="-7.41356616654">
        <ele>17.4</ele>
        <time>2011-03-19T18:04:13Z</time>
      </trkpt>
      <trkpt lat="37.1780598585" lon="-7.41363405993">
        <ele>17.4</ele>
        <time>2011-03-19T18:04:15Z</time>
      </trkpt>
      <trkpt lat="37.1780366406" lon="-7.41370036076">
        <ele>17.4</ele>
        <time>2011-03-19T18:04:17Z</time>
      </trkpt>
      <trkpt lat="37.1780124169" lon="-7.41376288973">
        <ele>17.4</ele>
        <time>2011-03-19T18:04:19Z</time>
      </trkpt>
      <trkpt lat="37.1779889476" lon="-7.41383002875">
        <ele>17.4</ele>
        <time>2011-03-19T18:04:21Z</time>
      </trkpt>
      <trkpt lat="37.1779634666" lon="-7.41389490466">
        <ele>17.4</ele>
        <time>2011-03-19T18:04:23Z</time>
      </trkpt>
      <trkpt lat="37.1779404164" lon="-7.41396338478">
        <ele>17.4</ele>
        <time>2011-03-19T18:04:25Z</time>
      </trkpt>
      <trkpt lat="37.177915606" lon="-7.41403018852">
        <ele>17.4</ele>
        <time>2011-03-19T18:04:27Z</time>
      </trkpt>
      <trkpt lat="37.1778928072" lon="-7.41409489679">
        <ele>17.4</ele>
        <time>2011-03-19T18:04:29Z</time>
      </trkpt>
      <trkpt lat="37.1778708466" lon="-7.41416102998">
        <ele>17.4</ele>
        <time>2011-03-19T18:04:31Z</time>
      </trkpt>
      <trkpt lat="37.1778488861" lon="-7.41422691171">
        <ele>17.4</ele>
        <time>2011-03-19T18:04:33Z</time>
      </trkpt>
      <trkpt lat="37.1778321223" lon="-7.4142987446">
        <ele>17.4</ele>
        <time>2011-03-19T18:04:35Z</time>
      </trkpt>
      <trkpt lat="37.1778058031" lon="-7.41436068684">
        <ele>17.4</ele>
        <time>2011-03-19T18:04:37Z</time>
      </trkpt>
      <trkpt lat="37.177781747" lon="-7.4144244731">
        <ele>17.4</ele>
        <time>2011-03-19T18:04:39Z</time>
      </trkpt>
      <trkpt lat="37.1777555117" lon="-7.41449161212">
        <ele>17.4</ele>
        <time>2011-03-19T18:04:41Z</time>
      </trkpt>
      <trkpt lat="37.1777351437" lon="-7.41455657184">
        <ele>17.4</ele>
        <time>2011-03-19T18:04:43Z</time>
      </trkpt>
      <trkpt lat="37.1777177093" lon="-7.41462337558">
        <ele>17.4</ele>
        <time>2011-03-19T18:04:45Z</time>
      </trkpt>
      <trkpt lat="37.177691474" lon="-7.41472085708">
        <ele>17.4</ele>
        <time>2011-03-19T18:04:48Z</time>
      </trkpt>
      <trkpt lat="37.1776700163" lon="-7.41478338606">
        <ele>17</ele>
        <time>2011-03-19T18:04:50Z</time>
      </trkpt>
      <trkpt lat="37.1776507379" lon="-7.41484692086">
        <ele>16.6</ele>
        <time>2011-03-19T18:04:52Z</time>
      </trkpt>
      <trkpt lat="37.1776236644" lon="-7.41491607153">
        <ele>16.4</ele>
        <time>2011-03-19T18:04:54Z</time>
      </trkpt>
      <trkpt lat="37.1775950821" lon="-7.41498279146">
        <ele>16.2</ele>
        <time>2011-03-19T18:04:56Z</time>
      </trkpt>
      <trkpt lat="37.1775677571" lon="-7.41504934374">
        <ele>16</ele>
        <time>2011-03-19T18:04:58Z</time>
      </trkpt>
      <trkpt lat="37.1775419409" lon="-7.41511463874">
        <ele>15.8</ele>
        <time>2011-03-19T18:05:00Z</time>
      </trkpt>
      <trkpt lat="37.1775164599" lon="-7.41518102339">
        <ele>15.8</ele>
        <time>2011-03-19T18:05:02Z</time>
      </trkpt>
      <trkpt lat="37.1774926553" lon="-7.41524346855">
        <ele>15.6</ele>
        <time>2011-03-19T18:05:04Z</time>
      </trkpt>
      <trkpt lat="37.1774670905" lon="-7.41530876355">
        <ele>15.6</ele>
        <time>2011-03-19T18:05:06Z</time>
      </trkpt>
      <trkpt lat="37.1774447108" lon="-7.4153729689">
        <ele>15.6</ele>
        <time>2011-03-19T18:05:08Z</time>
      </trkpt>
      <trkpt lat="37.1774266059" lon="-7.4154417843">
        <ele>15.4</ele>
        <time>2011-03-19T18:05:10Z</time>
      </trkpt>
      <trkpt lat="37.1774064894" lon="-7.41550632493">
        <ele>15.4</ele>
        <time>2011-03-19T18:05:12Z</time>
      </trkpt>
      <trkpt lat="37.1773836906" lon="-7.41557094938">
        <ele>15.4</ele>
        <time>2011-03-19T18:05:14Z</time>
      </trkpt>
      <trkpt lat="37.1773588802" lon="-7.41563649584">
        <ele>15.4</ele>
        <time>2011-03-19T18:05:16Z</time>
      </trkpt>
      <trkpt lat="37.1773396018" lon="-7.41570204229">
        <ele>15.4</ele>
        <time>2011-03-19T18:05:18Z</time>
      </trkpt>
      <trkpt lat="37.177318228" lon="-7.41577211498">
        <ele>15.4</ele>
        <time>2011-03-19T18:05:20Z</time>
      </trkpt>
      <trkpt lat="37.1772966027" lon="-7.41584025983">
        <ele>15.4</ele>
        <time>2011-03-19T18:05:22Z</time>
      </trkpt>
      <trkpt lat="37.1772757317" lon="-7.4159010286">
        <ele>15.4</ele>
        <time>2011-03-19T18:05:24Z</time>
      </trkpt>
      <trkpt lat="37.1772498317" lon="-7.41596372521">
        <ele>15.4</ele>
        <time>2011-03-19T18:05:26Z</time>
      </trkpt>
      <trkpt lat="37.1772273682" lon="-7.41602264997">
        <ele>15.4</ele>
        <time>2011-03-19T18:05:28Z</time>
      </trkpt>
      <trkpt lat="37.1772082574" lon="-7.41608702296">
        <ele>15.4</ele>
        <time>2011-03-19T18:05:30Z</time>
      </trkpt>
      <trkpt lat="37.1771878056" lon="-7.41615323997">
        <ele>15.4</ele>
        <time>2011-03-19T18:05:32Z</time>
      </trkpt>
      <trkpt lat="37.1771757357" lon="-7.41621711005">
        <ele>15.2</ele>
        <time>2011-03-19T18:05:34Z</time>
      </trkpt>
      <trkpt lat="37.1771645039" lon="-7.4162817345">
        <ele>15.2</ele>
        <time>2011-03-19T18:05:36Z</time>
      </trkpt>
      <trkpt lat="37.1771541942" lon="-7.41634887352">
        <ele>15.2</ele>
        <time>2011-03-19T18:05:38Z</time>
      </trkpt>
      <trkpt lat="37.177143633" lon="-7.41641835947">
        <ele>15.2</ele>
        <time>2011-03-19T18:05:40Z</time>
      </trkpt>
      <trkpt lat="37.1771328203" lon="-7.41648868361">
        <ele>15.2</ele>
        <time>2011-03-19T18:05:42Z</time>
      </trkpt>
      <trkpt lat="37.1771210857" lon="-7.41656236051">
        <ele>15.2</ele>
        <time>2011-03-19T18:05:44Z</time>
      </trkpt>
      <trkpt lat="37.1771122847" lon="-7.41663637269">
        <ele>15.2</ele>
        <time>2011-03-19T18:05:46Z</time>
      </trkpt>
      <trkpt lat="37.1771036513" lon="-7.41670971431">
        <ele>15.2</ele>
        <time>2011-03-19T18:05:48Z</time>
      </trkpt>
      <trkpt lat="37.1770994604" lon="-7.4167833074">
        <ele>15.2</ele>
        <time>2011-03-19T18:05:50Z</time>
      </trkpt>
      <trkpt lat="37.1770976164" lon="-7.41685245807">
        <ele>15.2</ele>
        <time>2011-03-19T18:05:52Z</time>
      </trkpt>
      <trkpt lat="37.1770936769" lon="-7.41692647025">
        <ele>15.2</ele>
        <time>2011-03-19T18:05:54Z</time>
      </trkpt>
      <trkpt lat="37.1770879772" lon="-7.41699997951">
        <ele>15.2</ele>
        <time>2011-03-19T18:05:56Z</time>
      </trkpt>
      <trkpt lat="37.1770835348" lon="-7.41707063893">
        <ele>15.2</ele>
        <time>2011-03-19T18:05:58Z</time>
      </trkpt>
      <trkpt lat="37.1770756558" lon="-7.41714607603">
        <ele>15.2</ele>
        <time>2011-03-19T18:06:00Z</time>
      </trkpt>
      <trkpt lat="37.1770655137" lon="-7.41722109403">
        <ele>15.2</ele>
        <time>2011-03-19T18:06:02Z</time>
      </trkpt>
      <trkpt lat="37.1770594787" lon="-7.41729309455">
        <ele>15.2</ele>
        <time>2011-03-19T18:06:04Z</time>
      </trkpt>
      <trkpt lat="37.1770524379" lon="-7.41736408925">
        <ele>15.2</ele>
        <time>2011-03-19T18:06:06Z</time>
      </trkpt>
      <trkpt lat="37.1770413738" lon="-7.41743826906">
        <ele>15.2</ele>
        <time>2011-03-19T18:06:08Z</time>
      </trkpt>
      <trkpt lat="37.1770326566" lon="-7.41751119159">
        <ele>15.2</ele>
        <time>2011-03-19T18:06:10Z</time>
      </trkpt>
      <trkpt lat="37.1770268731" lon="-7.41758076136">
        <ele>15.2</ele>
        <time>2011-03-19T18:06:12Z</time>
      </trkpt>
      <trkpt lat="37.1770241071" lon="-7.41764655928">
        <ele>15.2</ele>
        <time>2011-03-19T18:06:14Z</time>
      </trkpt>
      <trkpt lat="37.1770192456" lon="-7.4177185598">
        <ele>15.2</ele>
        <time>2011-03-19T18:06:16Z</time>
      </trkpt>
      <trkpt lat="37.177009355" lon="-7.41779592473">
        <ele>15.2</ele>
        <time>2011-03-19T18:06:18Z</time>
      </trkpt>
      <trkpt lat="37.1770013083" lon="-7.41786096828">
        <ele>15.2</ele>
        <time>2011-03-19T18:06:20Z</time>
      </trkpt>
      <trkpt lat="37.1769961954" lon="-7.41793204679">
        <ele>15.2</ele>
        <time>2011-03-19T18:06:22Z</time>
      </trkpt>
      <trkpt lat="37.1769900766" lon="-7.41801167484">
        <ele>15.2</ele>
        <time>2011-03-19T18:06:24Z</time>
      </trkpt>
      <trkpt lat="37.1769817785" lon="-7.41808778249">
        <ele>15.2</ele>
        <time>2011-03-19T18:06:26Z</time>
      </trkpt>
      <trkpt lat="37.1769764979" lon="-7.41815877718">
        <ele>15.2</ele>
        <time>2011-03-19T18:06:28Z</time>
      </trkpt>
      <trkpt lat="37.1769744863" lon="-7.41822826314">
        <ele>15.2</ele>
        <time>2011-03-19T18:06:30Z</time>
      </trkpt>
      <trkpt lat="37.1769692895" lon="-7.41829850346">
        <ele>15.2</ele>
        <time>2011-03-19T18:06:32Z</time>
      </trkpt>
      <trkpt lat="37.1769648471" lon="-7.41836891142">
        <ele>15.2</ele>
        <time>2011-03-19T18:06:34Z</time>
      </trkpt>
      <trkpt lat="37.1769637574" lon="-7.41843571516">
        <ele>15.2</ele>
        <time>2011-03-19T18:06:36Z</time>
      </trkpt>
      <trkpt lat="37.1769612428" lon="-7.41850478202">
        <ele>15.2</ele>
        <time>2011-03-19T18:06:38Z</time>
      </trkpt>
      <trkpt lat="37.1769599856" lon="-7.41856974174">
        <ele>15.2</ele>
        <time>2011-03-19T18:06:40Z</time>
      </trkpt>
      <trkpt lat="37.1769600694" lon="-7.4186440892">
        <ele>14.8</ele>
        <time>2011-03-19T18:06:42Z</time>
      </trkpt>
      <trkpt lat="37.1769562137" lon="-7.4187204483">
        <ele>14.6</ele>
        <time>2011-03-19T18:06:44Z</time>
      </trkpt>
      <trkpt lat="37.1769573872" lon="-7.41879370611">
        <ele>14.4</ele>
        <time>2011-03-19T18:06:46Z</time>
      </trkpt>
      <trkpt lat="37.1769591474" lon="-7.41886771829">
        <ele>14</ele>
        <time>2011-03-19T18:06:48Z</time>
      </trkpt>
      <trkpt lat="37.1769568843" lon="-7.4189436583">
        <ele>14</ele>
        <time>2011-03-19T18:06:50Z</time>
      </trkpt>
      <trkpt lat="37.1769517713" lon="-7.41901213842">
        <ele>13.8</ele>
        <time>2011-03-19T18:06:52Z</time>
      </trkpt>
      <trkpt lat="37.1769476642" lon="-7.41908413895">
        <ele>13.6</ele>
        <time>2011-03-19T18:06:54Z</time>
      </trkpt>
      <trkpt lat="37.1769461554" lon="-7.41916066569">
        <ele>13.6</ele>
        <time>2011-03-19T18:06:56Z</time>
      </trkpt>
      <trkpt lat="37.1769472451" lon="-7.41923300149">
        <ele>13.6</ele>
        <time>2011-03-19T18:06:58Z</time>
      </trkpt>
      <trkpt lat="37.1769458202" lon="-7.41929963759">
        <ele>13.4</ele>
        <time>2011-03-19T18:07:00Z</time>
      </trkpt>
      <trkpt lat="37.1769450658" lon="-7.41936644134">
        <ele>13.4</ele>
        <time>2011-03-19T18:07:02Z</time>
      </trkpt>
      <trkpt lat="37.1769394499" lon="-7.41943467">
        <ele>13.4</ele>
        <time>2011-03-19T18:07:04Z</time>
      </trkpt>
      <trkpt lat="37.1769320738" lon="-7.4195039045">
        <ele>13.4</ele>
        <time>2011-03-19T18:07:06Z</time>
      </trkpt>
      <trkpt lat="37.1769230214" lon="-7.41957137879">
        <ele>13.4</ele>
        <time>2011-03-19T18:07:08Z</time>
      </trkpt>
      <trkpt lat="37.1769165673" lon="-7.41963591942">
        <ele>13.2</ele>
        <time>2011-03-19T18:07:10Z</time>
      </trkpt>
      <trkpt lat="37.1769111191" lon="-7.41970439955">
        <ele>13.2</ele>
        <time>2011-03-19T18:07:12Z</time>
      </trkpt>
      <trkpt lat="37.1769117058" lon="-7.41974195046">
        <ele>13.2</ele>
        <time>2011-03-19T18:07:13Z</time>
      </trkpt>
      <trkpt lat="37.176911622" lon="-7.41977966901">
        <ele>13.2</ele>
        <time>2011-03-19T18:07:14Z</time>
      </trkpt>
      <trkpt lat="37.1769109514" lon="-7.41985460319">
        <ele>13.2</ele>
        <time>2011-03-19T18:07:16Z</time>
      </trkpt>
      <trkpt lat="37.1769087722" lon="-7.41993045939">
        <ele>13.2</ele>
        <time>2011-03-19T18:07:18Z</time>
      </trkpt>
      <trkpt lat="37.1769066767" lon="-7.42000732141">
        <ele>13.2</ele>
        <time>2011-03-19T18:07:20Z</time>
      </trkpt>
      <trkpt lat="37.1769025695" lon="-7.42008099831">
        <ele>13.2</ele>
        <time>2011-03-19T18:07:22Z</time>
      </trkpt>
      <trkpt lat="37.1769034077" lon="-7.42015090336">
        <ele>13.2</ele>
        <time>2011-03-19T18:07:24Z</time>
      </trkpt>
      <trkpt lat="37.1769041621" lon="-7.42022583754">
        <ele>13.2</ele>
        <time>2011-03-19T18:07:26Z</time>
      </trkpt>
      <trkpt lat="37.1769036592" lon="-7.42029699988">
        <ele>13.2</ele>
        <time>2011-03-19T18:07:28Z</time>
      </trkpt>
      <trkpt lat="37.1769006417" lon="-7.42036656965">
        <ele>13.2</ele>
        <time>2011-03-19T18:07:30Z</time>
      </trkpt>
      <trkpt lat="37.1768962831" lon="-7.42043806725">
        <ele>13.2</ele>
        <time>2011-03-19T18:07:32Z</time>
      </trkpt>
      <trkpt lat="37.1768888232" lon="-7.42051048687">
        <ele>13.2</ele>
        <time>2011-03-19T18:07:34Z</time>
      </trkpt>
      <trkpt lat="37.1768854705" lon="-7.42058449905">
        <ele>13.2</ele>
        <time>2011-03-19T18:07:36Z</time>
      </trkpt>
      <trkpt lat="37.1768829559" lon="-7.42065557756">
        <ele>13.2</ele>
        <time>2011-03-19T18:07:38Z</time>
      </trkpt>
      <trkpt lat="37.1768812795" lon="-7.42072330331">
        <ele>13.2</ele>
        <time>2011-03-19T18:07:40Z</time>
      </trkpt>
      <trkpt lat="37.1768772562" lon="-7.42079362745">
        <ele>12.8</ele>
        <time>2011-03-19T18:07:42Z</time>
      </trkpt>
      <trkpt lat="37.1768732329" lon="-7.42086504124">
        <ele>12.4</ele>
        <time>2011-03-19T18:07:44Z</time>
      </trkpt>
      <trkpt lat="37.17687273" lon="-7.42093461101">
        <ele>12.2</ele>
        <time>2011-03-19T18:07:46Z</time>
      </trkpt>
      <trkpt lat="37.1768759989" lon="-7.42100619243">
        <ele>12</ele>
        <time>2011-03-19T18:07:48Z</time>
      </trkpt>
      <trkpt lat="37.1768801061" lon="-7.42107710331">
        <ele>11.8</ele>
        <time>2011-03-19T18:07:50Z</time>
      </trkpt>
      <trkpt lat="37.1768850514" lon="-7.42114206303">
        <ele>11.8</ele>
        <time>2011-03-19T18:07:52Z</time>
      </trkpt>
      <trkpt lat="37.1768898291" lon="-7.42121934415">
        <ele>11.6</ele>
        <time>2011-03-19T18:07:54Z</time>
      </trkpt>
      <trkpt lat="37.1768941876" lon="-7.42129025503">
        <ele>11.6</ele>
        <time>2011-03-19T18:07:56Z</time>
      </trkpt>
      <trkpt lat="37.1768962831" lon="-7.42136326137">
        <ele>11.4</ele>
        <time>2011-03-19T18:07:58Z</time>
      </trkpt>
      <trkpt lat="37.1768997197" lon="-7.42143718973">
        <ele>11.4</ele>
        <time>2011-03-19T18:08:00Z</time>
      </trkpt>
      <trkpt lat="37.176906509" lon="-7.42151195628">
        <ele>11</ele>
        <time>2011-03-19T18:08:02Z</time>
      </trkpt>
      <trkpt lat="37.1769137175" lon="-7.42158311861">
        <ele>10.6</ele>
        <time>2011-03-19T18:08:04Z</time>
      </trkpt>
      <trkpt lat="37.1769241949" lon="-7.42165495149">
        <ele>10.4</ele>
        <time>2011-03-19T18:08:06Z</time>
      </trkpt>
      <trkpt lat="37.1769413777" lon="-7.42172183906">
        <ele>10.2</ele>
        <time>2011-03-19T18:08:08Z</time>
      </trkpt>
      <trkpt lat="37.1769597341" lon="-7.42174790677">
        <ele>10</ele>
        <time>2011-03-19T18:08:09Z</time>
      </trkpt>
      <trkpt lat="37.1770112828" lon="-7.42178738551">
        <ele>9.8</ele>
        <time>2011-03-19T18:08:11Z</time>
      </trkpt>
      <trkpt lat="37.1770622447" lon="-7.42181563252">
        <ele>9.8</ele>
        <time>2011-03-19T18:08:13Z</time>
      </trkpt>
      <trkpt lat="37.1771106921" lon="-7.42184287369">
        <ele>9.6</ele>
        <time>2011-03-19T18:08:15Z</time>
      </trkpt>
      <trkpt lat="37.1771347482" lon="-7.42185544654">
        <ele>9.6</ele>
        <time>2011-03-19T18:08:16Z</time>
      </trkpt>
      <trkpt lat="37.1772240154" lon="-7.42189635021">
        <ele>9.4</ele>
        <time>2011-03-19T18:08:19Z</time>
      </trkpt>
      <trkpt lat="37.1772870473" lon="-7.42191378457">
        <ele>9.4</ele>
        <time>2011-03-19T18:08:21Z</time>
      </trkpt>
      <trkpt lat="37.1773390989" lon="-7.42192526777">
        <ele>9.4</ele>
        <time>2011-03-19T18:08:23Z</time>
      </trkpt>
      <trkpt lat="37.1773950062" lon="-7.42192250174">
        <ele>9.2</ele>
        <time>2011-03-19T18:08:25Z</time>
      </trkpt>
      <trkpt lat="37.177480753" lon="-7.42192132828">
        <ele>9.2</ele>
        <time>2011-03-19T18:08:28Z</time>
      </trkpt>
      <trkpt lat="37.1775378337" lon="-7.4219161315">
        <ele>9.2</ele>
        <time>2011-03-19T18:08:30Z</time>
      </trkpt>
      <trkpt lat="37.1775957527" lon="-7.42191562858">
        <ele>9.2</ele>
        <time>2011-03-19T18:08:32Z</time>
      </trkpt>
      <trkpt lat="37.1776583655" lon="-7.42192015481">
        <ele>9.2</ele>
        <time>2011-03-19T18:08:34Z</time>
      </trkpt>
      <trkpt lat="37.1777163682" lon="-7.42191738878">
        <ele>9.2</ele>
        <time>2011-03-19T18:08:36Z</time>
      </trkpt>
      <trkpt lat="37.1777735328" lon="-7.4219077496">
        <ele>9.2</ele>
        <time>2011-03-19T18:08:38Z</time>
      </trkpt>
      <trkpt lat="37.1778302782" lon="-7.42190699523">
        <ele>9.2</ele>
        <time>2011-03-19T18:08:40Z</time>
      </trkpt>
      <trkpt lat="37.1778850959" lon="-7.4219077496">
        <ele>9.2</ele>
        <time>2011-03-19T18:08:42Z</time>
      </trkpt>
      <trkpt lat="37.1779415899" lon="-7.42190255282">
        <ele>9.2</ele>
        <time>2011-03-19T18:08:44Z</time>
      </trkpt>
      <trkpt lat="37.1779928871" lon="-7.42189190781">
        <ele>9.2</ele>
        <time>2011-03-19T18:08:46Z</time>
      </trkpt>
      <trkpt lat="37.1780437652" lon="-7.42188109516">
        <ele>9.2</ele>
        <time>2011-03-19T18:08:48Z</time>
      </trkpt>
      <trkpt lat="37.1781047016" lon="-7.4218759822">
        <ele>9.2</ele>
        <time>2011-03-19T18:08:51Z</time>
      </trkpt>
      <trkpt lat="37.1781787976" lon="-7.42186030804">
        <ele>9.2</ele>
        <time>2011-03-19T18:08:54Z</time>
      </trkpt>
      <trkpt lat="37.1782544024" lon="-7.42185058504">
        <ele>9.2</ele>
        <time>2011-03-19T18:08:57Z</time>
      </trkpt>
      <trkpt lat="37.1783096391" lon="-7.42184488535">
        <ele>9.2</ele>
        <time>2011-03-19T18:08:59Z</time>
      </trkpt>
      <trkpt lat="37.178370827" lon="-7.4218402753">
        <ele>9.2</ele>
        <time>2011-03-19T18:09:01Z</time>
      </trkpt>
      <trkpt lat="37.17842313" lon="-7.42182904356">
        <ele>9.2</ele>
        <time>2011-03-19T18:09:03Z</time>
      </trkpt>
      <trkpt lat="37.1784767742" lon="-7.42181504578">
        <ele>9.2</ele>
        <time>2011-03-19T18:09:05Z</time>
      </trkpt>
      <trkpt lat="37.1785323462" lon="-7.42180213766">
        <ele>9.2</ele>
        <time>2011-03-19T18:09:07Z</time>
      </trkpt>
      <trkpt lat="37.178588002" lon="-7.42179627033">
        <ele>9.2</ele>
        <time>2011-03-19T18:09:09Z</time>
      </trkpt>
      <trkpt lat="37.1786567336" lon="-7.42178420039">
        <ele>9.2</ele>
        <time>2011-03-19T18:09:12Z</time>
      </trkpt>
      <trkpt lat="37.1787290694" lon="-7.42176902915">
        <ele>9.2</ele>
        <time>2011-03-19T18:09:15Z</time>
      </trkpt>
      <trkpt lat="37.1787824621" lon="-7.4217634971">
        <ele>9.2</ele>
        <time>2011-03-19T18:09:17Z</time>
      </trkpt>
      <trkpt lat="37.1788379503" lon="-7.42175536666">
        <ele>9.2</ele>
        <time>2011-03-19T18:09:19Z</time>
      </trkpt>
      <trkpt lat="37.1789020718" lon="-7.42175477992">
        <ele>9.2</ele>
        <time>2011-03-19T18:09:21Z</time>
      </trkpt>
      <trkpt lat="37.1789598231" lon="-7.42174396727">
        <ele>9.2</ele>
        <time>2011-03-19T18:09:23Z</time>
      </trkpt>
      <trkpt lat="37.1790130481" lon="-7.42173843522">
        <ele>9.2</ele>
        <time>2011-03-19T18:09:25Z</time>
      </trkpt>
      <trkpt lat="37.1790753257" lon="-7.4217317297">
        <ele>9.2</ele>
        <time>2011-03-19T18:09:27Z</time>
      </trkpt>
      <trkpt lat="37.1791409559" lon="-7.42172309634">
        <ele>9.2</ele>
        <time>2011-03-19T18:09:29Z</time>
      </trkpt>
      <trkpt lat="37.1792065862" lon="-7.42171572027">
        <ele>9.2</ele>
        <time>2011-03-19T18:09:31Z</time>
      </trkpt>
      <trkpt lat="37.1792639184" lon="-7.42170784128">
        <ele>9.2</ele>
        <time>2011-03-19T18:09:33Z</time>
      </trkpt>
      <trkpt lat="37.1793254416" lon="-7.42170499144">
        <ele>9.4</ele>
        <time>2011-03-19T18:09:35Z</time>
      </trkpt>
      <trkpt lat="37.1793925806" lon="-7.42169526843">
        <ele>9.6</ele>
        <time>2011-03-19T18:09:37Z</time>
      </trkpt>
      <trkpt lat="37.179449326" lon="-7.4216929215">
        <ele>10</ele>
        <time>2011-03-19T18:09:39Z</time>
      </trkpt>
      <trkpt lat="37.1795044789" lon="-7.42168705417">
        <ele>10.2</ele>
        <time>2011-03-19T18:09:41Z</time>
      </trkpt>
      <trkpt lat="37.1795634037" lon="-7.42167699589">
        <ele>10.4</ele>
        <time>2011-03-19T18:09:43Z</time>
      </trkpt>
      <trkpt lat="37.1796264356" lon="-7.42166073501">
        <ele>10.6</ele>
        <time>2011-03-19T18:09:45Z</time>
      </trkpt>
      <trkpt lat="37.1796872044" lon="-7.42164665341">
        <ele>10.6</ele>
        <time>2011-03-19T18:09:47Z</time>
      </trkpt>
      <trkpt lat="37.1797455424" lon="-7.42162360319">
        <ele>10.8</ele>
        <time>2011-03-19T18:09:49Z</time>
      </trkpt>
      <trkpt lat="37.1798038804" lon="-7.42160398954">
        <ele>10.8</ele>
        <time>2011-03-19T18:09:51Z</time>
      </trkpt>
      <trkpt lat="37.1798644816" lon="-7.42159007559">
        <ele>11</ele>
        <time>2011-03-19T18:09:53Z</time>
      </trkpt>
      <trkpt lat="37.179934219" lon="-7.42157339561">
        <ele>11</ele>
        <time>2011-03-19T18:09:55Z</time>
      </trkpt>
      <trkpt lat="37.1800001007" lon="-7.42155847582">
        <ele>11</ele>
        <time>2011-03-19T18:09:57Z</time>
      </trkpt>
      <trkpt lat="37.1800551698" lon="-7.421538946">
        <ele>11</ele>
        <time>2011-03-19T18:09:59Z</time>
      </trkpt>
      <trkpt lat="37.1801160224" lon="-7.42152318803">
        <ele>11</ele>
        <time>2011-03-19T18:10:01Z</time>
      </trkpt>
      <trkpt lat="37.1801779646" lon="-7.42151095045">
        <ele>11.4</ele>
        <time>2011-03-19T18:10:03Z</time>
      </trkpt>
      <trkpt lat="37.1802343748" lon="-7.4214983776">
        <ele>11.6</ele>
        <time>2011-03-19T18:10:05Z</time>
      </trkpt>
      <trkpt lat="37.180286594" lon="-7.42148228435">
        <ele>12</ele>
        <time>2011-03-19T18:10:07Z</time>
      </trkpt>
      <trkpt lat="37.1803419984" lon="-7.42147339954">
        <ele>12.2</ele>
        <time>2011-03-19T18:10:09Z</time>
      </trkpt>
      <trkpt lat="37.1804014261" lon="-7.42146577201">
        <ele>12.4</ele>
        <time>2011-03-19T18:10:11Z</time>
      </trkpt>
      <trkpt lat="37.1804592612" lon="-7.42145127132">
        <ele>12.6</ele>
        <time>2011-03-19T18:10:13Z</time>
      </trkpt>
      <trkpt lat="37.1805191918" lon="-7.42144121304">
        <ele>12.8</ele>
        <time>2011-03-19T18:10:15Z</time>
      </trkpt>
      <trkpt lat="37.1805747638" lon="-7.4214317415">
        <ele>12.8</ele>
        <time>2011-03-19T18:10:17Z</time>
      </trkpt>
      <trkpt lat="37.1806324312" lon="-7.42141883337">
        <ele>13</ele>
        <time>2011-03-19T18:10:19Z</time>
      </trkpt>
      <trkpt lat="37.1806886738" lon="-7.42141237931">
        <ele>13</ele>
        <time>2011-03-19T18:10:21Z</time>
      </trkpt>
      <trkpt lat="37.1807430723" lon="-7.42140600906">
        <ele>13</ele>
        <time>2011-03-19T18:10:23Z</time>
      </trkpt>
      <trkpt lat="37.1807966327" lon="-7.42139402295">
        <ele>13</ele>
        <time>2011-03-19T18:10:25Z</time>
      </trkpt>
      <trkpt lat="37.1808528752" lon="-7.42137818116">
        <ele>13.2</ele>
        <time>2011-03-19T18:10:27Z</time>
      </trkpt>
      <trkpt lat="37.1809076928" lon="-7.42136477012">
        <ele>13.2</ele>
        <time>2011-03-19T18:10:29Z</time>
      </trkpt>
      <trkpt lat="37.1809593253" lon="-7.42135001797">
        <ele>13.2</ele>
        <time>2011-03-19T18:10:31Z</time>
      </trkpt>
      <trkpt lat="37.1810096167" lon="-7.42133392472">
        <ele>13.2</ele>
        <time>2011-03-19T18:10:33Z</time>
      </trkpt>
      <trkpt lat="37.1810669489" lon="-7.42132856031">
        <ele>13.2</ele>
        <time>2011-03-19T18:10:35Z</time>
      </trkpt>
      <trkpt lat="37.181123862" lon="-7.4213161551">
        <ele>13.2</ele>
        <time>2011-03-19T18:10:37Z</time>
      </trkpt>
      <trkpt lat="37.1811848823" lon="-7.42130358225">
        <ele>13.2</ele>
        <time>2011-03-19T18:10:39Z</time>
      </trkpt>
      <trkpt lat="37.1812485009" lon="-7.42129042266">
        <ele>13.2</ele>
        <time>2011-03-19T18:10:41Z</time>
      </trkpt>
      <trkpt lat="37.1813049111" lon="-7.42127893946">
        <ele>13.2</ele>
        <time>2011-03-19T18:10:43Z</time>
      </trkpt>
      <trkpt lat="37.1813607345" lon="-7.42126510933">
        <ele>13.2</ele>
        <time>2011-03-19T18:10:45Z</time>
      </trkpt>
      <trkpt lat="37.1814154683" lon="-7.42124985427">
        <ele>13.2</ele>
        <time>2011-03-19T18:10:47Z</time>
      </trkpt>
      <trkpt lat="37.1814734711" lon="-7.42123937689">
        <ele>13.2</ele>
        <time>2011-03-19T18:10:49Z</time>
      </trkpt>
      <trkpt lat="37.1815294622" lon="-7.42122537912">
        <ele>13.2</ele>
        <time>2011-03-19T18:10:51Z</time>
      </trkpt>
      <trkpt lat="37.1815799212" lon="-7.42121255481">
        <ele>13.2</ele>
        <time>2011-03-19T18:10:53Z</time>
      </trkpt>
      <trkpt lat="37.1816429531" lon="-7.42119377936">
        <ele>13.2</ele>
        <time>2011-03-19T18:10:55Z</time>
      </trkpt>
      <trkpt lat="37.1817015426" lon="-7.4211781052">
        <ele>13.2</ele>
        <time>2011-03-19T18:10:57Z</time>
      </trkpt>
      <trkpt lat="37.181758288" lon="-7.42117232169">
        <ele>13.2</ele>
        <time>2011-03-19T18:10:59Z</time>
      </trkpt>
      <trkpt lat="37.1818155364" lon="-7.42116025176">
        <ele>13.2</ele>
        <time>2011-03-19T18:11:01Z</time>
      </trkpt>
      <trkpt lat="37.1818682586" lon="-7.42114642162">
        <ele>13.2</ele>
        <time>2011-03-19T18:11:03Z</time>
      </trkpt>
      <trkpt lat="37.1819239982" lon="-7.42113477078">
        <ele>13.2</ele>
        <time>2011-03-19T18:11:05Z</time>
      </trkpt>
      <trkpt lat="37.1819818333" lon="-7.42112814908">
        <ele>13.2</ele>
        <time>2011-03-19T18:11:07Z</time>
      </trkpt>
      <trkpt lat="37.1820405904" lon="-7.42113929701">
        <ele>13.2</ele>
        <time>2011-03-19T18:11:09Z</time>
      </trkpt>
      <trkpt lat="37.1820996828" lon="-7.42115673136">
        <ele>13.2</ele>
        <time>2011-03-19T18:11:11Z</time>
      </trkpt>
      <trkpt lat="37.182159781" lon="-7.42117961395">
        <ele>13.2</ele>
        <time>2011-03-19T18:11:13Z</time>
      </trkpt>
      <trkpt lat="37.1822182867" lon="-7.4212001496">
        <ele>13.2</ele>
        <time>2011-03-19T18:11:15Z</time>
      </trkpt>
      <trkpt lat="37.1822889461" lon="-7.42122311601">
        <ele>13.2</ele>
        <time>2011-03-19T18:11:18Z</time>
      </trkpt>
      <trkpt lat="37.1823382317" lon="-7.42124164001">
        <ele>13.2</ele>
        <time>2011-03-19T18:11:20Z</time>
      </trkpt>
      <trkpt lat="37.1823833263" lon="-7.42126686952">
        <ele>13.2</ele>
        <time>2011-03-19T18:11:22Z</time>
      </trkpt>
      <trkpt lat="37.1824268284" lon="-7.42130173823">
        <ele>13.2</ele>
        <time>2011-03-19T18:11:24Z</time>
      </trkpt>
      <trkpt lat="37.1824544887" lon="-7.42135345455">
        <ele>13.2</ele>
        <time>2011-03-19T18:11:26Z</time>
      </trkpt>
      <trkpt lat="37.182475611" lon="-7.42140626052">
        <ele>13.2</ele>
        <time>2011-03-19T18:11:28Z</time>
      </trkpt>
      <trkpt lat="37.1824989127" lon="-7.42146451473">
        <ele>13.2</ele>
        <time>2011-03-19T18:11:30Z</time>
      </trkpt>
      <trkpt lat="37.1825222982" lon="-7.42152193074">
        <ele>13.2</ele>
        <time>2011-03-19T18:11:32Z</time>
      </trkpt>
      <trkpt lat="37.1825446779" lon="-7.42158496263">
        <ele>13.2</ele>
        <time>2011-03-19T18:11:34Z</time>
      </trkpt>
      <trkpt lat="37.1825741822" lon="-7.42167330786">
        <ele>13.2</ele>
        <time>2011-03-19T18:11:37Z</time>
      </trkpt>
      <trkpt lat="37.1825933767" lon="-7.42173935723">
        <ele>13.2</ele>
        <time>2011-03-19T18:11:39Z</time>
      </trkpt>
      <trkpt lat="37.1826137448" lon="-7.42180792117">
        <ele>13.2</ele>
        <time>2011-03-19T18:11:41Z</time>
      </trkpt>
      <trkpt lat="37.1826357891" lon="-7.42187187507">
        <ele>13.2</ele>
        <time>2011-03-19T18:11:43Z</time>
      </trkpt>
      <trkpt lat="37.1826615216" lon="-7.42193733771">
        <ele>13.2</ele>
        <time>2011-03-19T18:11:45Z</time>
      </trkpt>
      <trkpt lat="37.1826882598" lon="-7.42200707511">
        <ele>13.2</ele>
        <time>2011-03-19T18:11:47Z</time>
      </trkpt>
      <trkpt lat="37.182711813" lon="-7.42206750861">
        <ele>13.2</ele>
        <time>2011-03-19T18:11:49Z</time>
      </trkpt>
      <trkpt lat="37.1827331868" lon="-7.42213422854">
        <ele>13.2</ele>
        <time>2011-03-19T18:11:51Z</time>
      </trkpt>
      <trkpt lat="37.1827548121" lon="-7.42221000091">
        <ele>13.2</ele>
        <time>2011-03-19T18:11:53Z</time>
      </trkpt>
      <trkpt lat="37.1827765212" lon="-7.42228258817">
        <ele>13.2</ele>
        <time>2011-03-19T18:11:55Z</time>
      </trkpt>
      <trkpt lat="37.1827975598" lon="-7.42235651652">
        <ele>13.2</ele>
        <time>2011-03-19T18:11:57Z</time>
      </trkpt>
      <trkpt lat="37.1828149942" lon="-7.42242943905">
        <ele>13.2</ele>
        <time>2011-03-19T18:11:59Z</time>
      </trkpt>
      <trkpt lat="37.1828356975" lon="-7.42249942792">
        <ele>13.2</ele>
        <time>2011-03-19T18:12:01Z</time>
      </trkpt>
      <trkpt lat="37.1828516231" lon="-7.42256128634">
        <ele>13.2</ele>
        <time>2011-03-19T18:12:03Z</time>
      </trkpt>
      <trkpt lat="37.1828675487" lon="-7.42262968265">
        <ele>13.2</ele>
        <time>2011-03-19T18:12:05Z</time>
      </trkpt>
      <trkpt lat="37.1828823008" lon="-7.4226987495">
        <ele>13.2</ele>
        <time>2011-03-19T18:12:07Z</time>
      </trkpt>
      <trkpt lat="37.1828984779" lon="-7.42276639143">
        <ele>13.2</ele>
        <time>2011-03-19T18:12:09Z</time>
      </trkpt>
      <trkpt lat="37.1829138168" lon="-7.42284015215">
        <ele>13.2</ele>
        <time>2011-03-19T18:12:11Z</time>
      </trkpt>
      <trkpt lat="37.1829258867" lon="-7.42290838082">
        <ele>13.2</ele>
        <time>2011-03-19T18:12:13Z</time>
      </trkpt>
      <trkpt lat="37.1829434887" lon="-7.42298256063">
        <ele>13.2</ele>
        <time>2011-03-19T18:12:15Z</time>
      </trkpt>
      <trkpt lat="37.1829574027" lon="-7.42304534107">
        <ele>13.2</ele>
        <time>2011-03-19T18:12:17Z</time>
      </trkpt>
      <trkpt lat="37.182973915" lon="-7.42311113898">
        <ele>13.2</ele>
        <time>2011-03-19T18:12:19Z</time>
      </trkpt>
      <trkpt lat="37.1829905112" lon="-7.42317350032">
        <ele>12.8</ele>
        <time>2011-03-19T18:12:21Z</time>
      </trkpt>
      <trkpt lat="37.1830032516" lon="-7.42323041342">
        <ele>12.6</ele>
        <time>2011-03-19T18:12:23Z</time>
      </trkpt>
      <trkpt lat="37.1830054309" lon="-7.4232585766">
        <ele>12.4</ele>
        <time>2011-03-19T18:12:24Z</time>
      </trkpt>
      <trkpt lat="37.1830280621" lon="-7.42337122934">
        <ele>12</ele>
        <time>2011-03-19T18:12:28Z</time>
      </trkpt>
      <trkpt lat="37.1830409702" lon="-7.42343048937">
        <ele>11.8</ele>
        <time>2011-03-19T18:12:30Z</time>
      </trkpt>
      <trkpt lat="37.1830557223" lon="-7.42353065308">
        <ele>11.6</ele>
        <time>2011-03-19T18:12:33Z</time>
      </trkpt>
      <trkpt lat="37.1830592427" lon="-7.42360072576">
        <ele>11.6</ele>
        <time>2011-03-19T18:12:35Z</time>
      </trkpt>
      <trkpt lat="37.1830673732" lon="-7.42366945734">
        <ele>11.6</ele>
        <time>2011-03-19T18:12:37Z</time>
      </trkpt>
      <trkpt lat="37.1830723185" lon="-7.42374087113">
        <ele>11.4</ele>
        <time>2011-03-19T18:12:39Z</time>
      </trkpt>
      <trkpt lat="37.1830738272" lon="-7.42381731406">
        <ele>11.4</ele>
        <time>2011-03-19T18:12:41Z</time>
      </trkpt>
      <trkpt lat="37.1830745816" lon="-7.42389048804">
        <ele>11.4</ele>
        <time>2011-03-19T18:12:43Z</time>
      </trkpt>
      <trkpt lat="37.1830726538" lon="-7.42396165037">
        <ele>11.4</ele>
        <time>2011-03-19T18:12:45Z</time>
      </trkpt>
      <trkpt lat="37.1830716479" lon="-7.42399819546">
        <ele>11.4</ele>
        <time>2011-03-19T18:12:46Z</time>
      </trkpt>
      <trkpt lat="37.1830778506" lon="-7.42411160257">
        <ele>11.4</ele>
        <time>2011-03-19T18:12:49Z</time>
      </trkpt>
      <trkpt lat="37.1830942791" lon="-7.42418393836">
        <ele>11.2</ele>
        <time>2011-03-19T18:12:51Z</time>
      </trkpt>
      <trkpt lat="37.1831135574" lon="-7.42424956864">
        <ele>11.2</ele>
        <time>2011-03-19T18:12:53Z</time>
      </trkpt>
      <trkpt lat="37.1831356018" lon="-7.42430723611">
        <ele>11.2</ele>
        <time>2011-03-19T18:12:55Z</time>
      </trkpt>
      <trkpt lat="37.1831567242" lon="-7.42436666378">
        <ele>11.2</ele>
        <time>2011-03-19T18:12:57Z</time>
      </trkpt>
      <trkpt lat="37.1831717278" lon="-7.42443539536">
        <ele>11.2</ele>
        <time>2011-03-19T18:12:59Z</time>
      </trkpt>
      <trkpt lat="37.1831862285" lon="-7.42450462986">
        <ele>11.2</ele>
        <time>2011-03-19T18:13:01Z</time>
      </trkpt>
      <trkpt lat="37.1831966221" lon="-7.42457017631">
        <ele>11.2</ele>
        <time>2011-03-19T18:13:03Z</time>
      </trkpt>
      <trkpt lat="37.1832064289" lon="-7.42463899171">
        <ele>11.2</ele>
        <time>2011-03-19T18:13:05Z</time>
      </trkpt>
      <trkpt lat="37.1832192532" lon="-7.42470043104">
        <ele>11.2</ele>
        <time>2011-03-19T18:13:07Z</time>
      </trkpt>
      <trkpt lat="37.1832356817" lon="-7.42476237328">
        <ele>10.8</ele>
        <time>2011-03-19T18:13:09Z</time>
      </trkpt>
      <trkpt lat="37.1832544572" lon="-7.42482909321">
        <ele>10.6</ele>
        <time>2011-03-19T18:13:11Z</time>
      </trkpt>
      <trkpt lat="37.1832697961" lon="-7.42490293774">
        <ele>10.2</ele>
        <time>2011-03-19T18:13:13Z</time>
      </trkpt>
      <trkpt lat="37.1832751605" lon="-7.42497661465">
        <ele>10</ele>
        <time>2011-03-19T18:13:15Z</time>
      </trkpt>
      <trkpt lat="37.1832796029" lon="-7.42506487605">
        <ele>10</ele>
        <time>2011-03-19T18:13:17Z</time>
      </trkpt>
      <trkpt lat="37.1832837938" lon="-7.42514307918">
        <ele>9.8</ele>
        <time>2011-03-19T18:13:19Z</time>
      </trkpt>
      <trkpt lat="37.1832791" lon="-7.42521977356">
        <ele>9.6</ele>
        <time>2011-03-19T18:13:21Z</time>
      </trkpt>
      <trkpt lat="37.183268455" lon="-7.42524810439">
        <ele>9.6</ele>
        <time>2011-03-19T18:13:22Z</time>
      </trkpt>
      <trkpt lat="37.1832247014" lon="-7.42528481711">
        <ele>9.6</ele>
        <time>2011-03-19T18:13:24Z</time>
      </trkpt>
      <trkpt lat="37.1831705544" lon="-7.42529303137">
        <ele>9.4</ele>
        <time>2011-03-19T18:13:26Z</time>
      </trkpt>
      <trkpt lat="37.1831420559" lon="-7.42530074272">
        <ele>9.4</ele>
        <time>2011-03-19T18:13:27Z</time>
      </trkpt>
      <trkpt lat="37.1830641881" lon="-7.42532781626">
        <ele>9.4</ele>
        <time>2011-03-19T18:13:30Z</time>
      </trkpt>
      <trkpt lat="37.1830141481" lon="-7.42534290368">
        <ele>9.4</ele>
        <time>2011-03-19T18:13:32Z</time>
      </trkpt>
      <trkpt lat="37.1829635214" lon="-7.42535128558">
        <ele>9.4</ele>
        <time>2011-03-19T18:13:34Z</time>
      </trkpt>
      <trkpt lat="37.1829096258" lon="-7.4253579911">
        <ele>9.4</ele>
        <time>2011-03-19T18:13:36Z</time>
      </trkpt>
      <trkpt lat="37.1828495276" lon="-7.42536654063">
        <ele>9.2</ele>
        <time>2011-03-19T18:13:38Z</time>
      </trkpt>
      <trkpt lat="37.1827941232" lon="-7.4253862381">
        <ele>9.2</ele>
        <time>2011-03-19T18:13:40Z</time>
      </trkpt>
      <trkpt lat="37.1827343603" lon="-7.42539277598">
        <ele>9.2</ele>
        <time>2011-03-19T18:13:42Z</time>
      </trkpt>
      <trkpt lat="37.1826829792" lon="-7.42540459446">
        <ele>9.2</ele>
        <time>2011-03-19T18:13:44Z</time>
      </trkpt>
      <trkpt lat="37.1826357891" lon="-7.42542353755">
        <ele>9.2</ele>
        <time>2011-03-19T18:13:46Z</time>
      </trkpt>
      <trkpt lat="37.1825642077" lon="-7.4254568137">
        <ele>9.2</ele>
        <time>2011-03-19T18:13:49Z</time>
      </trkpt>
      <trkpt lat="37.1824604398" lon="-7.4254903413">
        <ele>9.2</ele>
        <time>2011-03-19T18:13:53Z</time>
      </trkpt>
      <trkpt lat="37.1824093102" lon="-7.42550417143">
        <ele>9.2</ele>
        <time>2011-03-19T18:13:55Z</time>
      </trkpt>
      <trkpt lat="37.182342255" lon="-7.42552680256">
        <ele>9.2</ele>
        <time>2011-03-19T18:13:58Z</time>
      </trkpt>
      <trkpt lat="37.1822987529" lon="-7.42554515892">
        <ele>9.2</ele>
        <time>2011-03-19T18:14:00Z</time>
      </trkpt>
      <trkpt lat="37.1822457793" lon="-7.42555496575">
        <ele>9.2</ele>
        <time>2011-03-19T18:14:02Z</time>
      </trkpt>
      <trkpt lat="37.1821977511" lon="-7.42556896352">
        <ele>9.2</ele>
        <time>2011-03-19T18:14:04Z</time>
      </trkpt>
      <trkpt lat="37.1821492199" lon="-7.425590505">
        <ele>9.2</ele>
        <time>2011-03-19T18:14:06Z</time>
      </trkpt>
      <trkpt lat="37.1820945699" lon="-7.42560969955">
        <ele>9.2</ele>
        <time>2011-03-19T18:14:08Z</time>
      </trkpt>
      <trkpt lat="37.1820386626" lon="-7.42562830737">
        <ele>9.2</ele>
        <time>2011-03-19T18:14:10Z</time>
      </trkpt>
      <trkpt lat="37.1819866948" lon="-7.42564909448">
        <ele>9.6</ele>
        <time>2011-03-19T18:14:12Z</time>
      </trkpt>
      <trkpt lat="37.1819387503" lon="-7.42567264762">
        <ele>10</ele>
        <time>2011-03-19T18:14:14Z</time>
      </trkpt>
      <trkpt lat="37.1818838489" lon="-7.42568681303">
        <ele>10.2</ele>
        <time>2011-03-19T18:14:16Z</time>
      </trkpt>
      <trkpt lat="37.1818266005" lon="-7.4256994697">
        <ele>10.4</ele>
        <time>2011-03-19T18:14:18Z</time>
      </trkpt>
      <trkpt lat="37.1817769797" lon="-7.42572788434">
        <ele>10.6</ele>
        <time>2011-03-19T18:14:20Z</time>
      </trkpt>
      <trkpt lat="37.1817233355" lon="-7.42575135366">
        <ele>10.6</ele>
        <time>2011-03-19T18:14:22Z</time>
      </trkpt>
      <trkpt lat="37.1816724574" lon="-7.42577918157">
        <ele>10.8</ele>
        <time>2011-03-19T18:14:24Z</time>
      </trkpt>
      <trkpt lat="37.1816225851" lon="-7.42581438555">
        <ele>10.8</ele>
        <time>2011-03-19T18:14:26Z</time>
      </trkpt>
      <trkpt lat="37.1815712878" lon="-7.42585026008">
        <ele>11</ele>
        <time>2011-03-19T18:14:28Z</time>
      </trkpt>
      <trkpt lat="37.1815183142" lon="-7.42588269804">
        <ele>11</ele>
        <time>2011-03-19T18:14:30Z</time>
      </trkpt>
      <trkpt lat="37.1814671847" lon="-7.42591538745">
        <ele>11</ele>
        <time>2011-03-19T18:14:32Z</time>
      </trkpt>
      <trkpt lat="37.1814124508" lon="-7.42595880569">
        <ele>11</ele>
        <time>2011-03-19T18:14:34Z</time>
      </trkpt>
      <trkpt lat="37.1813614889" lon="-7.42599610514">
        <ele>11</ele>
        <time>2011-03-19T18:14:36Z</time>
      </trkpt>
      <trkpt lat="37.1813049111" lon="-7.42603005184">
        <ele>11.2</ele>
        <time>2011-03-19T18:14:38Z</time>
      </trkpt>
      <trkpt lat="37.1812474951" lon="-7.42606458527">
        <ele>11.2</ele>
        <time>2011-03-19T18:14:40Z</time>
      </trkpt>
      <trkpt lat="37.1811934318" lon="-7.4260938381">
        <ele>11.2</ele>
        <time>2011-03-19T18:14:42Z</time>
      </trkpt>
      <trkpt lat="37.1811427213" lon="-7.42612267183">
        <ele>11.2</ele>
        <time>2011-03-19T18:14:44Z</time>
      </trkpt>
      <trkpt lat="37.1810997222" lon="-7.42615049974">
        <ele>11.2</ele>
        <time>2011-03-19T18:14:46Z</time>
      </trkpt>
      <trkpt lat="37.1810755823" lon="-7.42616785027">
        <ele>11.2</ele>
        <time>2011-03-19T18:14:47Z</time>
      </trkpt>
      <trkpt lat="37.1809937749" lon="-7.42620079114">
        <ele>11.2</ele>
        <time>2011-03-19T18:14:50Z</time>
      </trkpt>
      <trkpt lat="37.1809454952" lon="-7.4262257692">
        <ele>11.2</ele>
        <time>2011-03-19T18:14:52Z</time>
      </trkpt>
      <trkpt lat="37.180896964" lon="-7.42626172755">
        <ele>11.2</ele>
        <time>2011-03-19T18:14:54Z</time>
      </trkpt>
      <trkpt lat="37.1808442418" lon="-7.42629315968">
        <ele>11.2</ele>
        <time>2011-03-19T18:14:56Z</time>
      </trkpt>
      <trkpt lat="37.1807934475" lon="-7.42632224487">
        <ele>11.2</ele>
        <time>2011-03-19T18:14:58Z</time>
      </trkpt>
      <trkpt lat="37.1807414797" lon="-7.42634437309">
        <ele>11.2</ele>
        <time>2011-03-19T18:15:00Z</time>
      </trkpt>
      <trkpt lat="37.1806911045" lon="-7.42637370974">
        <ele>11.6</ele>
        <time>2011-03-19T18:15:02Z</time>
      </trkpt>
      <trkpt lat="37.1806402264" lon="-7.4264022082">
        <ele>12</ele>
        <time>2011-03-19T18:15:04Z</time>
      </trkpt>
      <trkpt lat="37.1805891806" lon="-7.42643825037">
        <ele>12.2</ele>
        <time>2011-03-19T18:15:06Z</time>
      </trkpt>
      <trkpt lat="37.1805353688" lon="-7.42647219706">
        <ele>12.4</ele>
        <time>2011-03-19T18:15:08Z</time>
      </trkpt>
      <trkpt lat="37.1804797968" lon="-7.42650497029">
        <ele>12.6</ele>
        <time>2011-03-19T18:15:10Z</time>
      </trkpt>
      <trkpt lat="37.1804252307" lon="-7.42653581568">
        <ele>12.6</ele>
        <time>2011-03-19T18:15:12Z</time>
      </trkpt>
      <trkpt lat="37.1803684014" lon="-7.42657202549">
        <ele>12.8</ele>
        <time>2011-03-19T18:15:14Z</time>
      </trkpt>
      <trkpt lat="37.1803140028" lon="-7.42660320616">
        <ele>12.8</ele>
        <time>2011-03-19T18:15:16Z</time>
      </trkpt>
      <trkpt lat="37.1802631247" lon="-7.42664058943">
        <ele>13</ele>
        <time>2011-03-19T18:15:18Z</time>
      </trkpt>
      <trkpt lat="37.1802080556" lon="-7.42667302739">
        <ele>13</ele>
        <time>2011-03-19T18:15:20Z</time>
      </trkpt>
      <trkpt lat="37.1801548306" lon="-7.42670404042">
        <ele>13</ele>
        <time>2011-03-19T18:15:22Z</time>
      </trkpt>
      <trkpt lat="37.1801065508" lon="-7.42673211978">
        <ele>13</ele>
        <time>2011-03-19T18:15:24Z</time>
      </trkpt>
      <trkpt lat="37.1800592769" lon="-7.42676296517">
        <ele>13.2</ele>
        <time>2011-03-19T18:15:26Z</time>
      </trkpt>
      <trkpt lat="37.1800125059" lon="-7.42679934262">
        <ele>13.2</ele>
        <time>2011-03-19T18:15:28Z</time>
      </trkpt>
      <trkpt lat="37.1799638909" lon="-7.4268376479">
        <ele>13.2</ele>
        <time>2011-03-19T18:15:30Z</time>
      </trkpt>
      <trkpt lat="37.1799248312" lon="-7.4268764561">
        <ele>13.2</ele>
        <time>2011-03-19T18:15:32Z</time>
      </trkpt>
      <trkpt lat="37.1798880347" lon="-7.42692616077">
        <ele>13.2</ele>
        <time>2011-03-19T18:15:34Z</time>
      </trkpt>
      <trkpt lat="37.179856854" lon="-7.42698332532">
        <ele>13.2</ele>
        <time>2011-03-19T18:15:36Z</time>
      </trkpt>
      <trkpt lat="37.179847131" lon="-7.42706144463">
        <ele>13.2</ele>
        <time>2011-03-19T18:15:38Z</time>
      </trkpt>
      <trkpt lat="37.1798535851" lon="-7.42713973158">
        <ele>13.2</ele>
        <time>2011-03-19T18:15:40Z</time>
      </trkpt>
      <trkpt lat="37.1798669123" lon="-7.42721617451">
        <ele>13.2</ele>
        <time>2011-03-19T18:15:42Z</time>
      </trkpt>
      <trkpt lat="37.1798833408" lon="-7.42728783975">
        <ele>13.2</ele>
        <time>2011-03-19T18:15:44Z</time>
      </trkpt>
      <trkpt lat="37.179901781" lon="-7.4273542244">
        <ele>13.2</ele>
        <time>2011-03-19T18:15:46Z</time>
      </trkpt>
      <trkpt lat="37.1799214785" lon="-7.42742010613">
        <ele>13.2</ele>
        <time>2011-03-19T18:15:48Z</time>
      </trkpt>
      <trkpt lat="37.179939751" lon="-7.42748908917">
        <ele>13.2</ele>
        <time>2011-03-19T18:15:50Z</time>
      </trkpt>
      <trkpt lat="37.1799537488" lon="-7.42756209552">
        <ele>13.2</ele>
        <time>2011-03-19T18:15:52Z</time>
      </trkpt>
      <trkpt lat="37.1799743683" lon="-7.42763811935">
        <ele>13.2</ele>
        <time>2011-03-19T18:15:54Z</time>
      </trkpt>
      <trkpt lat="37.1800273419" lon="-7.42780869102">
        <ele>13.2</ele>
        <time>2011-03-19T18:15:59Z</time>
      </trkpt>
      <trkpt lat="37.1800477099" lon="-7.42788253556">
        <ele>13.2</ele>
        <time>2011-03-19T18:16:01Z</time>
      </trkpt>
      <trkpt lat="37.1800684132" lon="-7.427955961">
        <ele>13.2</ele>
        <time>2011-03-19T18:16:03Z</time>
      </trkpt>
      <trkpt lat="37.1800899547" lon="-7.42802209419">
        <ele>13.2</ele>
        <time>2011-03-19T18:16:05Z</time>
      </trkpt>
      <trkpt lat="37.1801105741" lon="-7.42808236005">
        <ele>13.2</ele>
        <time>2011-03-19T18:16:07Z</time>
      </trkpt>
      <trkpt lat="37.1801368095" lon="-7.4281505049">
        <ele>13.2</ele>
        <time>2011-03-19T18:16:09Z</time>
      </trkpt>
      <trkpt lat="37.1801607817" lon="-7.42822124814">
        <ele>13.2</ele>
        <time>2011-03-19T18:16:11Z</time>
      </trkpt>
      <trkpt lat="37.1801857598" lon="-7.42829291338">
        <ele>13.2</ele>
        <time>2011-03-19T18:16:13Z</time>
      </trkpt>
      <trkpt lat="37.1802061278" lon="-7.42836793138">
        <ele>13.2</ele>
        <time>2011-03-19T18:16:15Z</time>
      </trkpt>
      <trkpt lat="37.1802276693" lon="-7.4284385908">
        <ele>13.2</ele>
        <time>2011-03-19T18:16:17Z</time>
      </trkpt>
      <trkpt lat="37.1802456065" lon="-7.42850899876">
        <ele>13.2</ele>
        <time>2011-03-19T18:16:19Z</time>
      </trkpt>
      <trkpt lat="37.1802663098" lon="-7.42857714361">
        <ele>13.2</ele>
        <time>2011-03-19T18:16:21Z</time>
      </trkpt>
      <trkpt lat="37.180291707" lon="-7.42863816384">
        <ele>13.2</ele>
        <time>2011-03-19T18:16:23Z</time>
      </trkpt>
      <trkpt lat="37.180319032" lon="-7.42869767533">
        <ele>13.2</ele>
        <time>2011-03-19T18:16:25Z</time>
      </trkpt>
      <trkpt lat="37.1803471952" lon="-7.42876263506">
        <ele>13.2</ele>
        <time>2011-03-19T18:16:27Z</time>
      </trkpt>
      <trkpt lat="37.1803734305" lon="-7.42882675659">
        <ele>13.2</ele>
        <time>2011-03-19T18:16:29Z</time>
      </trkpt>
      <trkpt lat="37.1803984086" lon="-7.42888827974">
        <ele>13.2</ele>
        <time>2011-03-19T18:16:31Z</time>
      </trkpt>
      <trkpt lat="37.180432942" lon="-7.42894485756">
        <ele>13.2</ele>
        <time>2011-03-19T18:16:33Z</time>
      </trkpt>
      <trkpt lat="37.1804757735" lon="-7.42899431077">
        <ele>13.2</ele>
        <time>2011-03-19T18:16:35Z</time>
      </trkpt>
      <trkpt lat="37.1805222931" lon="-7.42903990831">
        <ele>13.2</ele>
        <time>2011-03-19T18:16:37Z</time>
      </trkpt>
      <trkpt lat="37.180570489" lon="-7.42907947088">
        <ele>13.2</ele>
        <time>2011-03-19T18:16:39Z</time>
      </trkpt>
      <trkpt lat="37.180619104" lon="-7.42912230239">
        <ele>13.2</ele>
        <time>2011-03-19T18:16:41Z</time>
      </trkpt>
      <trkpt lat="37.1806572417" lon="-7.42916404425">
        <ele>13.2</ele>
        <time>2011-03-19T18:16:43Z</time>
      </trkpt>
      <trkpt lat="37.1806923618" lon="-7.42922665704">
        <ele>13.2</ele>
        <time>2011-03-19T18:16:45Z</time>
      </trkpt>
      <trkpt lat="37.1807290745" lon="-7.42928482743">
        <ele>13.2</ele>
        <time>2011-03-19T18:16:47Z</time>
      </trkpt>
      <trkpt lat="37.1807791145" lon="-7.42935716322">
        <ele>13.2</ele>
        <time>2011-03-19T18:16:50Z</time>
      </trkpt>
      <trkpt lat="37.1808195152" lon="-7.42940695171">
        <ele>13.2</ele>
        <time>2011-03-19T18:16:52Z</time>
      </trkpt>
      <trkpt lat="37.1808615086" lon="-7.42945372271">
        <ele>13.2</ele>
        <time>2011-03-19T18:16:54Z</time>
      </trkpt>
      <trkpt lat="37.1808942818" lon="-7.42950862416">
        <ele>13.2</ele>
        <time>2011-03-19T18:16:56Z</time>
      </trkpt>
      <trkpt lat="37.1809190922" lon="-7.42957484117">
        <ele>13.2</ele>
        <time>2011-03-19T18:16:58Z</time>
      </trkpt>
      <trkpt lat="37.1809450761" lon="-7.42963510703">
        <ele>12.8</ele>
        <time>2011-03-19T18:17:00Z</time>
      </trkpt>
      <trkpt lat="37.1809786875" lon="-7.42969176867">
        <ele>12.6</ele>
        <time>2011-03-19T18:17:02Z</time>
      </trkpt>
      <trkpt lat="37.1810165737" lon="-7.42974516137">
        <ele>12.2</ele>
        <time>2011-03-19T18:17:04Z</time>
      </trkpt>
      <trkpt lat="37.1810515262" lon="-7.42980416995">
        <ele>12</ele>
        <time>2011-03-19T18:17:06Z</time>
      </trkpt>
      <trkpt lat="37.1810802761" lon="-7.42986451963">
        <ele>11.8</ele>
        <time>2011-03-19T18:17:08Z</time>
      </trkpt>
      <trkpt lat="37.1810959503" lon="-7.42993475995">
        <ele>11.8</ele>
        <time>2011-03-19T18:17:10Z</time>
      </trkpt>
      <trkpt lat="37.1810993031" lon="-7.43000072551">
        <ele>11.6</ele>
        <time>2011-03-19T18:17:12Z</time>
      </trkpt>
      <trkpt lat="37.181099806" lon="-7.43006442795">
        <ele>11.6</ele>
        <time>2011-03-19T18:17:14Z</time>
      </trkpt>
      <trkpt lat="37.1811002251" lon="-7.43012838184">
        <ele>11.4</ele>
        <time>2011-03-19T18:17:16Z</time>
      </trkpt>
      <trkpt lat="37.1810998898" lon="-7.43019493413">
        <ele>11.4</ele>
        <time>2011-03-19T18:17:18Z</time>
      </trkpt>
      <trkpt lat="37.1810957827" lon="-7.43027045505">
        <ele>11.4</ele>
        <time>2011-03-19T18:17:20Z</time>
      </trkpt>
      <trkpt lat="37.181099806" lon="-7.43033583387">
        <ele>11.4</ele>
        <time>2011-03-19T18:17:22Z</time>
      </trkpt>
      <trkpt lat="37.181098381" lon="-7.43040305671">
        <ele>11.4</ele>
        <time>2011-03-19T18:17:24Z</time>
      </trkpt>
      <trkpt lat="37.1811014824" lon="-7.4304753925">
        <ele>11.2</ele>
        <time>2011-03-19T18:17:26Z</time>
      </trkpt>
      <trkpt lat="37.1811098643" lon="-7.43054026841">
        <ele>11.2</ele>
        <time>2011-03-19T18:17:28Z</time>
      </trkpt>
      <trkpt lat="37.1811275501" lon="-7.43059944462">
        <ele>11.2</ele>
        <time>2011-03-19T18:17:30Z</time>
      </trkpt>
      <trkpt lat="37.1811494268" lon="-7.43065769883">
        <ele>11.2</ele>
        <time>2011-03-19T18:17:32Z</time>
      </trkpt>
      <trkpt lat="37.1811767518" lon="-7.43071687504">
        <ele>11.2</ele>
        <time>2011-03-19T18:17:34Z</time>
      </trkpt>
      <trkpt lat="37.181207681" lon="-7.43077596744">
        <ele>11.2</ele>
        <time>2011-03-19T18:17:36Z</time>
      </trkpt>
      <trkpt lat="37.1812428012" lon="-7.43083103652">
        <ele>11.2</ele>
        <time>2011-03-19T18:17:38Z</time>
      </trkpt>
      <trkpt lat="37.181280855" lon="-7.43088577033">
        <ele>11.2</ele>
        <time>2011-03-19T18:17:40Z</time>
      </trkpt>
      <trkpt lat="37.1813124548" lon="-7.43095307698">
        <ele>11.2</ele>
        <time>2011-03-19T18:17:42Z</time>
      </trkpt>
      <trkpt lat="37.1813456471" lon="-7.43101082827">
        <ele>11.2</ele>
        <time>2011-03-19T18:17:44Z</time>
      </trkpt>
      <trkpt lat="37.1813797614" lon="-7.43106933394">
        <ele>11.2</ele>
        <time>2011-03-19T18:17:46Z</time>
      </trkpt>
      <trkpt lat="37.1814149654" lon="-7.43112012825">
        <ele>11.2</ele>
        <time>2011-03-19T18:17:48Z</time>
      </trkpt>
      <trkpt lat="37.1814323159" lon="-7.43114393285">
        <ele>11.2</ele>
        <time>2011-03-19T18:17:49Z</time>
      </trkpt>
      <trkpt lat="37.1814491636" lon="-7.43117075493">
        <ele>11.2</ele>
        <time>2011-03-19T18:17:50Z</time>
      </trkpt>
      <trkpt lat="37.1814779973" lon="-7.43122439909">
        <ele>11.2</ele>
        <time>2011-03-19T18:17:52Z</time>
      </trkpt>
      <trkpt lat="37.1814756504" lon="-7.43133051394">
        <ele>11.2</ele>
        <time>2011-03-19T18:17:56Z</time>
      </trkpt>
      <trkpt lat="37.1814361716" lon="-7.43137292635">
        <ele>11.2</ele>
        <time>2011-03-19T18:17:58Z</time>
      </trkpt>
      <trkpt lat="37.1813807673" lon="-7.43142858217">
        <ele>11.2</ele>
        <time>2011-03-19T18:18:01Z</time>
      </trkpt>
      <trkpt lat="37.181342462" lon="-7.43146118776">
        <ele>11.2</ele>
        <time>2011-03-19T18:18:03Z</time>
      </trkpt>
      <trkpt lat="37.1812916677" lon="-7.43147845448">
        <ele>11.2</ele>
        <time>2011-03-19T18:18:05Z</time>
      </trkpt>
      <trkpt lat="37.181238275" lon="-7.43148096905">
        <ele>11.2</ele>
        <time>2011-03-19T18:18:07Z</time>
      </trkpt>
      <trkpt lat="37.1811862234" lon="-7.43147183277">
        <ele>11.2</ele>
        <time>2011-03-19T18:18:09Z</time>
      </trkpt>
      <trkpt lat="37.1811370216" lon="-7.43146965348">
        <ele>11.2</ele>
        <time>2011-03-19T18:18:11Z</time>
      </trkpt>
      <trkpt lat="37.1810896639" lon="-7.43146227741">
        <ele>11.2</ele>
        <time>2011-03-19T18:18:13Z</time>
      </trkpt>
      <trkpt lat="37.1810384505" lon="-7.43145339259">
        <ele>11.2</ele>
        <time>2011-03-19T18:18:15Z</time>
      </trkpt>
      <trkpt lat="37.1809841358" lon="-7.43145104566">
        <ele>11.2</ele>
        <time>2011-03-19T18:18:17Z</time>
      </trkpt>
      <trkpt lat="37.1809283123" lon="-7.43144685471">
        <ele>11.2</ele>
        <time>2011-03-19T18:18:19Z</time>
      </trkpt>
      <trkpt lat="37.1808693875" lon="-7.43144274758">
        <ele>11.2</ele>
        <time>2011-03-19T18:18:21Z</time>
      </trkpt>
      <trkpt lat="37.1808212754" lon="-7.43143847281">
        <ele>11.2</ele>
        <time>2011-03-19T18:18:23Z</time>
      </trkpt>
      <trkpt lat="37.1807715708" lon="-7.43143369513">
        <ele>11.2</ele>
        <time>2011-03-19T18:18:25Z</time>
      </trkpt>
      <trkpt lat="37.1807188486" lon="-7.43141885917">
        <ele>11.2</ele>
        <time>2011-03-19T18:18:27Z</time>
      </trkpt>
      <trkpt lat="37.1806627737" lon="-7.43140980671">
        <ele>11.6</ele>
        <time>2011-03-19T18:18:29Z</time>
      </trkpt>
      <trkpt lat="37.1805989036" lon="-7.4313943002">
        <ele>11.8</ele>
        <time>2011-03-19T18:18:31Z</time>
      </trkpt>
      <trkpt lat="37.1805387216" lon="-7.43138927106">
        <ele>12.2</ele>
        <time>2011-03-19T18:18:33Z</time>
      </trkpt>
      <trkpt lat="37.1804797968" lon="-7.43139019307">
        <ele>12.4</ele>
        <time>2011-03-19T18:18:35Z</time>
      </trkpt>
      <trkpt lat="37.1804244763" lon="-7.43140435848">
        <ele>12.6</ele>
        <time>2011-03-19T18:18:37Z</time>
      </trkpt>
      <trkpt lat="37.1804003364" lon="-7.43142028409">
        <ele>12.6</ele>
        <time>2011-03-19T18:18:38Z</time>
      </trkpt>
      <trkpt lat="37.1803753584" lon="-7.43152162126">
        <ele>12.8</ele>
        <time>2011-03-19T18:18:41Z</time>
      </trkpt>
      <trkpt lat="37.1803723409" lon="-7.43159638781">
        <ele>12.8</ele>
        <time>2011-03-19T18:18:43Z</time>
      </trkpt>
      <trkpt lat="37.1803659706" lon="-7.43169688679">
        <ele>13</ele>
        <time>2011-03-19T18:18:45Z</time>
      </trkpt>
      <trkpt lat="37.180352392" lon="-7.43180719259">
        <ele>13</ele>
        <time>2011-03-19T18:18:47Z</time>
      </trkpt>
      <trkpt lat="37.1803488716" lon="-7.4318465037">
        <ele>13</ele>
        <time>2011-03-19T18:18:48Z</time>
      </trkpt>
      <trkpt lat="37.1803559123" lon="-7.4319294007">
        <ele>13.2</ele>
        <time>2011-03-19T18:18:52Z</time>
      </trkpt>
      <trkpt lat="37.180351889" lon="-7.43201053749">
        <ele>13.2</ele>
        <time>2011-03-19T18:18:55Z</time>
      </trkpt>
      <trkpt lat="37.1803347061" lon="-7.43208547167">
        <ele>13.2</ele>
        <time>2011-03-19T18:18:57Z</time>
      </trkpt>
      <trkpt lat="37.1803158469" lon="-7.43217700202">
        <ele>13.2</ele>
        <time>2011-03-19T18:18:59Z</time>
      </trkpt>
      <trkpt lat="37.1803035255" lon="-7.43227607608">
        <ele>13.2</ele>
        <time>2011-03-19T18:19:01Z</time>
      </trkpt>
      <trkpt lat="37.180300508" lon="-7.43234925007">
        <ele>13.2</ele>
        <time>2011-03-19T18:19:03Z</time>
      </trkpt>
      <trkpt lat="37.1802885219" lon="-7.43241982566">
        <ele>13.6</ele>
        <time>2011-03-19T18:19:06Z</time>
      </trkpt>
      <trkpt lat="37.1802767034" lon="-7.43249199382">
        <ele>14</ele>
        <time>2011-03-19T18:19:08Z</time>
      </trkpt>
      <trkpt lat="37.1802684891" lon="-7.4325593843">
        <ele>14.2</ele>
        <time>2011-03-19T18:19:10Z</time>
      </trkpt>
      <trkpt lat="37.1802607778" lon="-7.43262752915">
        <ele>14.4</ele>
        <time>2011-03-19T18:19:12Z</time>
      </trkpt>
      <trkpt lat="37.1802487917" lon="-7.43270045168">
        <ele>14.6</ele>
        <time>2011-03-19T18:19:14Z</time>
      </trkpt>
      <trkpt lat="37.1802297648" lon="-7.43276935089">
        <ele>14.8</ele>
        <time>2011-03-19T18:19:16Z</time>
      </trkpt>
      <trkpt lat="37.1802216343" lon="-7.43283389152">
        <ele>14.8</ele>
        <time>2011-03-19T18:19:18Z</time>
      </trkpt>
      <trkpt lat="37.18021342" lon="-7.432901282">
        <ele>15</ele>
        <time>2011-03-19T18:19:20Z</time>
      </trkpt>
      <trkpt lat="37.1802003443" lon="-7.43296884011">
        <ele>15</ele>
        <time>2011-03-19T18:19:22Z</time>
      </trkpt>
      <trkpt lat="37.1801964886" lon="-7.43300488228">
        <ele>15</ele>
        <time>2011-03-19T18:19:23Z</time>
      </trkpt>
      <trkpt lat="37.1801710076" lon="-7.43310747674">
        <ele>15.2</ele>
        <time>2011-03-19T18:19:26Z</time>
      </trkpt>
      <trkpt lat="37.18016623" lon="-7.43314444092">
        <ele>15.2</ele>
        <time>2011-03-19T18:19:27Z</time>
      </trkpt>
      <trkpt lat="37.1801492985" lon="-7.43325080723">
        <ele>15.2</ele>
        <time>2011-03-19T18:19:30Z</time>
      </trkpt>
      <trkpt lat="37.1801391564" lon="-7.43328148498">
        <ele>15.2</ele>
        <time>2011-03-19T18:19:31Z</time>
      </trkpt>
      <trkpt lat="37.1801376477" lon="-7.4333490431">
        <ele>15.2</ele>
        <time>2011-03-19T18:19:33Z</time>
      </trkpt>
      <trkpt lat="37.1801434312" lon="-7.43341408664">
        <ele>15.2</ele>
        <time>2011-03-19T18:19:35Z</time>
      </trkpt>
      <trkpt lat="37.180141671" lon="-7.43344635696">
        <ele>15.2</ele>
        <time>2011-03-19T18:19:36Z</time>
      </trkpt>
      <trkpt lat="37.1801329538" lon="-7.43355213654">
        <ele>15.2</ele>
        <time>2011-03-19T18:19:39Z</time>
      </trkpt>
      <trkpt lat="37.1801295172" lon="-7.4336305073">
        <ele>15.2</ele>
        <time>2011-03-19T18:19:41Z</time>
      </trkpt>
      <trkpt lat="37.1801226441" lon="-7.43369831687">
        <ele>15.2</ele>
        <time>2011-03-19T18:19:43Z</time>
      </trkpt>
      <trkpt lat="37.1801159386" lon="-7.43377182613">
        <ele>15.2</ele>
        <time>2011-03-19T18:19:45Z</time>
      </trkpt>
      <trkpt lat="37.1801045392" lon="-7.43381365181">
        <ele>15.2</ele>
        <time>2011-03-19T18:19:46Z</time>
      </trkpt>
      <trkpt lat="37.180093978" lon="-7.43388841836">
        <ele>15.2</ele>
        <time>2011-03-19T18:19:48Z</time>
      </trkpt>
      <trkpt lat="37.1800778009" lon="-7.43396628621">
        <ele>15.4</ele>
        <time>2011-03-19T18:19:50Z</time>
      </trkpt>
      <trkpt lat="37.1800586902" lon="-7.43404398643">
        <ele>15.4</ele>
        <time>2011-03-19T18:19:52Z</time>
      </trkpt>
      <trkpt lat="37.1800482966" lon="-7.4341179986">
        <ele>15.4</ele>
        <time>2011-03-19T18:19:54Z</time>
      </trkpt>
      <trkpt lat="37.1800446086" lon="-7.43415269967">
        <ele>15.4</ele>
        <time>2011-03-19T18:19:55Z</time>
      </trkpt>
      <trkpt lat="37.1800349694" lon="-7.43425898216">
        <ele>15.4</ele>
        <time>2011-03-19T18:19:58Z</time>
      </trkpt>
      <trkpt lat="37.1800239053" lon="-7.43432612118">
        <ele>15.4</ele>
        <time>2011-03-19T18:20:00Z</time>
      </trkpt>
      <trkpt lat="37.1800161101" lon="-7.43439351166">
        <ele>15.4</ele>
        <time>2011-03-19T18:20:02Z</time>
      </trkpt>
      <trkpt lat="37.1800043755" lon="-7.43446375198">
        <ele>15.4</ele>
        <time>2011-03-19T18:20:04Z</time>
      </trkpt>
      <trkpt lat="37.1799951554" lon="-7.43453826707">
        <ele>15.4</ele>
        <time>2011-03-19T18:20:06Z</time>
      </trkpt>
      <trkpt lat="37.1799769666" lon="-7.43462351099">
        <ele>15.4</ele>
        <time>2011-03-19T18:20:09Z</time>
      </trkpt>
      <trkpt lat="37.1799650644" lon="-7.43471470607">
        <ele>15.4</ele>
        <time>2011-03-19T18:20:12Z</time>
      </trkpt>
      <trkpt lat="37.1799558443" lon="-7.43478519784">
        <ele>15.4</ele>
        <time>2011-03-19T18:20:14Z</time>
      </trkpt>
      <trkpt lat="37.1799543355" lon="-7.43485459998">
        <ele>15.4</ele>
        <time>2011-03-19T18:20:16Z</time>
      </trkpt>
      <trkpt lat="37.1799473785" lon="-7.43494713615">
        <ele>15.4</ele>
        <time>2011-03-19T18:20:19Z</time>
      </trkpt>
      <trkpt lat="37.1799296089" lon="-7.43502777003">
        <ele>15.4</ele>
        <time>2011-03-19T18:20:22Z</time>
      </trkpt>
      <trkpt lat="37.179917539" lon="-7.43509675307">
        <ele>15.4</ele>
        <time>2011-03-19T18:20:24Z</time>
      </trkpt>
      <trkpt lat="37.1799038765" lon="-7.43517512383">
        <ele>15.4</ele>
        <time>2011-03-19T18:20:26Z</time>
      </trkpt>
      <trkpt lat="37.1798828379" lon="-7.43525491952">
        <ele>15.4</ele>
        <time>2011-03-19T18:20:28Z</time>
      </trkpt>
      <trkpt lat="37.1798693431" lon="-7.43533857088">
        <ele>15.4</ele>
        <time>2011-03-19T18:20:30Z</time>
      </trkpt>
      <trkpt lat="37.1798566026" lon="-7.43540822447">
        <ele>15.4</ele>
        <time>2011-03-19T18:20:32Z</time>
      </trkpt>
      <trkpt lat="37.1798478854" lon="-7.4354815661">
        <ele>15.4</ele>
        <time>2011-03-19T18:20:34Z</time>
      </trkpt>
      <trkpt lat="37.1798395035" lon="-7.43555197406">
        <ele>15.4</ele>
        <time>2011-03-19T18:20:36Z</time>
      </trkpt>
      <trkpt lat="37.1798210633" lon="-7.43562137619">
        <ele>15.4</ele>
        <time>2011-03-19T18:20:38Z</time>
      </trkpt>
      <trkpt lat="37.1798042157" lon="-7.43569698093">
        <ele>15.4</ele>
        <time>2011-03-19T18:20:40Z</time>
      </trkpt>
      <trkpt lat="37.1797991865" lon="-7.43577191511">
        <ele>15.4</ele>
        <time>2011-03-19T18:20:42Z</time>
      </trkpt>
      <trkpt lat="37.1797908047" lon="-7.43584416709">
        <ele>15.4</ele>
        <time>2011-03-19T18:20:44Z</time>
      </trkpt>
      <trkpt lat="37.179782758" lon="-7.43591180902">
        <ele>15.4</ele>
        <time>2011-03-19T18:20:46Z</time>
      </trkpt>
      <trkpt lat="37.1797765554" lon="-7.43603619642">
        <ele>15.4</ele>
        <time>2011-03-19T18:20:50Z</time>
      </trkpt>
      <trkpt lat="37.1797717777" lon="-7.43610341926">
        <ele>15.2</ele>
        <time>2011-03-19T18:20:52Z</time>
      </trkpt>
      <trkpt lat="37.1797610489" lon="-7.43613283973">
        <ele>15</ele>
        <time>2011-03-19T18:20:53Z</time>
      </trkpt>
      <trkpt lat="37.179742944" lon="-7.43615471649">
        <ele>14.8</ele>
        <time>2011-03-19T18:20:54Z</time>
      </trkpt>
      <trkpt lat="37.1797329695" lon="-7.43626292681">
        <ele>14.4</ele>
        <time>2011-03-19T18:20:57Z</time>
      </trkpt>
      <trkpt lat="37.1796937422" lon="-7.43631212857">
        <ele>14.2</ele>
        <time>2011-03-19T18:20:59Z</time>
      </trkpt>
      <trkpt lat="37.1796496535" lon="-7.43636518599">
        <ele>14</ele>
        <time>2011-03-19T18:21:01Z</time>
      </trkpt>
      <trkpt lat="37.1796209035" lon="-7.43645001082">
        <ele>13.8</ele>
        <time>2011-03-19T18:21:04Z</time>
      </trkpt>
      <trkpt lat="37.1796205683" lon="-7.43648848374">
        <ele>13.8</ele>
        <time>2011-03-19T18:21:05Z</time>
      </trkpt>
      <trkpt lat="37.1796222446" lon="-7.4365906591">
        <ele>13.6</ele>
        <time>2011-03-19T18:21:08Z</time>
      </trkpt>
      <trkpt lat="37.179621155" lon="-7.43666425219">
        <ele>13.6</ele>
        <time>2011-03-19T18:21:10Z</time>
      </trkpt>
      <trkpt lat="37.1796144495" lon="-7.43674111421">
        <ele>13.6</ele>
        <time>2011-03-19T18:21:12Z</time>
      </trkpt>
      <trkpt lat="37.179603553" lon="-7.43681311473">
        <ele>13.4</ele>
        <time>2011-03-19T18:21:14Z</time>
      </trkpt>
      <trkpt lat="37.1795888847" lon="-7.43688955766">
        <ele>13.4</ele>
        <time>2011-03-19T18:21:16Z</time>
      </trkpt>
      <trkpt lat="37.1795823468" lon="-7.43696641968">
        <ele>13.4</ele>
        <time>2011-03-19T18:21:18Z</time>
      </trkpt>
      <trkpt lat="37.1795789102" lon="-7.43704227588">
        <ele>13.4</ele>
        <time>2011-03-19T18:21:20Z</time>
      </trkpt>
      <trkpt lat="37.1795729591" lon="-7.43711276765">
        <ele>13.4</ele>
        <time>2011-03-19T18:21:22Z</time>
      </trkpt>
      <trkpt lat="37.1795632361" lon="-7.43718711511">
        <ele>13.4</ele>
        <time>2011-03-19T18:21:24Z</time>
      </trkpt>
      <trkpt lat="37.17955586" lon="-7.43726104347">
        <ele>13.4</ele>
        <time>2011-03-19T18:21:26Z</time>
      </trkpt>
      <trkpt lat="37.1795449635" lon="-7.43732994268">
        <ele>13.4</ele>
        <time>2011-03-19T18:21:28Z</time>
      </trkpt>
      <trkpt lat="37.1795297085" lon="-7.43739909336">
        <ele>13.4</ele>
        <time>2011-03-19T18:21:30Z</time>
      </trkpt>
      <trkpt lat="37.1795187282" lon="-7.43746531037">
        <ele>13.4</ele>
        <time>2011-03-19T18:21:32Z</time>
      </trkpt>
      <trkpt lat="37.1795032217" lon="-7.43753613742">
        <ele>13.4</ele>
        <time>2011-03-19T18:21:34Z</time>
      </trkpt>
      <trkpt lat="37.1794897268" lon="-7.4376119098">
        <ele>13.4</ele>
        <time>2011-03-19T18:21:36Z</time>
      </trkpt>
      <trkpt lat="37.1794773216" lon="-7.43768692781">
        <ele>13.4</ele>
        <time>2011-03-19T18:21:38Z</time>
      </trkpt>
      <trkpt lat="37.1794658384" lon="-7.43775683285">
        <ele>13.4</ele>
        <time>2011-03-19T18:21:40Z</time>
      </trkpt>
      <trkpt lat="37.1794567021" lon="-7.43782615116">
        <ele>13.2</ele>
        <time>2011-03-19T18:21:42Z</time>
      </trkpt>
      <trkpt lat="37.1794482364" lon="-7.43788926687">
        <ele>13.2</ele>
        <time>2011-03-19T18:21:44Z</time>
      </trkpt>
      <trkpt lat="37.1794384296" lon="-7.4379559868">
        <ele>13.2</ele>
        <time>2011-03-19T18:21:46Z</time>
      </trkpt>
      <trkpt lat="37.1794233422" lon="-7.43802865787">
        <ele>13.2</ele>
        <time>2011-03-19T18:21:48Z</time>
      </trkpt>
      <trkpt lat="37.1794073327" lon="-7.43809780854">
        <ele>13.2</ele>
        <time>2011-03-19T18:21:50Z</time>
      </trkpt>
      <trkpt lat="37.1793949275" lon="-7.43816762977">
        <ele>13.2</ele>
        <time>2011-03-19T18:21:52Z</time>
      </trkpt>
      <trkpt lat="37.1793826899" lon="-7.43823753482">
        <ele>13.2</ele>
        <time>2011-03-19T18:21:54Z</time>
      </trkpt>
      <trkpt lat="37.1793737213" lon="-7.43830635021">
        <ele>13.2</ele>
        <time>2011-03-19T18:21:56Z</time>
      </trkpt>
      <trkpt lat="37.1793712067" lon="-7.43837474652">
        <ele>13.2</ele>
        <time>2011-03-19T18:21:58Z</time>
      </trkpt>
      <trkpt lat="37.1793650041" lon="-7.43844750141">
        <ele>13.2</ele>
        <time>2011-03-19T18:22:00Z</time>
      </trkpt>
      <trkpt lat="37.1793570413" lon="-7.43854523437">
        <ele>13.2</ele>
        <time>2011-03-19T18:22:03Z</time>
      </trkpt>
      <trkpt lat="37.1793500005" lon="-7.43861446886">
        <ele>13.2</ele>
        <time>2011-03-19T18:22:05Z</time>
      </trkpt>
      <trkpt lat="37.1793403613" lon="-7.43868068587">
        <ele>13.2</ele>
        <time>2011-03-19T18:22:07Z</time>
      </trkpt>
      <trkpt lat="37.1793308898" lon="-7.43875176438">
        <ele>13.2</ele>
        <time>2011-03-19T18:22:09Z</time>
      </trkpt>
      <trkpt lat="37.1793148804" lon="-7.43882535746">
        <ele>13.2</ele>
        <time>2011-03-19T18:22:11Z</time>
      </trkpt>
      <trkpt lat="37.179304403" lon="-7.43889727417">
        <ele>13.2</ele>
        <time>2011-03-19T18:22:13Z</time>
      </trkpt>
      <trkpt lat="37.1792938418" lon="-7.43896701157">
        <ele>13.2</ele>
        <time>2011-03-19T18:22:15Z</time>
      </trkpt>
      <trkpt lat="37.1792926683" lon="-7.43904093993">
        <ele>13.2</ele>
        <time>2011-03-19T18:22:17Z</time>
      </trkpt>
      <trkpt lat="37.1793001282" lon="-7.43911553884">
        <ele>13.2</ele>
        <time>2011-03-19T18:22:19Z</time>
      </trkpt>
      <trkpt lat="37.1793021399" lon="-7.43918963484">
        <ele>13.2</ele>
        <time>2011-03-19T18:22:21Z</time>
      </trkpt>
      <trkpt lat="37.179306247" lon="-7.43925912079">
        <ele>13.2</ele>
        <time>2011-03-19T18:22:23Z</time>
      </trkpt>
      <trkpt lat="37.1793032295" lon="-7.43933070221">
        <ele>13.2</ele>
        <time>2011-03-19T18:22:25Z</time>
      </trkpt>
      <trkpt lat="37.1792988709" lon="-7.43941074936">
        <ele>13.2</ele>
        <time>2011-03-19T18:22:27Z</time>
      </trkpt>
      <trkpt lat="37.1792893156" lon="-7.43948249842">
        <ele>13.2</ele>
        <time>2011-03-19T18:22:29Z</time>
      </trkpt>
      <trkpt lat="37.1792808499" lon="-7.43955022418">
        <ele>13.2</ele>
        <time>2011-03-19T18:22:31Z</time>
      </trkpt>
      <trkpt lat="37.1792696181" lon="-7.43961811757">
        <ele>13.2</ele>
        <time>2011-03-19T18:22:33Z</time>
      </trkpt>
      <trkpt lat="37.1792578834" lon="-7.43969162683">
        <ele>13.2</ele>
        <time>2011-03-19T18:22:35Z</time>
      </trkpt>
      <trkpt lat="37.1792425446" lon="-7.43976278916">
        <ele>13.2</ele>
        <time>2011-03-19T18:22:37Z</time>
      </trkpt>
      <trkpt lat="37.1792291335" lon="-7.43983831008">
        <ele>13.2</ele>
        <time>2011-03-19T18:22:39Z</time>
      </trkpt>
      <trkpt lat="37.17922335" lon="-7.43990813131">
        <ele>13.2</ele>
        <time>2011-03-19T18:22:41Z</time>
      </trkpt>
      <trkpt lat="37.1792096037" lon="-7.43996915154">
        <ele>13</ele>
        <time>2011-03-19T18:22:43Z</time>
      </trkpt>
      <trkpt lat="37.1791946001" lon="-7.44002891448">
        <ele>12.6</ele>
        <time>2011-03-19T18:22:45Z</time>
      </trkpt>
      <trkpt lat="37.1791840389" lon="-7.44009203019">
        <ele>12.4</ele>
        <time>2011-03-19T18:22:47Z</time>
      </trkpt>
      <trkpt lat="37.1791733101" lon="-7.44015908539">
        <ele>12.2</ele>
        <time>2011-03-19T18:22:49Z</time>
      </trkpt>
      <trkpt lat="37.1791587256" lon="-7.44022857134">
        <ele>12</ele>
        <time>2011-03-19T18:22:51Z</time>
      </trkpt>
      <trkpt lat="37.1791396148" lon="-7.44029193851">
        <ele>11.8</ele>
        <time>2011-03-19T18:22:53Z</time>
      </trkpt>
      <trkpt lat="37.1791319873" lon="-7.4403245441">
        <ele>11.8</ele>
        <time>2011-03-19T18:22:54Z</time>
      </trkpt>
      <trkpt lat="37.1791218452" lon="-7.44039361095">
        <ele>11.6</ele>
        <time>2011-03-19T18:22:56Z</time>
      </trkpt>
      <trkpt lat="37.1791076798" lon="-7.44045739721">
        <ele>11.6</ele>
        <time>2011-03-19T18:22:58Z</time>
      </trkpt>
      <trkpt lat="37.1790953584" lon="-7.44052512296">
        <ele>11.6</ele>
        <time>2011-03-19T18:23:00Z</time>
      </trkpt>
      <trkpt lat="37.1790836237" lon="-7.44059687203">
        <ele>11.4</ele>
        <time>2011-03-19T18:23:02Z</time>
      </trkpt>
      <trkpt lat="37.1790732302" lon="-7.44066526833">
        <ele>11.4</ele>
        <time>2011-03-19T18:23:04Z</time>
      </trkpt>
      <trkpt lat="37.1790568017" lon="-7.4407317368">
        <ele>11.4</ele>
        <time>2011-03-19T18:23:06Z</time>
      </trkpt>
      <trkpt lat="37.1790494256" lon="-7.4408036535">
        <ele>11.4</ele>
        <time>2011-03-19T18:23:08Z</time>
      </trkpt>
      <trkpt lat="37.1790473301" lon="-7.44084078532">
        <ele>11.4</ele>
        <time>2011-03-19T18:23:09Z</time>
      </trkpt>
      <trkpt lat="37.1790463243" lon="-7.44087414528">
        <ele>11.4</ele>
        <time>2011-03-19T18:23:10Z</time>
      </trkpt>
      <trkpt lat="37.1790405408" lon="-7.44094513997">
        <ele>11.4</ele>
        <time>2011-03-19T18:23:12Z</time>
      </trkpt>
      <trkpt lat="37.1790347573" lon="-7.44101781105">
        <ele>11.4</ele>
        <time>2011-03-19T18:23:14Z</time>
      </trkpt>
      <trkpt lat="37.1790310692" lon="-7.44108796755">
        <ele>11.4</ele>
        <time>2011-03-19T18:23:16Z</time>
      </trkpt>
      <trkpt lat="37.1790244475" lon="-7.44115795641">
        <ele>11.4</ele>
        <time>2011-03-19T18:23:18Z</time>
      </trkpt>
      <trkpt lat="37.1790139702" lon="-7.44122886729">
        <ele>11.4</ele>
        <time>2011-03-19T18:23:20Z</time>
      </trkpt>
      <trkpt lat="37.1790053368" lon="-7.4412981856">
        <ele>11.2</ele>
        <time>2011-03-19T18:23:22Z</time>
      </trkpt>
      <trkpt lat="37.1789982122" lon="-7.44136465407">
        <ele>11.2</ele>
        <time>2011-03-19T18:23:24Z</time>
      </trkpt>
      <trkpt lat="37.1789893274" lon="-7.44143003289">
        <ele>11.2</ele>
        <time>2011-03-19T18:23:26Z</time>
      </trkpt>
      <trkpt lat="37.1789800235" lon="-7.44148661071">
        <ele>11.2</ele>
        <time>2011-03-19T18:23:28Z</time>
      </trkpt>
      <trkpt lat="37.1789764192" lon="-7.44153681829">
        <ele>11.2</ele>
        <time>2011-03-19T18:23:30Z</time>
      </trkpt>
      <trkpt lat="37.1789605775" lon="-7.44161803891">
        <ele>11.2</ele>
        <time>2011-03-19T18:23:33Z</time>
      </trkpt>
      <trkpt lat="37.1789473341" lon="-7.44168148989">
        <ele>11.2</ele>
        <time>2011-03-19T18:23:35Z</time>
      </trkpt>
      <trkpt lat="37.1789450709" lon="-7.44175064056">
        <ele>11.2</ele>
        <time>2011-03-19T18:23:37Z</time>
      </trkpt>
      <trkpt lat="37.1789451548" lon="-7.44182347927">
        <ele>11.2</ele>
        <time>2011-03-19T18:23:39Z</time>
      </trkpt>
      <trkpt lat="37.1789291453" lon="-7.4418549114">
        <ele>11.2</ele>
        <time>2011-03-19T18:23:40Z</time>
      </trkpt>
      <trkpt lat="37.1789130521" lon="-7.44191785947">
        <ele>11.2</ele>
        <time>2011-03-19T18:23:42Z</time>
      </trkpt>
      <trkpt lat="37.1789177459" lon="-7.44198650723">
        <ele>11.2</ele>
        <time>2011-03-19T18:23:44Z</time>
      </trkpt>
      <trkpt lat="37.1789258764" lon="-7.44205875921">
        <ele>11.2</ele>
        <time>2011-03-19T18:23:46Z</time>
      </trkpt>
      <trkpt lat="37.1789273013" lon="-7.44213428013">
        <ele>11.2</ele>
        <time>2011-03-19T18:23:48Z</time>
      </trkpt>
      <trkpt lat="37.1789352641" lon="-7.44220242497">
        <ele>11.2</ele>
        <time>2011-03-19T18:23:50Z</time>
      </trkpt>
      <trkpt lat="37.1789335877" lon="-7.44226939635">
        <ele>11.2</ele>
        <time>2011-03-19T18:23:52Z</time>
      </trkpt>
      <trkpt lat="37.1789258764" lon="-7.44233695447">
        <ele>11.2</ele>
        <time>2011-03-19T18:23:54Z</time>
      </trkpt>
      <trkpt lat="37.1789265469" lon="-7.4424014951">
        <ele>11.2</ele>
        <time>2011-03-19T18:23:56Z</time>
      </trkpt>
      <trkpt lat="37.1789264631" lon="-7.44247039432">
        <ele>11.2</ele>
        <time>2011-03-19T18:23:58Z</time>
      </trkpt>
      <trkpt lat="37.1789255411" lon="-7.44250551448">
        <ele>11.2</ele>
        <time>2011-03-19T18:23:59Z</time>
      </trkpt>
      <trkpt lat="37.1789543748" lon="-7.44261540119">
        <ele>11.2</ele>
        <time>2011-03-19T18:24:02Z</time>
      </trkpt>
      <trkpt lat="37.1789674506" lon="-7.44268815608">
        <ele>11.2</ele>
        <time>2011-03-19T18:24:04Z</time>
      </trkpt>
      <trkpt lat="37.1789892436" lon="-7.44275261289">
        <ele>11.2</ele>
        <time>2011-03-19T18:24:06Z</time>
      </trkpt>
      <trkpt lat="37.1790067617" lon="-7.44281564478">
        <ele>11.2</ele>
        <time>2011-03-19T18:24:08Z</time>
      </trkpt>
      <trkpt lat="37.1790287223" lon="-7.44287901194">
        <ele>11.2</ele>
        <time>2011-03-19T18:24:10Z</time>
      </trkpt>
      <trkpt lat="37.179058478" lon="-7.4429480788">
        <ele>11.2</ele>
        <time>2011-03-19T18:24:12Z</time>
      </trkpt>
      <trkpt lat="37.1790926762" lon="-7.44301228415">
        <ele>11.2</ele>
        <time>2011-03-19T18:24:14Z</time>
      </trkpt>
      <trkpt lat="37.1791246112" lon="-7.44307271765">
        <ele>11.2</ele>
        <time>2011-03-19T18:24:16Z</time>
      </trkpt>
      <trkpt lat="37.1791769143" lon="-7.44313918612">
        <ele>11.2</ele>
        <time>2011-03-19T18:24:19Z</time>
      </trkpt>
      <trkpt lat="37.1792009703" lon="-7.44318947752">
        <ele>11.2</ele>
        <time>2011-03-19T18:24:21Z</time>
      </trkpt>
      <trkpt lat="37.1791908282" lon="-7.44328251661">
        <ele>11.2</ele>
        <time>2011-03-19T18:24:24Z</time>
      </trkpt>
      <trkpt lat="37.1791778363" lon="-7.44334814688">
        <ele>11.2</ele>
        <time>2011-03-19T18:24:26Z</time>
      </trkpt>
      <trkpt lat="37.1791640062" lon="-7.4434139448">
        <ele>11.2</ele>
        <time>2011-03-19T18:24:28Z</time>
      </trkpt>
      <trkpt lat="37.1791521039" lon="-7.44348284402">
        <ele>11.2</ele>
        <time>2011-03-19T18:24:30Z</time>
      </trkpt>
      <trkpt lat="37.1791381061" lon="-7.44354730083">
        <ele>11.2</ele>
        <time>2011-03-19T18:24:32Z</time>
      </trkpt>
      <trkpt lat="37.1791220128" lon="-7.44361008126">
        <ele>11.2</ele>
        <time>2011-03-19T18:24:34Z</time>
      </trkpt>
      <trkpt lat="37.1791040756" lon="-7.44368099213">
        <ele>11.2</ele>
        <time>2011-03-19T18:24:36Z</time>
      </trkpt>
      <trkpt lat="37.1790898264" lon="-7.44374528131">
        <ele>11.2</ele>
        <time>2011-03-19T18:24:38Z</time>
      </trkpt>
      <trkpt lat="37.1790776726" lon="-7.44380596626">
        <ele>11.2</ele>
        <time>2011-03-19T18:24:40Z</time>
      </trkpt>
      <trkpt lat="37.1790637586" lon="-7.44387126126">
        <ele>11.2</ele>
        <time>2011-03-19T18:24:42Z</time>
      </trkpt>
      <trkpt lat="37.1790573046" lon="-7.44394141777">
        <ele>11.2</ele>
        <time>2011-03-19T18:24:44Z</time>
      </trkpt>
      <trkpt lat="37.1790481683" lon="-7.44401358593">
        <ele>11.2</ele>
        <time>2011-03-19T18:24:46Z</time>
      </trkpt>
      <trkpt lat="37.179043223" lon="-7.44408122786">
        <ele>11.2</ele>
        <time>2011-03-19T18:24:48Z</time>
      </trkpt>
      <trkpt lat="37.1790351764" lon="-7.44414811542">
        <ele>11.2</ele>
        <time>2011-03-19T18:24:50Z</time>
      </trkpt>
      <trkpt lat="37.1790280518" lon="-7.44421458389">
        <ele>11.2</ele>
        <time>2011-03-19T18:24:52Z</time>
      </trkpt>
      <trkpt lat="37.1790268783" lon="-7.44427887306">
        <ele>11.2</ele>
        <time>2011-03-19T18:24:54Z</time>
      </trkpt>
      <trkpt lat="37.1790250343" lon="-7.44434098294">
        <ele>11.2</ele>
        <time>2011-03-19T18:24:56Z</time>
      </trkpt>
      <trkpt lat="37.1790188317" lon="-7.44440971452">
        <ele>11.2</ele>
        <time>2011-03-19T18:24:58Z</time>
      </trkpt>
      <trkpt lat="37.1790109527" lon="-7.44450250215">
        <ele>11.2</ele>
        <time>2011-03-19T18:25:01Z</time>
      </trkpt>
      <trkpt lat="37.1790105336" lon="-7.44456125927">
        <ele>11.2</ele>
        <time>2011-03-19T18:25:04Z</time>
      </trkpt>
      <trkpt lat="37.1790073485" lon="-7.44457852599">
        <ele>11.2</ele>
        <time>2011-03-19T18:25:05Z</time>
      </trkpt>
      <trkpt lat="37.1789993018" lon="-7.44464449154">
        <ele>11.2</ele>
        <time>2011-03-19T18:25:09Z</time>
      </trkpt>
      <trkpt lat="37.1790019002" lon="-7.44466192589">
        <ele>11.2</ele>
        <time>2011-03-19T18:25:10Z</time>
      </trkpt>
      <trkpt lat="37.1790138863" lon="-7.44473468078">
        <ele>11.2</ele>
        <time>2011-03-19T18:25:14Z</time>
      </trkpt>
      <trkpt lat="37.1790262077" lon="-7.44477902103">
        <ele>11.2</ele>
        <time>2011-03-19T18:25:17Z</time>
      </trkpt>
      <trkpt lat="37.1790410437" lon="-7.44482495384">
        <ele>10.8</ele>
        <time>2011-03-19T18:25:20Z</time>
      </trkpt>
    </trkseg>
  </trk>
</gpx>